[[{"header":{"parameterUnit":"m.s-1","parameterCategory":1,"la1":30.6,"la2":28.766,"lo1":-90.7593,"lo2":-88.6598,"dx":0.0162,"dy":0.0183,"nx":116,"ny":114,"refTime":"2022-12-11T18:00:00:Z","depth":0,"parameterNumber":2,"parameterNumberName":"U-component_of_WINDS"},"data":[0.0,0.0,0.0,0.0,0.0,0.0,0.0,0.0,0.0,0.0,0.0,0.0,0.0,0.0,0.0,0.0,0.0,0.0,0.0,0.0,0.0,0.0,0.0,0.0,0.0,0.0,0.0,0.0,0.0,0.0,0.0,0.0,0.0,0.0,0.0,0.0,0.0,0.0,0.0,0.0,0.0,0.0,0.0,0.0,0.0,0.0,0.0,0.0,0.0,0.0,0.0,0.0,0.0,0.0,0.0,0.0,0.0,0.0,0.0,0.0,0.0,0.0,0.0,0.0,0.0,0.0,0.0,0.0,0.0,0.0,0.0,0.0,0.0,0.0,0.0,0.0,0.0,0.0,0.0,0.0,0.0,0.0,0.0,0.0,0.0,0.0,0.0,0.0,0.0,0.0,0.0,0.0,0.0,0.0,0.0,0.0,0.0,0.0,0.0,0.0,0.0,0.0,0.0,0.0,0.0,0.0,0.0,0.0,0.0,0.0,0.0,0.0,0.0,0.0,0.0,0.0,0.0,0.0,0.0,0.0,0.0,0.0,0.0,0.0,0.0,0.0,0.0,0.0,0.0,0.0,0.0,0.0,0.0,0.0,0.0,0.0,0.0,0.0,0.0,0.0,0.0,0.0,0.0,0.0,0.0,0.0,0.0,0.0,0.0,0.0,0.0,0.0,0.0,0.0,0.0,0.0,0.0,0.0,0.0,0.0,0.0,0.0,0.0,0.0,0.0,0.0,0.0,0.0,0.0,0.0,0.0,0.0,0.0,0.0,0.0,0.0,0.0,0.0,0.0,0.0,0.0,0.0,0.0,0.0,0.0,0.0,0.0,0.0,0.0,0.0,0.0,0.0,0.0,0.0,0.0,0.0,0.0,0.0,0.0,0.0,0.0,0.0,0.0,0.0,0.0,0.0,0.0,0.0,0.0,0.0,0.0,0.0,0.0,0.0,0.0,0.0,0.0,0.0,0.0,0.0,0.0,0.0,0.0,0.0,0.0,0.0,0.0,0.0,0.0,0.0,0.0,0.0,0.0,0.0,0.0,0.0,0.0,0.0,0.0,0.0,0.0,0.0,0.0,0.0,0.0,0.0,0.0,0.0,0.0,0.0,0.0,0.0,0.0,0.0,0.0,0.0,0.0,0.0,0.0,0.0,0.0,0.0,0.0,0.0,0.0,0.0,0.0,0.0,0.0,0.0,0.0,0.0,0.0,0.0,0.0,0.0,0.0,0.0,0.0,0.0,0.0,0.0,0.0,0.0,0.0,0.0,0.0,0.0,0.0,0.0,0.0,0.0,0.0,0.0,0.0,0.0,0.0,0.0,0.0,0.0,0.0,0.0,0.0,0.0,0.0,0.0,0.0,0.0,0.0,0.0,0.0,0.0,0.0,0.0,0.0,0.0,0.0,0.0,0.0,0.0,0.0,0.0,0.0,0.0,0.0,0.0,0.0,0.0,0.0,0.0,0.0,0.0,0.0,0.0,0.0,0.0,0.0,0.0,0.0,0.0,0.0,0.0,0.0,0.0,0.0,0.0,0.0,0.0,0.0,0.0,0.0,0.0,0.0,0.0,0.0,0.0,0.0,0.0,0.0,0.0,0.0,0.0,0.0,0.0,0.0,0.0,0.0,0.0,0.0,0.0,0.0,0.0,0.0,0.0,0.0,0.0,0.0,0.0,0.0,0.0,0.0,0.0,0.0,0.0,0.0,0.0,0.0,0.0,0.0,0.0,0.0,0.0,0.0,0.0,0.0,0.0,0.0,0.0,0.0,0.0,0.0,0.0,0.0,0.0,0.0,0.0,0.0,0.0,0.0,0.0,0.0,0.0,0.0,0.0,0.0,0.0,0.0,0.0,0.0,0.0,0.0,0.0,0.0,0.0,0.0,0.0,0.0,0.0,0.0,0.0,0.0,0.0,0.0,0.0,0.0,0.0,0.0,0.0,0.0,0.0,0.0,0.0,0.0,0.0,0.0,0.0,0.0,0.0,0.0,0.0,0.0,0.0,0.0,0.0,0.0,0.0,0.0,0.0,0.0,0.0,0.0,0.0,0.0,0.0,0.0,0.0,0.0,0.0,0.0,0.0,0.0,0.0,0.0,0.0,0.0,0.0,0.0,0.0,0.0,0.0,0.0,0.0,0.0,0.0,0.0,0.0,0.0,0.0,0.0,0.0,0.0,0.0,0.0,0.0,0.0,0.0,0.0,0.0,0.0,0.0,0.0,0.0,0.0,0.0,0.0,0.0,0.0,0.0,0.0,0.0,0.0,0.0,0.0,0.0,0.0,0.0,0.0,0.0,0.0,0.0,0.0,0.0,0.0,0.0,0.0,0.0,0.0,0.0,0.0,0.0,0.0,0.0,0.0,0.0,0.0,0.0,0.0,0.0,0.0,0.0,0.0,0.0,0.0,0.0,0.0,0.0,0.0,0.0,0.0,0.0,0.0,0.0,0.0,0.0,0.0,0.0,0.0,0.0,0.0,0.0,0.0,0.0,0.0,0.0,0.0,0.0,0.0,0.0,0.0,0.0,0.0,0.0,0.0,0.0,0.0,0.0,0.0,0.0,0.0,0.0,0.0,0.0,0.0,0.0,0.0,0.0,0.0,0.0,0.0,0.0,0.0,0.0,0.0,0.0,0.0,0.0,0.0,0.0,0.0,0.0,0.0,0.0,0.0,0.0,0.0,0.0,0.0,0.0,0.0,0.0,0.0,0.0,0.0,0.0,0.0,0.0,0.0,0.0,0.0,0.0,0.0,0.0,0.0,0.0,0.0,0.0,0.0,0.0,0.0,0.0,0.0,0.0,0.0,0.0,0.0,0.0,0.0,0.0,0.0,0.0,0.0,0.0,0.0,0.0,0.0,0.0,0.0,0.0,0.0,0.0,0.0,0.0,0.0,0.0,0.0,0.0,0.0,0.0,0.0,0.0,0.0,0.0,0.0,0.0,0.0,0.0,0.0,0.0,0.0,0.0,0.0,0.0,0.0,0.0,0.0,0.0,0.0,0.0,0.0,0.0,0.0,0.0,0.0,0.0,0.0,0.0,0.0,0.0,0.0,0.0,0.0,0.0,0.0,0.0,0.0,0.0,0.0,0.0,0.0,0.0,0.0,0.0,0.0,0.0,0.0,0.0,0.0,0.0,0.0,0.0,0.0,0.0,0.0,0.0,0.0,0.0,0.0,0.0,0.0,0.0,0.0,0.0,0.0,0.0,0.0,0.0,0.0,0.0,0.0,0.0,0.0,0.0,0.0,0.0,0.0,0.0,0.0,0.0,0.0,0.0,0.0,0.0,0.0,0.0,0.0,0.0,0.0,0.0,0.0,0.0,0.0,0.0,0.0,0.0,0.0,0.0,0.0,0.0,0.0,0.0,0.0,0.0,0.0,0.0,0.0,0.0,0.0,0.0,0.0,0.0,0.0,0.0,0.0,0.0,0.0,0.0,0.0,0.0,0.0,0.0,0.0,0.0,0.0,0.0,0.0,0.0,0.0,0.0,0.0,0.0,0.0,0.0,0.0,0.0,0.0,0.0,0.0,0.0,0.0,0.0,0.0,0.0,0.0,0.0,0.0,0.0,0.0,0.0,0.0,0.0,0.0,0.0,0.0,0.0,0.0,0.0,0.0,0.0,0.0,0.0,0.0,0.0,0.0,0.0,0.0,0.0,0.0,0.0,0.0,0.0,0.0,0.0,0.0,0.0,0.0,0.0,0.0,0.0,0.0,0.0,0.0,0.0,0.0,0.0,0.0,0.0,0.0,0.0,0.0,0.0,0.0,0.0,0.0,0.0,0.0,0.0,0.0,0.0,0.0,0.0,0.0,0.0,0.0,0.0,0.0,0.0,0.0,0.0,0.0,0.0,0.0,0.0,0.0,0.0,0.0,0.0,0.0,0.0,0.0,0.0,0.0,0.0,0.0,0.0,0.0,0.0,0.0,0.0,0.0,0.0,0.0,0.0,0.0,0.0,0.0,0.0,0.0,0.0,0.0,0.0,0.0,0.0,0.0,0.0,0.0,0.0,0.0,0.0,0.0,0.0,0.0,0.0,0.0,0.0,0.0,0.0,0.0,0.0,0.0,0.0,0.0,0.0,0.0,0.0,0.0,0.0,0.0,0.0,0.0,0.0,0.0,0.0,0.0,0.0,0.0,0.0,0.0,0.0,0.0,0.0,0.0,0.0,0.0,0.0,0.0,0.0,0.0,0.0,0.0,0.0,0.0,0.0,0.0,0.0,0.0,0.0,0.0,0.0,0.0,0.0,0.0,0.0,0.0,0.0,0.0,0.0,0.0,0.0,0.0,0.0,0.0,0.0,0.0,0.0,0.0,0.0,0.0,0.0,0.0,0.0,0.0,0.0,0.0,0.0,0.0,0.0,0.0,0.0,0.0,0.0,0.0,0.0,0.0,0.0,0.0,0.0,0.0,0.0,0.0,0.0,0.0,0.0,0.0,0.0,0.0,0.0,0.0,0.0,0.0,0.0,0.0,0.0,0.0,0.0,0.0,0.0,0.0,0.0,0.0,0.0,0.0,0.0,0.0,0.0,0.0,0.0,0.0,0.0,0.0,0.0,0.0,0.0,0.0,0.0,0.0,0.0,0.0,0.0,0.0,0.0,0.0,0.0,0.0,0.0,0.0,0.0,0.0,0.0,0.0,0.0,0.0,0.0,0.0,0.0,0.0,0.0,0.0,0.0,0.0,0.0,0.0,0.0,0.0,0.0,0.0,0.0,0.0,0.0,0.0,0.0,0.0,0.0,0.0,0.0,0.0,0.0,0.0,0.0,0.0,0.0,0.0,0.0,0.0,0.0,0.0,0.0,0.0,0.0,0.0,0.0,0.0,0.0,0.0,0.0,0.0,0.0,0.0,0.0,0.0,0.0,0.0,0.0,0.0,0.0,0.0,0.0,0.0,0.0,0.0,0.0,0.0,0.0,0.0,0.0,0.0,0.0,0.0,0.0,0.0,0.0,0.0,0.0,0.0,0.0,0.0,0.0,0.0,0.0,0.0,0.0,0.0,0.0,0.0,0.0,0.0,0.0,0.0,0.0,0.0,0.0,0.0,0.0,0.0,0.0,0.0,0.0,0.0,0.0,0.0,0.0,0.0,0.0,0.0,0.0,0.0,0.0,0.0,0.0,0.0,0.0,0.0,0.0,0.0,0.0,0.0,0.0,0.0,0.0,0.0,0.0,0.0,0.0,0.0,0.0,0.0,0.0,0.0,0.0,0.0,0.0,0.0,0.0,0.0,0.0,0.0,0.0,0.0,0.0,0.0,0.0,0.0,0.0,0.0,0.0,0.0,0.0,0.0,0.0,0.0,0.0,0.0,0.0,0.0,0.0,0.0,0.0,0.0,0.0,0.0,0.0,0.0,0.0,0.0,0.0,0.0,0.0,0.0,0.0,0.0,0.0,0.0,0.0,0.0,0.0,0.0,0.0,0.0,0.0,0.0,0.0,0.0,0.0,0.0,0.0,0.0,0.0,0.0,0.0,0.0,0.0,0.0,0.0,0.0,0.0,0.0,0.0,0.0,0.0,0.0,0.0,0.0,0.0,0.0,0.0,0.0,0.0,0.0,0.0,0.0,0.0,0.0,0.0,0.0,0.0,0.0,0.0,0.0,0.0,0.0,0.0,0.0,0.0,0.0,0.0,0.0,0.0,0.0,0.0,0.0,0.0,0.0,0.0,0.0,0.0,0.0,0.0,0.0,0.0,0.0,0.0,0.0,0.0,0.0,0.0,0.0,0.0,0.0,0.0,0.0,0.0,0.0,0.0,0.0,0.0,0.0,0.0,0.0,0.0,0.0,0.0,0.0,0.0,0.0,0.0,0.0,0.0,0.0,0.0,0.0,0.0,0.0,0.0,0.0,0.0,0.0,0.0,0.0,0.0,0.0,0.0,0.0,0.0,0.0,0.0,0.0,0.0,0.0,0.0,0.0,0.0,0.0,0.0,0.0,0.0,0.0,0.0,0.0,0.0,0.0,0.0,0.0,0.0,0.0,0.0,0.0,0.0,0.0,0.0,0.0,0.0,0.0,0.0,0.0,0.0,0.0,0.0,0.0,0.0,0.0,0.0,0.0,0.0,0.0,0.0,0.0,0.0,0.0,0.0,0.0,0.0,-0.9109,-0.8459,0.0,0.0,0.0,0.0,0.0,0.0,0.0,0.0,0.0,0.0,0.0,0.0,0.0,0.0,0.0,0.0,0.0,0.0,0.0,0.0,0.0,0.0,0.0,1.5668,1.58,1.58,1.5579,0.0,0.0,0.0,0.0,0.0,0.0,0.0,0.0,0.0,1.6328,1.6983,1.7572,1.8486,1.9812,1.9008,1.8388,1.7971,0.0,0.0,0.0,0.0,0.0,0.0,0.0,0.0,0.0,0.0,0.0,0.0,0.0,0.0,0.0,0.0,0.0,0.0,0.0,0.0,0.0,0.0,0.0,0.0,0.0,0.0,0.0,0.0,0.0,0.0,0.0,0.0,0.0,0.0,0.0,0.0,0.0,0.0,0.0,0.0,0.0,0.0,0.0,0.0,0.0,0.0,0.0,0.0,0.0,0.0,0.0,0.0,0.0,0.0,0.0,0.0,0.0,0.0,0.0,0.0,0.0,0.0,0.0,0.0,0.0,0.0,0.0,0.0,0.0,0.0,-1.0285,-1.0023,0.0,0.0,0.0,0.0,0.0,0.0,0.0,0.0,0.0,0.0,0.0,0.0,0.0,0.0,0.0,0.0,0.0,0.0,0.0,0.0,0.0,1.5177,1.5085,1.5222,1.5453,1.5749,1.5521,1.5544,1.593,1.5314,0.0,0.0,0.0,0.0,0.0,1.753,1.8139,1.8846,1.9485,2.0749,2.2609,2.309,2.2483,2.0941,1.9858,0.0,0.0,0.0,0.0,0.0,0.0,0.0,0.0,0.0,0.0,0.0,0.0,0.0,0.0,0.0,0.0,0.0,0.0,0.0,0.0,0.0,0.0,0.0,0.0,0.0,0.0,0.0,0.0,0.0,0.0,0.0,0.0,0.0,0.0,0.0,0.0,0.0,0.0,0.0,0.0,0.0,0.0,0.0,0.0,0.0,0.0,0.0,0.0,0.0,0.0,0.0,0.0,0.0,0.0,0.0,0.0,0.0,0.0,0.0,0.0,0.0,0.0,0.0,-0.7008,-0.7627,-0.7967,-0.8909,-1.0249,-1.1957,-1.1585,-1.2,-1.2791,-1.3062,0.0,0.0,0.0,0.0,0.0,0.0,0.0,0.0,0.0,0.0,0.0,0.0,0.0,0.0,0.0,0.0,0.0,0.0,0.0,1.5538,1.5081,1.5729,1.6074,1.5747,1.6147,1.642,1.6469,1.6882,0.0,0.0,0.0,0.0,1.7529,1.8409,1.9459,2.0628,2.3036,2.4528,2.5318,2.5892,2.6309,2.6311,2.3364,2.165,2.0871,0.0,0.0,0.0,0.0,0.0,0.0,0.0,0.0,0.0,0.0,0.0,0.0,0.0,0.0,0.0,0.0,0.0,0.0,0.0,0.0,0.0,0.0,0.0,0.0,0.0,0.0,0.0,0.0,0.0,0.0,0.0,0.0,0.0,0.0,0.0,0.0,0.0,0.0,0.0,0.0,0.0,0.8022,0.7292,0.0,0.0,0.0,0.0,0.0,0.0,0.0,0.0,0.0,0.0,0.0,0.0,0.0,-0.2549,-0.3653,-0.5817,-0.7018,-0.737,-0.8527,-0.9149,-0.9314,-0.956,-1.1287,-1.3798,-1.4005,0.0,-1.3853,-1.4881,0.0,0.0,0.0,0.0,0.0,0.0,0.0,0.0,0.0,0.0,0.0,0.0,0.0,0.0,0.0,0.0,0.0,0.0,0.0,0.0,0.0,1.6394,1.7003,1.7739,1.7866,1.7946,1.8175,1.7791,0.0,0.0,0.0,1.7918,1.8808,1.9728,2.1327,2.3683,2.584,2.7027,2.7262,2.7863,2.8281,2.8464,2.6985,2.5369,2.3782,2.3566,0.0,0.0,0.0,0.0,0.0,0.0,0.0,0.0,0.0,0.0,0.0,0.0,0.0,0.0,0.0,0.0,0.0,0.0,0.0,0.0,0.0,0.0,0.0,0.0,0.0,0.0,0.0,0.0,0.0,0.0,0.0,0.0,0.0,0.0,0.0,0.0,0.0,0.0,0.0,0.8709,0.8104,0.7729,0.7581,0.7488,0.0,0.0,0.0,0.0,0.0,0.0,0.0,0.0,0.0,-0.0947,-0.3002,-0.4622,-0.5795,-0.7567,-0.8665,-0.8935,-0.948,-0.9924,-1.0236,-1.1419,-1.308,-1.5337,-1.6603,-1.7371,-1.7853,-1.7654,-1.6993,-1.6156,0.0,0.0,0.0,0.0,-1.7383,-1.7742,0.0,0.0,0.0,0.0,0.0,0.0,0.0,0.0,0.0,0.0,0.0,0.0,1.7046,1.7662,1.8495,1.9909,1.9934,1.9989,2.0232,1.9356,1.9076,1.9682,1.8987,1.9212,2.0636,2.187,2.3815,2.6478,2.8203,2.9039,2.9065,2.9797,3.0163,3.0163,3.0163,2.8778,2.6452,2.6007,2.4831,2.3237,0.0,0.0,0.0,0.0,0.0,0.0,0.0,0.0,0.0,0.0,0.0,0.0,0.0,0.0,0.0,0.0,0.0,0.0,0.0,0.0,0.0,0.0,0.0,0.0,0.0,0.0,0.0,0.0,0.0,0.0,0.0,0.0,0.0,0.0,0.0,0.0,0.0,0.8809,0.8026,0.7705,0.7313,0.7118,0.0,0.0,0.0,0.0,0.0,0.0,0.1036,0.0214,-0.0765,-0.1667,-0.4341,-0.6089,-0.7045,-0.8852,-0.993,-1.0222,-1.0263,-1.0473,-1.0833,-1.2414,-1.4174,-1.64,-1.7973,-1.9676,-2.1372,-2.0026,-1.8998,-1.8374,-1.8929,-1.8581,-1.7982,-1.881,-1.9052,-1.9065,0.0,0.0,0.0,0.0,0.0,0.0,0.0,0.0,0.0,0.0,0.0,1.7667,1.8317,1.9901,2.1116,2.1701,2.2298,2.26,2.266,2.2262,2.2287,2.2735,2.2287,2.2347,2.3009,2.5277,2.7053,2.8255,3.0006,3.0843,3.0869,3.1993,3.2515,3.2515,3.2515,3.0921,2.8255,2.8229,2.721,2.5589,2.5066,0.0,0.0,0.0,0.0,0.0,0.0,0.0,0.0,0.0,0.0,0.0,0.0,0.0,0.0,0.0,0.0,0.0,0.0,0.0,0.0,0.0,0.0,0.0,0.0,0.0,0.0,0.0,0.0,0.0,0.0,0.0,0.0,0.0,0.0,0.0,0.0,0.0,0.0,0.6781,0.6189,0.0,0.0,0.0,0.0,0.4428,0.2602,0.1094,-0.0111,-0.0227,-0.0692,-0.1877,-0.4522,-0.596,-0.6135,-0.8896,-1.0392,-1.069,-1.0833,-1.0989,-1.1138,-1.1551,-1.3684,-1.7031,-1.7444,-1.9632,-2.2699,-2.1496,-2.1002,-2.085,-2.0681,-2.0561,-2.0561,-2.0561,-2.0561,-2.0601,0.0,0.0,0.0,1.5153,1.4834,1.4622,1.4596,1.4546,1.4868,1.5774,1.7224,1.8609,1.9756,2.2011,2.3614,2.4245,2.5203,2.5602,2.5154,2.4034,2.3508,2.3706,2.2593,2.296,2.5105,2.7626,2.9274,3.0059,3.1418,3.228,3.2672,3.3091,3.3456,3.3796,3.3796,3.3012,3.1653,3.0529,2.9274,2.7994,2.7392,2.6138,0.0,0.0,0.0,0.0,0.0,0.0,0.0,0.0,0.0,0.0,0.0,0.0,0.0,0.0,0.0,0.0,0.0,0.0,0.0,0.0,0.0,0.0,0.0,0.0,0.0,0.0,0.0,0.0,0.0,0.0,0.0,0.0,0.0,0.0,0.0,0.0,0.0,0.7039,0.6471,0.0,0.6358,0.455,0.3184,0.2701,0.057,-0.0809,-0.1293,-0.1325,-0.1592,-0.197,-0.4826,-0.6356,-0.6423,-0.9383,-1.09,-1.1009,-1.1158,-1.1447,-1.1875,-1.4364,-1.65,-1.8133,-2.0568,-2.2345,-2.342,-2.2993,-2.2592,-2.2231,-2.2124,-2.2084,-2.2084,-2.2084,-2.2084,-2.2098,0.0,1.5558,0.0,1.488,1.4466,1.4148,1.4291,1.4573,1.5205,1.6398,1.832,2.0076,2.1684,2.4051,2.5942,2.6773,2.7618,2.7738,2.6824,2.5533,2.4921,2.5205,2.4564,2.5347,2.7802,2.9494,3.0895,3.1862,3.2803,3.3561,3.4162,3.4345,3.4633,3.4972,3.4972,3.4763,3.4345,3.3012,3.1548,3.0085,2.951,2.836,2.6857,0.0,0.0,0.0,0.0,0.0,0.0,0.0,0.0,0.0,0.0,0.0,0.0,0.0,0.0,0.0,0.0,0.0,0.0,0.0,0.0,0.0,0.0,0.0,0.0,0.0,0.0,0.0,0.0,0.0,0.0,0.0,0.0,0.0,0.0,0.8391,0.7706,0.7032,0.6408,0.6144,0.6247,0.3996,0.2312,0.1775,-0.0479,-0.1944,-0.1974,-0.2033,-0.2064,-0.2064,-0.5072,-0.666,-0.666,-0.9769,-1.1314,-1.1321,-1.166,-1.1956,-1.2489,-1.5189,-1.7243,-1.8759,-2.1352,-2.3233,-2.4222,-2.4315,-2.4115,-2.3728,-2.3434,-2.3313,-2.3327,-2.342,-2.346,-2.346,1.5289,1.5108,1.4926,1.4466,1.3973,1.3786,1.4262,1.5111,1.6043,1.6864,1.9607,2.2178,2.3838,2.6013,2.7841,2.9125,2.9327,2.8774,2.7656,2.6764,2.6614,2.7409,2.8413,2.9632,3.1026,3.1078,3.1914,3.3613,3.4162,3.4763,3.5365,3.5887,3.6149,3.6149,3.6149,3.6149,3.6096,3.5574,3.4031,3.1914,3.1313,3.0372,2.9229,0.0,0.0,0.0,0.0,0.0,0.0,0.0,0.0,0.0,0.0,0.0,0.0,0.0,0.0,0.0,0.0,0.0,0.0,0.0,0.0,0.0,0.0,0.0,0.0,0.0,0.0,0.0,0.0,0.0,0.0,0.0,0.0,0.0,0.9608,0.9297,0.8315,0.6547,0.5859,0.5557,0.5651,0.3346,0.1831,0.1888,-0.0505,-0.2035,-0.2067,-0.2124,-0.2157,-0.2291,-0.5106,-0.6713,-0.6852,-1.0042,-1.1626,-1.164,-1.2374,-1.2671,-1.282,-1.3565,-1.5869,-1.9033,-1.9714,-2.1928,-2.5117,-2.5398,-2.5518,-2.5424,-2.4583,-2.4249,-2.4275,-2.4556,-2.4663,-2.4663,1.5668,1.504,1.4558,1.4419,1.4227,1.4283,1.4738,1.5587,1.6754,1.823,2.066,2.284,2.4283,2.659,2.821,2.8525,2.895,2.8696,2.7669,2.7263,2.7353,2.8047,2.8748,2.9945,3.1573,3.2311,3.3199,3.4162,3.5155,3.594,3.6541,3.6698,3.6985,3.7403,3.7403,3.7168,3.675,3.6593,3.5913,3.4816,3.343,3.1837,3.0292,0.0,0.0,0.0,0.0,0.0,0.0,0.0,0.0,0.0,0.0,0.0,0.0,0.0,0.0,0.0,0.0,0.0,0.0,0.0,0.0,0.0,0.0,0.0,0.0,0.0,0.0,0.0,0.0,0.0,0.0,0.0,1.188,1.0655,0.846,0.7642,0.7049,0.6071,0.5852,0.5863,0.6019,0.3658,0.2039,0.1948,-0.0521,-0.2108,-0.2159,-0.2178,-0.2745,-0.3875,-0.5764,-0.7402,-0.8765,-1.08,-1.183,-1.1945,-1.2578,-1.3036,-1.361,-1.5395,-1.7539,-2.021,-2.1517,-2.3285,-2.5398,-2.5478,-2.5518,-2.5491,-2.5251,-2.5157,-2.5157,-2.5237,-2.5277,-2.5277,1.5579,1.5062,1.4651,1.4419,1.4333,1.4469,1.4925,1.5939,1.7172,1.8736,2.1156,2.327,2.4637,2.6675,2.8077,2.8309,2.8494,2.8124,2.7023,2.7312,2.773,2.8279,2.9537,3.0934,3.2422,3.3392,3.434,3.5495,3.6149,3.6597,3.6896,3.6896,3.6893,3.6922,3.6922,3.6743,3.6412,3.6412,3.608,3.5378,3.4437,3.3242,3.17,3.0229,2.8787,2.7333,2.6294,2.5371,2.459,2.3856,0.0,0.0,0.0,0.0,0.0,0.0,0.0,0.0,0.0,0.0,0.0,0.0,0.0,0.0,0.0,0.0,0.0,0.0,0.0,0.0,0.0,0.0,0.0,0.0,1.2065,1.0729,0.8276,0.763,0.7031,0.5989,0.5974,0.6084,0.6223,0.3766,0.2097,0.2005,-0.0536,-0.2168,-0.2217,-0.2232,-0.2673,-0.3556,-0.5901,-0.7575,-0.8558,-1.0903,-1.2251,-1.2553,-1.3159,-1.3627,-1.4266,-1.5763,-1.7889,-2.0511,-2.1547,-2.3487,-2.5705,-2.5825,-2.5879,-2.5865,0.0,0.0,0.0,0.0,-2.5879,-2.5892,1.5289,1.5062,1.488,1.4373,1.4327,1.4531,1.4945,1.6208,1.7525,1.8659,2.127,2.3532,2.4874,2.6505,2.7702,2.8258,2.798,2.7279,2.6318,2.7205,2.8004,2.8574,3.0663,3.2339,3.3547,3.4211,3.5271,3.7011,3.6974,3.6922,3.6904,3.6904,3.6647,3.6031,3.6031,3.6031,3.5936,3.5936,3.5568,3.4936,3.4841,3.4206,3.3169,3.1303,2.9996,2.8952,2.7833,2.7185,2.6657,2.5601,0.0,0.0,0.0,0.0,0.0,0.0,0.0,0.0,0.0,0.0,0.0,0.0,0.0,0.0,0.0,0.0,0.0,0.0,0.0,0.0,0.0,0.0,0.0,0.0,1.1621,1.0654,0.8828,0.8492,0.785,0.6189,0.6149,0.6231,0.6325,0.3696,0.2004,0.2053,-0.055,-0.2218,-0.2249,-0.2279,0.0,0.0,0.0,-0.7315,-0.7557,-1.0708,-1.2692,-1.3155,-1.3774,-1.4411,-1.4898,-1.5385,-1.7277,-2.0284,-2.0802,-2.28,-2.5869,-2.6279,-2.6413,-2.6413,-2.6119,-2.6026,-2.6092,-2.6346,-2.6453,-2.652,1.5289,1.4789,1.4373,1.3858,1.4354,1.4904,1.4987,1.6477,1.7884,1.8826,2.1476,2.3623,2.4613,2.6578,2.7804,2.7621,2.7415,2.7244,2.6999,2.8199,2.9494,3.0778,3.1744,3.3018,3.4847,3.4754,3.5451,3.7011,3.6816,3.7304,3.834,3.834,3.8506,3.8877,3.8877,3.8466,3.7761,3.7761,3.7319,3.6628,3.5905,3.4509,3.2875,3.196,3.1199,3.0489,2.9389,2.8999,2.8746,2.7736,2.7116,2.668,2.6175,2.4569,0.0,0.0,0.0,0.0,0.0,0.0,0.0,0.0,0.0,0.0,0.0,0.0,0.0,0.0,0.0,0.0,0.0,0.0,0.0,1.2813,1.2199,1.1096,0.9488,0.9154,0.8408,0.6519,0.628,0.6325,0.6419,0.3785,0.2045,0.2055,-0.0555,-0.2249,-0.2281,-0.2309,-0.292,-0.4137,-0.6127,-0.7862,-0.933,-1.1766,-1.3162,-1.3319,-1.4268,0.0,-1.5239,-1.5562,-1.6921,-1.8989,-2.0481,-2.2282,-2.438,-2.5727,-2.6533,-2.6707,-2.6413,-2.6453,-2.6653,-2.672,-2.6894,-2.7108,1.5534,1.5062,1.4512,1.3716,1.4386,1.5007,1.5007,1.6353,1.7676,1.8467,2.0504,2.2273,2.3341,2.4699,2.5733,2.5939,2.6377,2.6588,2.6528,2.8124,2.9582,3.0621,3.1574,3.3079,3.5156,3.5259,3.6024,3.7456,3.7635,3.7646,3.7546,3.7825,3.7713,3.7194,3.7194,3.6993,3.6589,3.6589,3.6285,3.59,3.5489,3.4614,3.3301,3.2884,3.2086,3.1272,3.0537,3.0262,3.0101,2.9091,2.8563,2.8264,2.7736,2.5876,2.3846,0.0,0.0,0.0,0.0,0.0,0.0,0.0,0.0,0.0,0.0,0.0,0.0,0.0,0.0,1.3937,1.3126,0.0,1.2721,1.2534,1.1864,1.0868,0.954,0.8972,0.8091,0.6651,0.6386,0.6152,0.5427,0.3414,0.1792,0.1119,-0.0993,-0.2303,-0.2333,-0.2363,-0.3136,-0.4834,-0.6568,-0.8342,-1.0003,-1.2331,-1.3598,-1.3916,-1.4639,-1.5247,-1.5583,-1.5747,-1.6975,-1.8787,-2.0579,-2.2448,-2.4365,-2.617,-2.6921,-2.7028,-2.6881,-2.6921,-2.7041,-2.7041,-2.7134,-2.7281,1.6158,1.5751,1.5082,1.4053,1.4499,1.5028,1.5111,1.6229,1.7262,1.8004,1.9506,2.0842,2.1865,2.2833,2.3753,2.4605,2.5716,2.6229,2.5884,2.8042,2.9447,2.9809,3.1496,3.321,3.5035,3.5603,3.6555,3.79,3.8143,3.7693,3.6751,3.7295,3.6909,3.5608,3.5608,3.548,3.5271,3.5271,3.5189,3.5083,3.5083,3.4716,3.4119,3.3729,3.2925,3.1961,3.1479,3.1295,3.1157,3.0124,2.9711,2.955,2.8824,2.6802,2.4823,2.4563,2.2871,0.0,0.0,0.0,0.0,0.0,0.0,0.0,0.0,1.7753,1.7211,1.5803,1.5406,1.4713,1.2924,1.2822,1.2715,1.2209,1.1479,1.063,0.9608,0.8668,0.7679,0.6614,0.648,0.6107,0.4815,0.3174,0.1675,0.043,-0.1307,-0.2354,-0.2386,-0.2416,-0.3055,-0.4478,-0.6711,-0.8521,-0.9744,-1.2589,-1.4179,-1.4482,-1.5194,-1.5623,-1.6097,-1.6137,-1.705,-1.8514,-2.0817,-2.307,-2.5096,-2.6764,-2.7295,-2.7348,-2.7348,-2.7388,-2.7428,-2.7375,-2.7388,-2.7468,1.7363,1.6808,1.6083,1.5023,1.4961,1.5132,1.5546,1.6436,1.7202,1.7678,1.938,2.0511,2.0586,2.286,2.458,2.5092,2.6586,2.7056,2.5946,2.8691,3.0205,2.9809,3.239,3.4239,3.506,3.5425,3.6377,3.79,3.7102,3.712,3.8086,3.8641,3.8766,3.8307,3.8307,3.7887,3.7252,3.7252,3.6825,3.6117,3.6117,3.5543,3.4693,3.4647,3.4004,3.304,3.2512,3.2328,3.2167,3.118,3.0537,2.9851,2.8521,2.6986,2.5488,2.4604,2.3556,2.2501,2.2226,2.1543,2.059,1.9272,1.9026,1.87,0.0,1.6937,1.5922,1.4999,1.4251,1.3372,1.2231,1.2217,1.2406,1.2475,1.163,1.0664,0.9738,0.8795,0.7791,0.671,0.6574,0.6611,0.6422,0.381,0.2145,0.1886,-0.0735,-0.2387,-0.2417,-0.2447,-0.2632,-0.282,-0.6322,-0.8304,-0.8084,-1.2728,-1.4777,-1.449,-1.5601,-1.6251,-1.6276,-1.6446,-1.6697,-1.7053,-2.0396,-2.3738,-2.6928,-2.7268,-2.7415,-2.7655,-2.7655,-2.7816,-2.8016,-2.7749,-2.7816,-2.8043,1.7966,1.7485,1.7069,1.6842,1.6025,1.5571,1.6084,1.6455,1.6808,1.7203,1.7964,1.8764,1.9586,2.1575,2.2994,2.3211,2.5408,2.6394,2.553,2.8433,3.008,2.9809,3.1831,3.3464,3.4379,3.4804,3.5536,3.6546,3.6403,3.6554,3.6868,3.7531,3.7653,3.7311,3.7311,3.712,3.6796,3.6796,3.658,3.6254,3.5956,3.5428,3.4762,3.444,3.3706,3.2833,3.2925,3.2741,0.0,3.1685,3.1111,3.0399,2.8848,2.743,2.6105,2.5342,2.4221,2.3021,2.1799,2.123,2.0564,1.8906,1.8654,1.8741,1.8655,1.8407,1.7715,1.5957,1.5377,1.4651,1.2833,1.2564,1.267,1.284,1.1329,1.0141,0.9747,0.8324,0.7172,0.6869,0.679,0.6532,0.5524,0.3439,0.1742,0.0882,-0.1201,-0.2436,-0.245,-0.2496,-0.3,-0.3963,-0.6763,-0.863,-0.981,-1.3302,-1.5097,-1.527,-1.6013,-1.6462,-1.647,-1.6544,-1.7315,-1.8434,-2.0075,-2.284,-2.6234,-2.6234,-2.6826,-2.7963,-2.7963,-2.803,-2.8123,-2.8003,-2.803,-2.8136,1.8631,1.824,1.8065,1.8479,1.7224,1.6242,1.6656,1.6539,1.6539,1.6915,1.6977,1.7554,1.892,2.0265,2.1259,2.1756,2.3996,2.5397,2.5444,2.78,2.9374,2.9571,3.1062,3.2342,3.3186,3.3893,3.4621,3.535,3.5697,3.584,3.5765,3.6288,3.6344,3.5864,3.5864,3.5864,3.5864,3.5864,3.5864,3.5841,3.5474,3.4946,3.4349,3.3958,3.3178,3.2351,3.2879,3.2718,3.2213,3.1731,3.1107,3.0368,2.8936,2.7537,2.6425,2.582,2.4857,2.3683,2.191,2.145,2.0969,1.9108,1.8847,1.9078,1.9506,1.9773,1.9266,1.6808,1.6423,1.5762,1.3392,1.2905,1.2946,1.3076,1.1108,0.9734,0.9838,0.8001,0.6721,0.6872,0.697,0.6425,0.4643,0.3072,0.1626,0.015,-0.1531,-0.2485,-0.2493,-0.2542,-0.3376,-0.5313,-0.7355,-0.9414,-1.1464,-1.3999,-1.5493,-1.5716,-1.6398,-1.6657,-1.6657,-1.6706,-1.782,-1.9666,-1.9807,-2.1943,-2.5373,-2.5373,-2.6588,-2.8136,-2.8136,-2.8136,-2.8136,-2.8136,-2.8136,-2.8136,0.0,1.9294,1.9109,1.9683,1.8317,1.7169,1.7169,1.6729,1.6539,1.6915,1.6977,1.7554,1.892,1.9127,1.9872,2.1652,2.2852,2.4198,2.5973,2.7048,2.8092,2.8916,3.0524,3.1407,3.152,3.2456,3.3618,3.4785,3.4679,3.4817,3.5241,3.5741,3.5592,3.4854,3.4854,3.4854,3.4854,3.4854,3.4854,3.4854,3.4831,3.4234,3.3315,3.3315,3.2673,3.1846,3.2328,3.219,3.1708,3.1203,3.0341,2.9328,2.8174,2.7178,2.6168,2.561,2.543,2.5027,2.3376,2.2889,2.2352,2.072,2.0219,2.0187,2.0201,2.0214,1.9427,1.6937,1.6669,1.5984,1.3578,1.3084,1.3084,1.3092,1.1198,0.9844,0.985,0.8129,0.688,0.6974,0.7068,0.6407,0.4826,0.3319,0.1668,-0.0,-0.1559,-0.2526,-0.2556,-0.2585,-0.3589,-0.5927,-0.8061,-1.0303,-1.2228,-1.4944,-1.6221,-1.5887,-1.6583,-1.6844,-1.6852,-1.7015,-1.8139,-1.9864,-1.9873,-2.1943,-2.5373,-2.5373,-2.6588,-2.8136,-2.8136,-2.8136,-2.8136,-2.8136,-2.8136,-2.8136,0.0,0.0,1.9604,1.9759,1.8661,1.782,1.782,1.7011,1.6436,1.6581,1.6791,0.0,0.0,0.0,0.0,0.0,2.1944,2.3178,2.4115,2.5961,2.729,2.7813,2.9523,3.0398,3.0155,3.1305,3.1988,3.2253,3.2581,3.2998,3.3389,3.3923,3.424,3.428,3.4647,3.4808,3.4785,3.4418,3.428,3.4211,3.3522,3.3063,3.2673,3.203,3.1341,3.0767,0.0,3.1111,3.1249,3.1065,3.0117,2.882,2.8091,2.71,2.6265,2.586,2.5595,2.4965,2.3612,2.2757,2.1994,2.0614,2.0388,2.0535,2.0535,2.0681,2.0328,1.8498,1.8337,1.7937,1.6459,1.5175,1.4593,1.4738,1.1939,0.9881,0.9823,0.8237,0.6978,0.7068,0.7211,0.6243,0.3517,0.2753,0.1691,-0.0,-0.1578,-0.2557,-0.2586,-0.2616,-0.3129,-0.4131,-0.7357,-0.9627,-1.0884,-1.4479,-1.6355,-1.6419,-1.6768,-1.7023,-1.7023,-1.7088,-1.7455,-1.7972,-1.7972,-1.9525,-2.176,-2.2966,-2.4691,-2.6418,-2.7799,-2.8136,-2.8136,-2.8136,-2.8136,-2.8136,0.0,0.0,0.0,1.9552,1.8738,0.0,0.0,0.0,0.0,0.0,0.0,0.0,0.0,0.0,0.0,0.0,0.0,2.2168,2.3167,2.4804,2.6039,2.6851,2.8128,2.8664,2.8494,2.9412,3.0007,3.017,3.0582,3.1201,3.1961,3.2305,3.2741,3.3224,3.3568,3.3729,3.3683,3.3338,3.3499,3.3889,3.2512,3.2167,3.2328,3.0973,3.0147,0.0,2.9665,2.9894,3.0239,3.0606,2.9546,2.8177,2.8022,2.7262,2.6446,2.6402,2.6188,2.5587,2.3989,2.3222,2.2436,2.0876,2.0695,2.0855,2.0962,2.1056,2.0716,1.9291,1.9124,1.897,1.7806,1.6305,1.5347,1.5413,1.271,1.0429,0.9962,0.8637,0.7521,0.7207,0.735,0.6052,0.2805,0.2504,0.1414,-0.0947,-0.2086,-0.2598,-0.2617,-0.2813,-0.3334,-0.4347,-0.7612,-1.0073,-1.135,-1.4643,-1.6538,-1.695,-1.7055,-1.7112,-1.7112,-1.7112,-1.7112,-1.7112,-1.7112,-1.8147,-2.0047,-2.1078,-2.3137,-2.5556,-2.6758,-2.7617,-2.8136,-2.8136,-2.8136,-2.8136,0.0,0.0,0.0,0.0,0.0,0.0,0.0,0.0,0.0,0.0,0.0,0.0,0.0,0.0,0.0,0.0,0.0,0.0,2.3143,2.3578,2.4393,2.5916,2.6329,2.6518,2.6518,2.7086,2.7833,2.8656,2.8791,2.9466,3.0812,3.0928,3.118,3.1639,3.1685,3.1685,3.1685,3.1639,3.2443,3.3591,3.1662,3.1456,3.2076,3.0147,2.9114,2.8654,2.8654,2.8654,2.8815,2.9736,2.8817,2.7311,2.7979,2.7474,2.6683,2.7068,2.7215,2.6744,2.4662,2.419,2.381,2.1699,2.1149,2.1203,2.1496,2.1309,2.0703,1.9407,1.9217,1.8995,1.7577,1.6285,1.5422,1.5367,1.3368,1.1369,1.01,0.9334,0.8537,0.7523,0.7472,0.6145,0.2868,0.2582,0.1133,-0.2405,-0.2616,-0.2647,-0.2649,-0.3181,-0.4227,-0.5969,-0.8862,-1.118,-1.3159,-1.5632,-1.695,-1.7112,-1.7112,-1.7112,-1.7112,-1.7112,-1.7112,-1.7112,-1.7112,-1.8147,-1.97,-1.9873,-2.1932,-2.5203,-2.5373,-2.6588,-2.8136,-2.8136,-2.8136,-2.8136,0.0,0.0,0.0,0.0,0.0,0.0,0.0,0.0,0.0,0.0,0.0,0.0,0.0,0.0,0.0,0.0,0.0,0.0,2.1587,2.2445,2.3281,2.4313,2.5104,2.5535,2.5535,2.6343,2.691,2.7129,2.7942,2.8431,2.8878,2.9532,2.9963,3.0101,3.0445,3.0606,3.0583,3.0216,3.0285,3.056,2.9665,2.9435,2.9573,2.87,2.8287,2.8172,2.8172,2.8172,2.8225,2.85,2.7841,2.6861,2.6302,2.6542,2.705,2.7141,2.69,2.6351,2.5036,2.4163,2.3384,2.2059,2.1603,2.1456,2.1537,2.1149,2.0664,2.0276,2.0159,1.9949,2.0106,1.7999,1.6343,1.6744,1.3215,1.0383,1.01,0.874,0.7642,0.7382,0.7529,0.636,0.2871,0.2601,0.115,-0.2296,-0.2638,-0.2657,-0.2679,-0.3218,-0.3752,-0.4613,-0.8477,-1.1009,-1.1766,-1.5213,-1.7071,-1.7112,-1.7112,-1.7112,-1.7112,-1.7112,-1.7112,-1.7112,-1.7112,-1.7455,-1.7972,-1.9351,-2.1251,-2.3481,-2.4861,-2.6588,-2.8136,-2.8136,-2.8136,-2.8136,0.0,0.0,0.0,0.0,0.0,0.0,0.0,0.0,0.0,0.0,0.0,0.0,0.0,0.0,0.0,0.0,0.0,0.0,0.0,2.1356,2.2197,2.2913,2.3636,2.4079,2.4292,2.5247,2.5782,2.5972,2.6963,2.7662,2.806,2.8614,2.8953,2.916,2.9435,2.955,2.9527,2.9274,2.955,0.0,0.0,2.8769,2.9206,2.7828,2.7461,2.7621,2.7392,2.7211,2.6998,2.72,2.714,2.6749,2.5778,2.6206,2.7215,2.738,2.7062,2.6422,2.5429,2.4401,2.3465,2.2495,2.1857,2.159,2.171,2.1189,2.0681,2.0681,2.0441,2.0334,2.0668,1.8506,1.6733,1.712,1.3576,1.0709,1.0263,0.8999,0.8017,0.7444,0.7648,0.6307,0.2735,0.2627,0.1165,-0.2333,-0.2667,-0.268,-0.305,-0.3582,-0.3952,-0.4162,-0.8569,-1.1969,-1.3786,-1.5996,-1.7112,-1.7112,-1.7112,-1.7112,-1.7112,-1.7112,-1.7112,-1.7112,-1.7112,-1.7112,-1.7112,-1.8322,-2.0211,-2.2622,-2.3824,-2.5896,-2.8136,-2.8136,-2.8136,-2.8136,0.0,0.0,0.0,0.0,0.0,0.0,0.0,0.0,0.0,0.0,1.7947,1.7698,1.7823,1.8154,0.0,0.0,0.0,0.0,0.0,0.0,2.1135,2.1611,2.2143,2.26,2.3078,2.3921,2.4583,2.5076,2.588,2.6761,2.7698,2.7782,2.8035,2.8494,2.8494,2.8494,2.8494,2.8494,2.9274,3.0354,2.8517,2.8563,2.9481,0.0,2.6634,2.6978,2.6611,2.6143,2.5805,2.6187,2.6463,2.6564,2.5804,2.6334,2.7343,2.7801,2.7505,2.6827,2.5862,2.4796,2.381,2.2619,2.2004,2.1657,2.183,2.1189,2.0548,2.0508,2.0241,2.0027,2.0107,1.8132,1.6551,1.6508,1.3722,1.1275,1.0268,0.935,0.8482,0.7652,0.775,0.6404,0.2762,0.2652,0.1175,-0.2524,-0.2865,-0.3049,-0.3421,-0.394,-0.4498,-0.5301,-0.9167,-1.3254,-1.7112,-1.7112,-1.7112,-1.7112,-1.7112,-1.7112,-1.7112,-1.7112,-1.7112,-1.7112,-1.7112,-1.7112,-1.7112,-1.7112,-1.9177,-2.2277,-2.2449,-2.4691,-2.7799,-2.8136,-2.8136,-2.815,0.0,0.0,0.0,0.0,0.0,0.0,0.0,0.0,0.0,0.0,1.904,1.7864,0.0,0.0,0.0,0.0,0.0,0.0,0.0,0.0,0.0,2.0638,2.1335,2.2019,2.256,2.3315,2.4002,2.4494,2.5036,2.5564,2.6161,2.6565,2.7001,2.7483,2.7483,2.7483,2.7483,2.7483,2.7644,2.7828,2.7047,2.6887,2.7024,2.6175,0.0,0.0,2.6358,2.6143,2.5805,2.6187,2.5996,2.5785,2.6277,2.6976,2.7801,2.8553,2.8126,2.7266,2.652,2.5312,2.407,2.2673,2.2164,2.179,2.1363,2.0588,1.988,1.9639,1.9172,1.8945,1.9426,1.7434,1.5491,1.5276,1.2351,0.9733,0.9007,0.8155,0.7621,0.7403,0.7656,0.6347,0.2761,0.2652,0.1007,-0.3029,-0.3396,-0.3416,-0.3423,-0.3968,-0.594,-0.9969,-1.1041,-1.3173,-1.7112,-1.7112,-1.7112,-1.7112,-1.7112,-1.7112,-1.7112,-1.7112,-1.7112,-1.7112,-1.7112,-1.7112,-1.7112,-1.7112,-1.8322,-2.0558,-2.1932,-2.4006,-2.6066,-2.7617,-2.8136,-2.8345,0.0,0.0,0.0,0.0,0.0,0.0,0.0,2.2495,2.2438,2.2884,2.113,1.9788,1.9484,1.923,1.9256,0.0,0.0,0.0,0.0,0.0,0.0,2.0338,0.0,0.0,2.1948,2.3032,2.3762,2.4006,0.0,2.5519,2.5769,2.5982,2.6198,2.645,2.645,2.645,2.645,2.645,2.645,2.6427,2.6175,2.6083,2.6014,2.5509,0.0,0.0,2.6588,2.6701,2.6478,2.6548,2.6467,2.6201,2.6532,2.7123,2.793,2.8737,2.7922,2.6596,2.647,2.5041,2.3416,2.2593,2.2084,2.1643,2.1203,2.0307,1.9573,1.9586,1.9118,1.8798,1.9078,1.7232,1.5519,1.5452,1.2157,0.9472,0.9445,0.8103,0.7239,0.7374,0.6799,0.5322,0.2597,0.1483,-0.0167,-0.3223,-0.3752,-0.3944,-0.414,-0.473,-0.6911,-1.1245,-1.1427,-1.3198,-1.7112,-1.7112,-1.7112,-1.7112,-1.7112,-1.7112,-1.7112,-1.7112,-1.7112,-1.7112,-1.7112,-1.7112,-1.7112,-1.7112,-1.8147,-2.0047,-2.1932,-2.3824,-2.5568,-2.763,-2.8547,-2.8757,0.0,0.0,0.0,0.0,0.0,0.0,0.0,2.3977,2.3968,2.4401,2.328,2.2103,2.1203,2.0505,2.0149,0.0,0.0,0.0,0.0,0.0,0.0,0.0,0.0,0.0,2.1454,0.0,0.0,2.3582,2.4785,0.0,0.0,0.0,0.0,0.0,2.5716,2.5716,2.5716,2.5716,2.5716,0.0,0.0,2.5532,2.5486,0.0,0.0,0.0,0.0,2.6937,2.6729,2.6744,2.6585,2.6481,2.6621,2.7123,2.793,2.8382,2.7238,2.5817,2.5981,2.439,2.2619,2.2378,2.1884,2.1349,2.0922,2.0067,1.9359,1.9332,1.8958,1.8637,1.8637,1.6842,1.5491,1.5494,1.2339,0.9747,0.9865,0.8459,0.7438,0.7337,0.6121,0.4488,0.2594,0.0493,-0.1506,-0.3416,-0.4121,-0.4666,-0.4884,-0.5329,-0.7342,-1.0717,-1.125,-1.3022,-1.6401,-1.6928,-1.7112,-1.7112,-1.7112,-1.7112,-1.7112,-1.7112,-1.7112,-1.7112,-1.7112,-1.7112,-1.7112,-1.7112,-1.8147,-2.0047,-2.1932,-2.3858,-2.5836,-2.7984,-2.8974,-2.9412,0.0,0.0,0.0,0.0,0.0,0.0,0.0,2.5549,2.5861,2.5684,2.4755,2.3971,2.3537,2.1947,2.0764,0.0,0.0,0.0,0.0,0.0,0.0,0.0,0.0,0.0,0.0,0.0,0.0,2.3441,2.4062,0.0,0.0,0.0,0.0,0.0,0.0,2.5716,2.5716,2.5716,0.0,0.0,0.0,0.0,0.0,0.0,0.0,0.0,0.0,2.5986,2.5357,2.6105,2.5781,2.5135,2.6224,2.7123,2.7682,2.7277,2.6438,2.5391,2.4889,2.3426,2.2058,2.2031,2.159,2.0935,2.0107,1.9639,1.9065,1.8009,1.7742,1.7702,1.7702,1.5873,1.4334,1.4319,1.2174,1.0117,0.8628,0.8374,0.8131,0.7394,0.5936,0.4328,0.2594,0.0497,-0.1686,-0.3928,-0.5051,-0.5462,-0.4941,-0.5528,-0.663,-0.8765,-1.054,-1.2491,-1.4618,-1.6217,-1.7112,-1.7112,-1.7112,-1.7112,-1.7112,-1.7112,-1.7112,-1.7112,-1.7112,-1.7112,-1.7112,-1.7112,-1.8147,-2.0047,-2.1932,-2.396,-2.6081,-2.8393,-2.9453,-2.99,0.0,0.0,0.0,0.0,0.0,0.0,2.5128,2.5846,2.6345,2.6501,2.5627,2.4826,2.4564,2.3356,2.2248,2.141,0.0,0.0,0.0,0.0,0.0,0.0,0.0,0.0,0.0,0.0,2.2937,2.3372,2.3948,0.0,0.0,0.0,0.0,0.0,0.0,2.4797,2.4797,2.4797,0.0,0.0,0.0,0.0,0.0,0.0,0.0,0.0,0.0,0.0,2.6019,2.6227,2.5833,2.5396,2.6033,2.6591,2.7082,2.7019,2.6133,2.5031,2.4446,2.3112,2.1897,2.155,2.1015,2.0441,1.992,1.9305,1.8758,1.845,1.8103,1.7688,1.7085,1.5528,1.4189,1.3775,1.1872,1.0438,1.0009,0.9027,0.8292,0.8178,0.5211,0.2998,0.243,-0.0659,-0.3363,-0.4824,-0.5459,-0.5706,-0.535,-0.5549,-0.663,-0.8587,-1.0362,-1.2314,-1.4265,-1.6217,-1.7112,-1.7112,-1.7112,-1.7112,-1.7112,-1.7112,-1.7112,-1.7112,-1.7112,-1.7112,-1.7112,-1.7112,-1.7455,-1.8506,-2.1741,-2.3413,-2.4592,-2.8443,-3.0065,-3.0552,0.0,0.0,0.0,0.0,0.0,2.4777,2.528,2.6039,2.6674,2.7069,2.6045,2.5276,2.53,2.4112,2.3033,2.2319,2.225,0.0,0.0,0.0,0.0,0.0,0.0,0.0,0.0,0.0,2.2937,2.3372,2.4085,2.4407,0.0,0.0,2.4636,2.4636,0.0,0.0,0.0,0.0,0.0,0.0,0.0,0.0,0.0,0.0,0.0,0.0,0.0,0.0,0.0,0.0,0.0,2.5099,2.5414,2.5876,2.6445,2.6498,2.5621,2.4499,2.3851,2.2538,2.1363,2.0949,2.0468,2.0,1.9626,1.8998,1.8504,1.8517,1.779,1.7073,1.6381,1.49,1.3628,1.3476,1.1987,1.0958,1.1045,0.9739,0.8786,0.8695,0.5316,0.282,0.2265,-0.1657,-0.4585,-0.5575,-0.5681,-0.5741,-0.5741,-0.5741,-0.6276,-0.7699,-1.0184,-1.2137,-1.3375,-1.5866,-1.7112,-1.7112,-1.7112,-1.7112,-1.7112,-1.7112,-1.7112,-1.7112,-1.7112,-1.7112,-1.7112,-1.7112,-1.7488,-1.8242,-2.1689,-2.3589,-2.4635,-2.8934,-3.0747,-3.1211,0.0,0.0,0.0,0.0,0.0,0.0,2.5495,2.6257,2.687,2.7378,2.6183,2.5487,2.5861,2.4073,2.2815,2.2731,2.2662,0.0,0.0,0.0,0.0,0.0,0.0,0.0,0.0,0.0,2.2937,2.3372,2.443,2.4912,2.4912,2.5463,2.5693,2.567,0.0,0.0,0.0,0.0,0.0,0.0,0.0,0.0,0.0,0.0,0.0,0.0,0.0,0.0,0.0,0.0,0.0,0.0,0.0,2.4996,2.59,2.5345,2.468,2.3732,2.2763,2.1432,2.0254,2.0241,2.0027,1.9653,1.9065,1.8704,1.8317,1.7716,1.6403,1.5463,1.5371,1.3667,1.2413,1.3142,1.2518,1.1838,1.1176,1.0419,0.9625,0.8841,0.643,0.3952,0.1941,-0.2368,-0.5063,-0.5646,-0.5706,-0.5741,-0.5741,-0.5741,-0.5741,-0.5741,-0.9473,-1.1427,-1.1427,-1.5154,-1.7112,-1.7112,-1.7112,-1.7112,-1.7112,-1.7112,-1.7112,-1.7112,-1.7112,-1.7112,-1.7112,-1.7112,-1.8259,-2.0185,-2.2277,-2.4504,-2.6746,-2.9785,-3.1063,-3.1493,0.0,0.0,0.0,0.0,0.0,0.0,0.0,2.572,2.6231,2.6674,2.613,2.55,2.5159,2.435,2.3351,2.2249,2.2157,0.0,0.0,0.0,0.0,0.0,0.0,0.0,0.0,2.3282,2.3948,2.4453,2.5119,2.5463,2.5463,2.5624,2.5716,2.5716,2.5532,2.5256,0.0,0.0,0.0,0.0,0.0,0.0,2.4981,0.0,0.0,0.0,0.0,0.0,0.0,0.0,0.0,0.0,0.0,0.0,0.0,2.5342,2.5034,2.4367,2.2393,2.1522,2.0934,1.9929,1.9412,1.9199,1.9225,1.8851,1.8203,1.7224,1.623,1.5211,1.3978,1.2763,1.1918,1.2242,1.2018,1.1626,1.087,1.0296,0.917,0.7127,0.3398,0.0162,-0.2011,-0.3946,-0.5063,-0.5646,-0.5706,-0.5741,-0.5741,-0.5741,-0.5741,-0.5741,-0.9473,-1.1427,-1.1427,-1.5154,-1.7112,-1.7112,-1.7112,-1.7112,-1.7112,-1.7112,-1.7112,-1.7112,-1.7112,-1.7112,-1.712,-1.725,-1.7687,-1.8644,-2.2097,-2.4274,-2.5675,-2.9646,-3.1423,-3.1877,0.0,0.0,0.0,0.0,0.0,0.0,0.0,2.5145,2.5631,2.6103,2.5612,2.5062,2.4597,2.4049,2.329,2.2302,2.2174,0.0,0.0,0.0,0.0,0.0,0.0,0.0,2.2662,2.3672,2.443,2.4912,2.5647,2.5991,2.5991,2.6198,2.629,2.6267,2.6083,2.5807,0.0,0.0,0.0,0.0,0.0,0.0,2.5256,0.0,0.0,0.0,0.0,0.0,0.0,0.0,0.0,0.0,0.0,0.0,0.0,0.0,2.4916,2.4267,2.2374,2.1379,2.048,1.9496,1.9145,1.9078,1.9052,1.8236,1.7367,1.6588,1.5244,1.3954,1.2942,1.2083,1.1603,1.1766,1.189,1.1697,1.0948,0.9771,0.7983,0.5054,0.1256,-0.1649,-0.2911,-0.4327,-0.5248,-0.5679,-0.5719,-0.5741,-0.5741,-0.5741,-0.6097,-0.6809,-0.9829,-1.1782,-1.2491,-1.5506,-1.7112,-1.7112,-1.7112,-1.7112,-1.7112,-1.7112,-1.7112,-1.7112,-1.7112,-1.7153,0.0,-1.7339,-1.7999,-1.9024,-2.2501,-2.4643,-2.6174,-2.9972,-3.1685,-3.2054,0.0,0.0,0.0,0.0,0.0,0.0,0.0,2.4491,2.5066,2.5694,2.4899,2.4205,2.4205,2.3361,2.275,2.2703,0.0,0.0,0.0,0.0,0.0,0.0,0.0,0.0,2.2845,2.3787,2.4545,2.5027,2.6037,2.6519,2.6519,2.7001,2.7231,2.7208,2.6726,2.6473,2.6381,0.0,0.0,0.0,2.4682,2.521,0.0,0.0,0.0,0.0,0.0,0.0,0.0,0.0,0.0,0.0,0.0,0.0,0.0,0.0,0.0,0.0,0.0,2.0852,1.9354,1.8985,1.9132,1.9199,1.8677,1.7219,0.0,1.5958,1.3912,1.2112,1.2337,1.1673,1.1346,1.1736,1.2085,1.1861,1.1005,0.8818,0.6141,0.2806,-0.0,-0.149,-0.1555,-0.3995,-0.5613,-0.573,-0.5741,-0.5741,-0.5741,-0.5741,-0.663,-0.8765,-1.054,-1.2314,-1.4265,-1.6217,-1.7112,-1.7112,-1.7112,-1.7112,-1.7112,-1.7112,-1.7112,-1.7112,-1.7128,-1.7226,-1.7388,-1.7413,-1.8682,-2.0972,-2.2987,-2.5477,-2.8038,-3.041,-3.1685,-3.2054,0.0,0.0,0.0,0.0,0.0,0.0,0.0,0.0,0.0,0.0,2.4961,2.4653,2.4255,2.4004,2.3505,0.0,0.0,0.0,0.0,0.0,0.0,0.0,0.0,0.0,2.381,2.4843,2.5601,2.6106,2.6749,2.7047,2.7047,2.7185,2.7231,2.7231,2.7093,2.6611,2.5853,2.5325,0.0,0.0,2.4315,2.4912,0.0,0.0,0.0,0.0,2.4573,2.3454,0.0,0.0,0.0,0.0,0.0,0.0,0.0,0.0,2.1456,2.0256,2.027,0.0,1.9932,1.9104,1.8971,1.9052,0.0,1.7944,1.6541,1.5637,1.3841,1.2367,1.1816,1.1372,1.1386,1.189,1.1401,1.0735,0.9958,0.6111,0.319,0.2562,-0.0986,-0.2865,-0.1558,-0.4022,-0.566,-0.5736,-0.5741,-0.5741,-0.5741,-0.5741,-0.7163,-1.0717,-1.125,-1.2314,-1.4265,-1.6217,-1.7112,-1.7112,-1.7112,-1.7112,-1.7112,-1.7112,-1.7112,-1.712,-1.7258,-1.7348,-1.7413,-1.7681,-1.8914,-2.0991,-2.3164,-2.5638,-2.8411,-3.0588,-3.1863,-3.2586,0.0,0.0,0.0,0.0,0.0,0.0,0.0,0.0,0.0,0.0,0.0,2.3739,2.3416,2.3669,0.0,0.0,0.0,0.0,0.0,0.0,0.0,0.0,0.0,2.3862,2.4177,2.5417,2.6313,2.6818,2.7323,2.769,2.7897,2.7667,2.7575,2.7575,2.7323,2.6657,2.5716,2.5647,2.5073,2.4223,2.443,0.0,0.0,0.0,0.0,0.0,2.3973,2.2931,0.0,2.1731,2.1878,2.1989,0.0,0.0,0.0,0.0,2.0178,1.9111,1.9579,1.9642,1.9487,1.8991,1.9025,1.9017,1.8442,1.7183,1.5693,1.4334,1.2965,1.1959,1.1561,1.1074,1.1012,1.1446,1.0869,0.9875,0.8448,0.5493,0.2961,0.1456,-0.116,-0.2888,-0.2792,-0.4573,-0.5676,-0.5736,-0.5741,-0.5741,-0.5741,-0.663,-0.8409,-1.125,-1.2314,-1.3735,-1.5513,-1.6577,-1.7112,-1.7112,-1.7112,-1.7112,-1.7112,-1.7112,-1.7161,-1.7242,-1.7348,-1.7478,-1.7648,-1.7843,-1.9594,-2.2414,-2.3817,-2.6592,-2.986,-3.1137,-3.2054,-3.2778,0.0,0.0,0.0,0.0,0.0,0.0,0.0,0.0,0.0,0.0,0.0,0.0,0.0,0.0,0.0,0.0,0.0,0.0,0.0,0.0,0.0,0.0,2.3827,2.4331,2.4407,2.5853,2.6841,2.7346,2.7851,2.8287,2.87,2.8287,2.8057,2.7966,2.7461,2.6657,2.5739,2.6175,2.5509,2.4223,2.4636,0.0,0.0,0.0,0.0,0.0,0.0,0.0,0.0,2.1731,2.1731,2.1607,2.102,0.0,0.0,0.0,0.0,0.0,1.9266,1.892,1.8638,1.8791,1.903,1.87,1.7395,1.5898,1.4448,1.3183,1.2038,1.1286,1.1343,1.0927,1.0615,1.0774,1.0128,0.8881,0.6326,0.5108,0.3333,0.0163,-0.1167,-0.2393,-0.3874,-0.4951,-0.5684,-0.5736,-0.5741,-0.5741,-0.5741,-0.752,-0.9473,-1.1427,-1.3375,-1.5154,-1.7112,-1.7112,-1.7112,-1.7112,-1.7112,-1.7128,-1.7153,-1.7153,-1.725,-1.7429,-1.7453,-1.764,-1.7916,-1.8309,-2.0602,-2.4054,-2.4956,-2.7677,-3.1315,-3.1877,-3.2409,-3.2778,0.0,0.0,0.0,0.0,0.0,0.0,0.0,0.0,0.0,0.0,0.0,0.0,0.0,0.0,0.0,0.0,0.0,0.0,0.0,0.0,0.0,2.4657,2.4764,2.5011,2.5463,2.6565,2.7369,2.7874,2.8356,2.8632,2.87,2.8632,2.8379,2.7966,2.7461,2.6657,2.5716,2.5807,2.5187,2.42,2.4269,0.0,0.0,0.0,0.0,0.0,0.0,0.0,0.0,2.1731,2.1731,2.1571,2.0689,0.0,0.0,0.0,0.0,0.0,1.7803,1.7412,1.7241,1.8512,1.8314,1.7677,1.7523,1.559,1.3846,1.3759,1.2734,1.1709,1.1003,1.092,1.0663,0.9893,0.9231,0.7438,0.3407,0.2681,0.194,-0.0337,-0.2573,-0.3476,-0.2642,-0.4448,-0.573,-0.5741,-0.5741,-0.5741,-0.5741,-0.752,-0.9473,-1.1427,-1.3375,-1.5154,-1.7112,-1.7112,-1.7112,-1.7112,-1.7112,-1.7193,-1.7348,-1.7348,-1.7437,-1.7607,-1.777,-1.7867,-1.8108,-1.9903,-2.2004,-2.4237,-2.6411,-2.895,-3.1315,-3.1877,-3.2409,-3.2778,0.0,0.0,0.0,0.0,0.0,0.0,0.0,0.0,0.0,0.0,0.0,0.0,0.0,0.0,0.0,0.0,0.0,0.0,0.0,0.0,2.4849,2.5405,2.5657,2.5863,2.613,2.7117,2.7874,2.8379,2.8884,2.9274,2.9504,2.8953,2.8448,2.7966,2.7461,2.6818,2.6106,2.583,2.5279,2.4568,0.0,0.0,0.0,0.0,0.0,0.0,0.0,0.0,0.0,0.0,2.1356,2.0799,1.9803,0.0,0.0,0.0,0.0,0.0,1.7622,1.7258,1.6879,1.7765,1.7253,1.6312,1.5731,1.4681,1.3658,1.3128,1.2624,1.1964,1.1012,1.069,0.9997,0.8703,0.7294,0.5819,0.3974,0.2935,0.1668,-0.0511,-0.2081,-0.299,-0.3732,-0.5005,-0.5741,-0.5741,-0.5741,-0.6097,-0.7163,-0.9121,-1.1072,-1.2845,-1.4794,-1.6217,-1.7112,-1.7112,-1.7112,-1.7112,-1.721,-1.7307,-1.7388,-1.7486,-1.7624,-1.7794,-1.7884,-1.7973,-1.8062,-1.9056,-2.1306,-2.4237,-2.5855,-2.8398,-3.1315,-3.2232,-3.2586,-3.2793,0.0,0.0,0.0,0.0,0.0,0.0,0.0,0.0,0.0,0.0,0.0,0.0,0.0,0.0,0.0,0.0,0.0,0.0,0.0,0.0,2.5357,2.576,2.6383,2.6709,2.67,2.7696,2.8333,2.87,2.9343,2.9848,3.0193,2.9183,2.8494,2.8126,2.7506,2.6955,2.645,2.606,2.5578,2.5073,0.0,0.0,0.0,0.0,0.0,0.0,0.0,0.0,0.0,0.0,0.0,0.0,0.0,0.0,0.0,1.6823,1.6754,1.6994,1.7822,1.7189,1.6296,1.6751,1.5968,1.5001,1.4127,1.372,1.3305,1.221,1.2185,1.1949,1.0988,1.0191,0.9125,0.7663,0.59,0.4724,0.4545,0.3007,0.1022,-0.1371,-0.1919,-0.3011,-0.5017,-0.5559,-0.5741,-0.5741,-0.5741,-0.663,-0.8409,-1.0362,-1.2314,-1.4265,-1.6042,-1.7112,-1.7112,-1.7153,-1.7177,-1.7177,-1.7323,-1.7429,-1.7518,-1.7648,-1.7802,-1.7981,-1.7981,-1.8054,-1.8176,-1.8727,-2.0936,-2.4237,-2.5661,-2.8385,-3.1685,-3.2674,-3.288,-3.2924,0.0,0.0,0.0,0.0,0.0,0.0,0.0,0.0,0.0,0.0,0.0,0.0,0.0,0.0,0.0,0.0,0.0,0.0,0.0,0.0,2.5742,2.5693,2.6742,2.7354,2.7323,2.8208,2.8654,2.87,2.9688,3.0193,3.0193,2.9183,2.8677,2.8609,2.7644,2.6955,2.6473,2.6427,2.6129,2.5647,2.5624,0.0,0.0,0.0,0.0,0.0,0.0,0.0,0.0,0.0,0.0,0.0,0.0,0.0,1.7174,1.6823,1.6901,1.7248,1.7876,1.6646,1.5246,1.5494,1.4771,1.4014,1.4088,1.3409,1.2395,1.125,1.1347,1.12,1.0238,0.9495,0.879,0.7636,0.6059,0.455,0.2964,0.1168,-0.1017,-0.3635,-0.4034,-0.4434,-0.5557,-0.5741,-0.5741,-0.5741,-0.5741,-0.663,-0.8409,-1.0362,-1.2314,-1.4265,-1.6042,-1.7112,-1.7112,-1.7283,-1.7372,-1.7372,-1.738,-1.7559,-1.7875,-1.7892,-1.7989,-1.8152,-1.8152,-1.8168,-1.8363,-2.0196,-2.2034,-2.4237,-2.7135,-3.0039,-3.2807,-3.31,-3.3202,-3.3261,0.0,0.0,0.0,0.0,0.0,0.0,0.0,0.0,0.0,0.0,0.0,0.0,0.0,0.0,0.0,0.0,0.0,0.0,0.0,2.538,2.6142,2.6797,2.7185,2.7524,2.787,2.8417,2.87,2.87,2.9711,3.0216,3.0193,2.9183,2.87,2.8654,2.7667,2.7116,2.6909,2.6588,2.6358,2.6152,2.5161,2.4054,0.0,0.0,0.0,0.0,0.0,0.0,0.0,0.0,2.0167,1.9163,1.8149,1.7138,1.6415,1.6626,1.6914,1.7211,1.7098,1.6217,1.5203,1.4868,1.4033,1.3182,1.3251,1.2584,1.2015,1.2527,1.1608,1.0486,0.9656,0.8765,0.7898,0.7733,0.5353,0.3277,0.2688,-0.0,-0.2417,-0.4032,-0.4254,-0.4646,-0.5559,-0.5741,-0.5741,-0.5741,-0.6809,-0.8409,-1.0184,-1.2137,-1.4088,-1.6042,-1.6753,-1.7169,-1.7283,-1.7356,-1.7494,-1.7713,-1.7713,-1.7786,-1.7924,-1.803,-1.8111,-1.8176,-1.8176,-1.8176,-1.8176,-1.8913,-2.1111,-2.4419,-2.8591,-3.1427,-3.3085,-3.3202,-3.3378,-3.3597,0.0,0.0,0.0,0.0,0.0,0.0,0.0,0.0,0.0,0.0,0.0,0.0,0.0,0.0,0.0,0.0,0.0,0.0,2.4667,2.5262,2.5997,2.6884,2.7042,2.7392,2.7834,2.8286,2.854,2.87,2.9711,3.0216,3.0193,2.9183,2.87,2.8654,2.7667,2.7231,2.7208,2.6864,2.6703,2.66,2.5311,2.4185,0.0,0.0,0.0,0.0,0.0,0.0,0.0,0.0,1.9521,1.8611,1.7606,1.6644,1.6072,1.6553,1.6741,1.6829,1.66,1.5836,1.4862,1.4585,1.37,1.2901,1.2601,1.2116,1.1888,1.2425,1.1108,0.9655,0.8968,0.8315,0.8046,0.7885,0.4936,0.2485,0.2551,-0.0517,-0.3144,-0.4234,-0.4281,-0.4666,-0.5562,-0.5741,-0.5741,-0.5741,-0.752,-0.9473,-1.125,-1.3198,-1.5154,-1.7112,-1.7169,-1.7258,-1.7388,-1.7494,-1.7681,-1.7916,-1.7973,-1.7997,-1.8005,-1.8119,-1.8176,-1.8176,-1.8176,-1.8176,-1.8176,-1.8176,-2.0779,-2.5068,-2.9634,-3.2204,-3.3407,-3.351,-3.37,-3.3934,0.0,0.0,0.0,0.0,0.0,0.0,0.0,0.0,0.0,0.0,0.0,0.0,0.0,0.0,0.0,0.0,0.0,0.0,2.4115,2.4672,2.5202,2.573,2.6225,2.6698,2.7208,2.7713,2.8218,2.87,2.9711,3.0216,3.0193,2.9183,2.87,2.8654,2.7667,2.7231,2.7231,2.7231,2.7231,2.7149,2.6174,2.5037,2.3846,0.0,0.0,0.0,0.0,0.0,0.0,0.0,1.9322,1.8596,1.7606,1.6798,1.6326,1.662,1.6377,1.621,1.6486,1.5269,1.3957,1.4379,1.3892,1.3189,1.2244,1.2036,1.1749,1.0462,0.9645,0.8745,0.7894,0.8682,0.8997,0.8069,0.5,0.2697,0.2556,-0.0517,-0.3144,-0.4236,-0.4281,-0.4666,-0.5562,-0.5741,-0.5741,-0.5741,-0.752,-0.9473,-1.125,-1.3198,-1.5154,-1.7112,-1.7291,-1.7388,-1.7388,-1.7746,-1.7916,-1.7924,-1.8095,-1.8176,-1.8176,-1.8176,-1.8176,-1.8176,-1.8176,-1.8176,-1.8176,-1.8176,-2.141,-2.641,-3.0301,-3.2532,-3.3773,-3.4095,-3.4212,-3.4271,0.0,0.0,0.0,0.0,0.0,0.0,0.0,0.0,0.0,0.0,0.0,0.0,0.0,0.0,0.0,0.0,0.0,0.0,2.5236,2.5469,2.5997,2.6884,2.7481,2.7578,2.727,2.7777,2.8402,2.9251,2.9573,2.9711,2.9688,2.9022,2.8517,2.8172,2.7529,2.7231,2.7231,2.7231,2.7231,2.7067,2.5505,2.4451,2.3722,0.0,0.0,0.0,0.0,0.0,0.0,0.0,0.0,0.0,1.6692,1.6224,1.6366,1.6874,1.7279,1.7174,1.6115,1.5632,1.5077,1.3857,1.3419,1.3245,1.2525,1.2515,1.2284,1.033,0.9703,0.9211,0.8036,0.825,0.8453,0.8015,0.5025,0.2703,0.2583,-0.0867,-0.3503,-0.4279,-0.4655,-0.5022,-0.5562,-0.5741,-0.5741,-0.5741,-0.8765,-1.0895,-1.1427,-1.4441,-1.6632,-1.7299,-1.7364,-1.751,-1.7762,-1.7867,-1.7981,-1.8103,-1.8152,-1.8176,-1.8176,-1.8176,-1.8176,-1.8176,-1.8176,-1.8176,-1.8549,-2.182,-2.4312,-2.6421,-3.088,-3.3225,-3.408,-3.4183,-3.4358,-3.4578,0.0,0.0,0.0,0.0,0.0,0.0,0.0,0.0,2.3446,2.4047,2.4125,2.4125,0.0,0.0,0.0,2.4125,2.4125,2.4372,2.5097,2.5381,2.5895,2.6797,2.7326,2.7508,2.7269,2.758,2.808,2.8907,2.9091,2.9183,2.916,2.8654,2.8264,2.7966,2.7461,2.7231,2.7231,2.7231,2.7231,2.7044,2.5061,2.4137,2.368,0.0,0.0,0.0,0.0,0.0,0.0,0.0,0.0,0.0,1.6151,1.5939,1.6268,1.6315,1.6398,1.6172,1.4898,1.4568,1.4435,1.347,1.3035,1.2873,1.2169,1.1824,1.1088,0.9425,0.9006,0.8716,0.8136,0.7999,0.8023,0.8056,0.5053,0.272,0.2596,-0.0697,-0.3524,-0.4299,-0.4487,-0.5022,-0.5562,-0.5741,-0.6097,-0.6809,-0.9651,-1.1782,-1.2491,-1.5506,-1.7193,-1.738,-1.7453,-1.7624,-1.7916,-1.7989,-1.807,-1.8176,-1.8176,-1.8176,-1.8176,-1.8176,-1.8176,-1.8176,-1.8257,-1.8844,-1.978,-2.3686,-2.6248,-2.7852,-3.1771,-3.3741,-3.4417,-3.4417,-3.4534,-3.471,0.0,0.0,0.0,0.0,0.0,0.0,0.0,2.2897,2.3498,2.4047,2.4125,2.4125,0.0,0.0,0.0,2.4125,2.4125,2.4098,2.4151,2.4735,2.5325,2.5877,2.6353,2.6796,2.7275,2.7208,2.7392,2.7851,2.8379,2.8632,2.8632,2.8195,2.7966,2.7897,2.7438,2.7231,2.7231,2.7231,2.7231,2.7021,2.4906,2.3929,2.3598,2.1434,0.0,0.0,0.0,0.0,0.0,0.0,0.0,0.0,1.6021,1.5792,1.613,1.5431,1.4801,1.4267,1.3626,1.3137,1.2824,1.3254,1.2836,1.2047,1.1498,1.0204,0.9007,0.8225,0.7872,0.7872,0.8032,0.7999,0.797,0.7881,0.4912,0.257,0.2425,-0.0701,-0.3194,-0.4122,-0.4307,-0.4845,-0.5562,-0.5741,-0.6454,-0.8409,-1.0362,-1.2314,-1.4265,-1.6042,-1.7201,-1.7404,-1.7559,-1.7737,-1.794,-1.8095,-1.8176,-1.8176,-1.8176,-1.8176,-1.8176,-1.8176,-1.8184,-1.8208,-1.8379,-1.9767,-2.1846,-2.448,-2.7157,-3.0046,-3.2529,-3.4059,-3.471,-3.471,-3.471,-3.471,0.0,0.0,0.0,0.0,0.0,0.0,2.2402,2.3263,2.3968,2.4099,2.4125,2.4125,2.4125,2.4125,0.0,2.4125,2.4125,2.4301,2.4788,2.5325,2.5884,2.6491,2.6577,2.6602,2.6728,2.6674,2.668,2.6795,2.769,2.8149,2.8126,2.8035,2.7782,2.7392,2.7277,2.7231,2.7231,2.7231,2.7231,2.7103,2.5502,2.4253,2.3225,2.1627,2.0335,0.0,0.0,0.0,0.0,0.0,0.0,0.0,1.586,1.5792,1.638,1.6596,1.6225,1.5578,1.53,1.4586,1.4021,1.3684,1.2522,1.1149,1.0166,0.9054,0.8539,0.9226,0.8627,0.8015,0.8056,0.8048,0.7539,0.6208,0.4066,0.2056,0.0693,-0.2104,-0.4079,-0.4303,-0.5025,-0.5562,-0.5741,-0.5741,-0.6454,-0.8409,-1.0362,-1.2314,-1.4265,-1.6042,-1.7258,-1.7575,-1.7624,-1.7794,-1.8119,-1.8152,-1.8176,-1.8176,-1.8176,-1.8176,-1.8176,-1.8176,-1.8257,-1.8395,-1.8436,-1.9656,-2.1878,-2.4725,-2.731,-3.0058,-3.2766,-3.4248,-3.471,-3.471,-3.471,-3.471,0.0,0.0,0.0,0.0,0.0,0.0,0.0,0.0,2.4125,2.4125,2.4125,2.4125,2.4125,2.4125,0.0,0.0,2.4125,2.423,2.4543,2.5354,2.619,2.7053,2.6791,2.6578,2.6576,2.6294,2.6221,2.6473,2.7001,2.7392,2.7621,2.7621,2.7483,2.7231,2.7231,2.7231,2.7231,2.7231,2.7231,2.7103,2.5665,2.448,2.3391,2.2048,2.078,1.9879,1.9879,0.0,0.0,0.0,0.0,0.0,0.0,0.0,1.6069,1.615,1.5656,1.4977,1.4667,1.4088,1.3291,1.2255,1.1252,1.0188,0.8926,0.8319,0.8148,0.8756,0.8462,0.8015,0.8056,0.806,0.757,0.5578,0.3758,0.19,0.0175,-0.2297,-0.4103,-0.4305,-0.4845,-0.538,-0.5741,-0.5741,-0.6809,-0.9651,-1.0895,-1.2668,-1.5506,-1.6656,-1.7364,-1.7632,-1.7729,-1.79,-1.8176,-1.8176,-1.8176,-1.8176,-1.8176,-1.8225,-1.8306,-1.8306,-1.8363,-1.846,-1.8631,-2.0463,-2.3616,-2.5354,-2.8128,-3.1598,-3.3281,-3.4305,-3.471,-3.471,-3.471,-3.471,0.0,0.0,0.0,0.0,0.0,0.0,0.0,0.0,0.0,2.4125,2.4125,2.4125,2.4125,2.4125,2.4125,0.0,0.0,0.0,2.4125,2.5197,2.6167,2.7048,2.6677,2.6406,2.619,2.5756,2.583,2.6335,2.6427,2.6726,2.7231,2.7231,2.7231,2.7231,2.7231,2.7231,2.7231,2.7231,2.7231,2.7103,2.5747,2.4712,2.3743,2.2406,2.1339,2.0521,2.0521,1.9716,1.8515,1.7641,0.0,0.0,0.0,0.0,1.5734,1.5357,1.4539,1.3733,1.3693,1.3013,1.2102,1.075,0.9971,0.9218,0.7974,0.7868,0.8036,0.7954,0.7946,0.7978,0.8048,0.806,0.7413,0.511,0.3617,0.1916,-0.0352,-0.2316,-0.3949,-0.4307,-0.4843,-0.5201,-0.5741,-0.5918,-0.7699,-1.1072,-1.1782,-1.3375,-1.6936,-1.7291,-1.7469,-1.7632,-1.7819,-1.7997,-1.8176,-1.8176,-1.8176,-1.8176,-1.8208,-1.8306,-1.8452,-1.8517,-1.8541,-1.8558,-1.8858,-2.1302,-2.5365,-2.5946,-2.8919,-3.3163,-3.354,-3.4118,-3.471,-3.471,-3.4739,-3.4783,0.0,0.0,0.0,0.0,0.0,0.0,0.0,0.0,0.0,0.0,2.4125,2.4125,2.4125,2.4125,2.4125,2.4125,2.4125,2.4125,2.4125,0.0,0.0,2.5351,2.5758,2.5562,2.451,2.4849,2.5279,2.5807,2.6244,2.6726,2.7231,2.7231,2.7231,2.7231,2.7231,2.7231,2.7231,2.7231,2.7231,2.7103,2.5665,2.463,2.3743,2.2284,2.1237,2.0521,2.0521,1.9894,1.8905,1.7927,1.7186,0.0,0.0,0.0,1.5803,1.6038,1.4898,1.3688,1.4189,1.2986,1.1439,1.0655,0.991,0.9125,0.7961,0.7868,0.8036,0.7954,0.7995,0.8048,0.806,0.806,0.6909,0.3576,0.2757,0.1393,-0.194,-0.3388,-0.4307,-0.4307,-0.5025,-0.5562,-0.5741,-0.7167,-0.9121,-1.125,-1.3022,-1.4801,-1.6936,-1.7291,-1.7469,-1.7632,-1.7819,-1.7997,-1.8176,-1.8176,-1.8176,-1.8176,-1.8338,-1.8428,-1.846,-1.8769,-1.8915,-1.8915,-1.8964,-2.1384,-2.5421,-2.5647,-2.8548,-3.3177,-3.3351,-3.393,-3.471,-3.471,-3.4871,-3.509,0.0,0.0,0.0,0.0,0.0,0.0,0.0,0.0,0.0,0.0,0.0,2.4125,2.4125,2.4125,2.4125,2.4125,2.4125,2.4256,2.457,2.5066,2.5277,2.5043,2.5259,2.5075,2.4261,2.4391,2.4751,2.5256,2.5784,2.6313,2.6795,2.7093,2.7231,2.7231,2.7231,2.7231,2.7231,2.7231,2.7231,2.7126,2.5953,2.5082,2.4444,2.3315,2.2454,2.1878,2.1878,2.0587,1.8945,1.8498,1.7296,1.5929,1.5483,0.0,0.0,0.0,1.4944,1.3288,1.2871,1.1557,1.0117,0.9962,0.8956,0.796,0.7698,0.7717,0.7872,0.7983,0.7999,0.8007,0.8052,0.806,0.6923,0.3263,0.2595,0.1397,-0.2313,-0.3759,-0.4307,-0.4307,-0.5204,-0.5741,-0.5741,-0.752,-0.9295,-1.125,-1.3198,-1.5154,-1.6936,-1.7372,-1.7559,-1.764,-1.7916,-1.8095,-1.8176,-1.8176,-1.8225,-1.833,-1.8517,-1.8655,-1.8761,-1.9021,-1.9077,-1.8988,-1.9094,-2.1502,-2.5464,-2.5464,-2.8548,-3.3177,-3.3177,-3.3742,-3.4724,-3.49,-3.5046,-3.5178,0.0,0.0,0.0,0.0,0.0,0.0,0.0,0.0,0.0,0.0,0.0,2.4125,2.4125,0.0,0.0,0.0,2.4125,2.4308,2.4726,2.4883,2.4961,2.4874,2.4822,2.4584,2.4065,2.4025,2.4246,2.4728,2.5394,2.5968,2.6473,2.6978,2.7231,2.7231,2.7231,2.7231,2.7231,2.7231,2.73,2.7332,2.61,2.5529,2.516,2.4043,2.3373,2.3125,2.3217,2.1535,1.9255,1.9159,1.7621,1.5605,1.5524,1.5658,0.0,0.0,0.0,1.271,1.1667,1.0407,0.9515,0.9618,0.8489,0.7387,0.7362,0.7546,0.7713,0.7889,0.795,0.7978,0.8023,0.771,0.6424,0.3112,0.2255,0.0699,-0.2506,-0.3769,-0.4307,-0.4307,-0.5204,-0.5741,-0.5741,-0.7877,-0.9829,-1.125,-1.3558,-1.569,-1.7112,-1.7445,-1.764,-1.764,-1.7989,-1.8176,-1.8176,-1.8176,-1.8265,-1.8452,-1.8639,-1.8818,-1.8988,-1.9175,-1.9183,-1.9061,-1.9782,-2.2172,-2.5464,-2.6045,-2.8931,-3.3177,-3.3261,-3.387,-3.4856,-3.5163,-3.5324,-3.5441,0.0,0.0,0.0,0.0,0.0,0.0,0.0,0.0,0.0,0.0,0.0,2.4125,2.4125,2.4125,2.4125,2.4125,2.4125,2.4125,2.4151,2.4674,2.4719,2.4165,2.4226,0.0,2.3494,2.3421,2.3718,2.4223,2.5233,2.5968,2.6473,2.6978,2.7231,2.7231,2.7231,2.7231,2.7231,2.7231,2.7506,2.7775,2.5914,2.5378,2.5632,2.407,2.3492,2.3565,2.395,2.2507,2.0325,1.9989,1.8305,1.6179,1.5899,1.5818,1.5642,0.0,0.0,0.0,1.1419,1.068,1.0025,0.9679,0.8861,0.7936,0.7231,0.7415,0.764,0.757,0.7819,0.8032,0.7958,0.6669,0.4902,0.2939,0.1215,-0.07,-0.2685,-0.3769,-0.4307,-0.4307,-0.5204,-0.5741,-0.5741,-0.9121,-1.125,-1.1427,-1.4801,-1.6936,-1.7112,-1.7445,-1.764,-1.764,-1.7989,-1.8176,-1.8176,-1.8176,-1.8265,-1.8452,-1.8639,-1.8818,-1.8988,-1.9175,-1.9256,-1.9437,-2.1397,-2.3531,-2.5658,-2.7599,-3.0293,-3.3205,-3.3499,-3.4374,-3.5178,-3.55,-3.5807,-3.607,0.0,0.0,0.0,0.0,0.0,0.0,0.0,0.0,0.0,0.0,0.0,0.0,0.0,2.4988,2.5223,2.5223,2.4883,2.4517,2.4151,2.4308,2.4175,2.3695,2.3704,2.3466,2.2971,2.3213,2.3464,2.3718,2.4705,2.5463,2.5991,2.6496,2.6909,2.7231,2.7231,2.7231,2.7254,2.7575,2.7447,2.6948,2.6241,2.5849,2.55,2.4347,2.4262,2.4601,2.3764,2.2383,2.0972,1.9811,1.8139,1.65,1.6206,1.5979,1.5439,1.38,1.2521,1.1484,1.0774,1.01,0.9731,0.9828,0.8845,0.7762,0.787,0.7538,0.7305,0.7562,0.7717,0.7506,0.643,0.5665,0.4734,0.2939,0.1042,-0.07,-0.2687,-0.3769,-0.4307,-0.4307,-0.5204,-0.5741,-0.5741,-0.9117,-1.1427,-1.1427,-1.4977,-1.7112,-1.7112,-1.7445,-1.764,-1.764,-1.7989,-1.8176,-1.8176,-1.8176,-1.833,-1.8631,-1.8696,-1.8874,-1.9159,-1.9232,-1.9256,-1.9454,-2.2945,-2.4882,-2.5658,-2.7792,-3.0586,-3.3485,-3.3597,-3.4517,-3.5514,-3.5822,-3.6012,-3.6144,0.0,0.0,0.0,0.0,0.0,0.0,0.0,0.0,2.4465,2.4674,0.0,0.0,0.0,0.0,2.5824,2.5824,2.5458,2.5014,2.4439,2.4413,2.419,2.3654,2.3293,2.2994,2.2678,2.3001,2.319,2.319,2.4338,2.5096,2.5463,2.6152,2.6657,2.6978,2.7162,2.7231,2.7254,2.7759,2.7532,2.6801,2.6543,2.6215,2.5836,2.5107,2.5179,2.5678,2.4364,2.3104,2.1755,2.0255,1.8499,1.6954,1.666,1.5797,1.4594,1.2748,1.1618,1.0848,1.0393,1.0008,0.973,0.9557,0.8759,0.8008,0.7741,0.7261,0.7039,0.737,0.7083,0.6404,0.5344,0.4298,0.3212,0.1902,0.0174,-0.1401,-0.2687,-0.3769,-0.4307,-0.4307,-0.5204,-0.5741,-0.5741,-0.9117,-1.1427,-1.1427,-1.4977,-1.7112,-1.7112,-1.7445,-1.7697,-1.7819,-1.8054,-1.8176,-1.8176,-1.8176,-1.8363,-1.8728,-1.8728,-1.8915,-1.9256,-1.9256,-1.9651,-2.062,-2.392,-2.5464,-2.5669,-2.8656,-3.1316,-3.3653,-3.3863,-3.4846,-3.5836,-3.6158,-3.6275,-3.6305,0.0,0.0,0.0,0.0,0.0,0.0,2.4805,2.5074,2.5223,2.5772,0.0,0.0,0.0,0.0,0.0,2.5876,2.585,2.5615,2.5101,2.4988,2.4753,2.4151,2.3185,2.2616,2.2592,2.2662,2.2685,2.2685,2.4154,2.4889,2.4935,2.5945,2.6427,2.6496,2.6978,2.7208,2.7254,2.7759,2.7936,2.7709,2.6815,2.6597,2.6807,2.6244,2.6261,2.65,2.5863,2.4597,2.283,2.1272,1.9315,1.7569,1.7248,1.5316,1.295,1.1639,1.0536,0.9957,0.0,0.0,0.0,0.9029,0.8793,0.8374,0.6907,0.6647,0.6868,0.6962,0.5959,0.4918,0.4863,0.2276,-0.0,-0.0173,-0.1736,-0.2803,-0.2864,-0.3768,-0.4305,-0.4307,-0.5204,-0.5741,-0.5741,-0.9117,-1.1427,-1.1427,-1.4977,-1.7112,-1.7112,-1.7445,-1.7802,-1.8168,-1.8176,-1.8176,-1.8176,-1.8176,-1.8363,-1.8728,-1.8728,-1.8915,-1.9256,-1.9454,-2.0423,-2.2564,-2.4688,-2.5669,-2.5884,-3.0227,-3.2681,-3.3723,-3.4325,-3.5151,-3.6173,-3.648,-3.6597,-3.6597,0.0,0.0,0.0,0.0,0.0,2.4726,2.5484,2.5929,2.6269,0.0,0.0,0.0,2.768,2.768,2.7497,2.7105,2.6687,2.619,2.5615,2.5589,2.5328,2.4753,2.3764,2.3071,2.2616,2.2662,2.2685,2.2685,2.3833,2.4568,2.4912,2.521,2.5739,2.6473,2.6611,2.6887,2.7254,2.7759,2.7567,2.6836,2.7146,2.6843,2.6157,2.5533,2.5579,2.5715,2.3709,2.2719,2.2038,2.0578,1.9334,1.8273,1.6478,1.4812,1.3185,1.1764,1.0545,0.9721,0.9827,0.0,0.0,0.0,0.0,0.0,0.7355,0.6894,0.6332,0.5491,0.4991,0.4096,0.183,0.0631,-0.0326,-0.1652,-0.2368,-0.2772,-0.2833,-0.3372,-0.3913,-0.4303,-0.4843,-0.5915,-0.7699,-1.0007,-1.1959,-1.3375,-1.569,-1.7112,-1.7112,-1.7445,-1.7802,-1.8168,-1.8176,-1.8176,-1.8176,-1.8176,-1.8363,-1.8728,-1.8728,-1.8915,-1.9256,-2.0817,-2.179,-2.2564,-2.6238,-2.7897,-2.8268,-3.0896,-3.2926,-3.4311,-3.4493,-3.528,-3.648,-3.6568,-3.6597,-3.6597,0.0,0.0,2.3785,2.436,2.4936,2.5589,2.6399,2.6817,2.721,0.0,0.0,0.0,2.8752,2.8752,2.8621,2.8281,2.7968,2.7419,2.6582,2.653,2.6164,2.5354,2.4557,2.3904,2.3268,2.3323,2.3234,2.3001,2.3837,2.4338,2.4613,2.482,2.5233,2.583,2.6267,2.6749,2.7172,2.7318,2.7041,2.666,2.6714,2.6366,2.5608,2.5267,2.5175,2.494,2.3067,2.2311,2.2045,2.0698,1.9693,1.859,1.6005,1.4567,1.3431,1.1476,1.0322,0.964,0.9713,0.9601,0.9248,0.8735,0.0,0.0,0.6977,0.6112,0.5284,0.4646,0.3537,0.2182,0.0442,-0.0457,-0.1253,-0.2367,-0.2583,-0.2664,-0.2776,-0.3312,-0.3855,-0.4271,-0.4813,-0.6243,-0.8405,-1.0362,-1.2137,-1.4088,-1.6042,-1.7145,-1.7218,-1.7494,-1.777,-1.8062,-1.8135,-1.8176,-1.8176,-1.8176,-1.8363,-1.8728,-1.8728,-1.9295,-2.062,-2.1781,-2.3336,-2.5087,-2.7704,-2.9467,-3.0713,-3.2217,-3.3447,-3.4563,-3.4689,-3.545,-3.6597,-3.6597,-3.6597,-3.6597,0.0,2.3759,2.4387,2.4962,2.5589,2.6373,2.7445,2.7732,2.8203,0.0,2.9483,2.9562,2.9562,2.951,2.9457,2.9457,2.9353,2.883,2.7785,2.7732,2.721,2.6059,2.5563,2.5001,2.4304,2.4293,2.3994,2.338,2.3979,2.4177,2.4131,2.4613,2.4866,2.4958,2.5945,2.6703,2.7172,2.6579,2.6542,2.69,2.6033,2.5533,2.5162,2.507,2.4743,2.419,2.3311,2.2754,2.2371,2.1107,2.0066,1.8803,1.6,1.4559,1.3541,1.1011,0.9949,0.9689,0.9843,0.9259,0.8501,0.7943,0.7221,0.0,0.5932,0.5021,0.431,0.4226,0.2177,0.0279,0.0283,-0.1025,-0.1953,-0.2107,-0.2129,-0.2359,-0.2698,-0.3403,-0.3946,-0.4213,-0.4927,-0.6356,-0.8728,-1.0337,-1.229,-1.4421,-1.621,-1.7193,-1.738,-1.7551,-1.7729,-1.7908,-1.8087,-1.8176,-1.8176,-1.8176,-1.8363,-1.8728,-1.8728,-2.0061,-2.2368,-2.2564,-2.4882,-2.8584,-2.9043,-3.0493,-3.2572,-3.3443,-3.4183,-3.4633,-3.4899,-3.5805,-3.6597,-3.6597,-3.6597,-3.6597,2.324,2.4073,2.4988,2.5563,2.6504,2.7419,2.8098,2.9013,2.9719,2.9928,3.0764,3.1339,3.1339,3.0921,3.066,3.066,2.9823,2.917,2.8961,2.8935,2.8412,2.7236,2.6719,2.5993,2.4976,2.453,2.3994,2.3513,2.3956,2.3994,2.3603,2.4108,2.4545,2.4935,2.5578,2.6358,2.7113,2.6237,2.6475,2.737,2.6389,2.5503,2.4726,2.4594,2.4146,2.3525,2.2591,2.2155,2.2032,2.1303,1.9987,1.841,1.6216,1.4489,1.2898,1.1118,1.0233,0.9843,0.9876,0.9175,0.832,0.7673,0.6967,0.0,0.566,0.5416,0.5133,0.4119,0.3466,0.2771,0.176,0.1255,0.0713,-0.0433,-0.0585,-0.1059,-0.244,-0.2793,-0.3158,-0.4115,-0.4302,-0.604,-1.0269,-1.1052,-1.2686,-1.6025,-1.6856,-1.7193,-1.738,-1.7551,-1.7729,-1.7908,-1.8087,-1.8176,-1.8176,-1.8176,-1.8363,-1.8728,-1.8728,-2.0061,-2.2368,-2.4115,-2.6238,-2.8776,-3.06,-3.1878,-3.2572,-3.3443,-3.4308,-3.4927,-3.538,-3.6004,-3.6597,-3.6597,-3.6597,-3.6597,2.4026,2.4805,2.5667,2.653,2.7392,2.8255,2.9118,2.9745,3.0272,3.082,3.1731,3.2385,3.2672,3.2202,3.1967,3.2254,3.1496,3.0738,3.0163,3.0137,2.9614,2.8464,2.7893,2.7214,2.6297,2.5524,2.4788,2.4256,2.4237,2.4062,2.3833,2.4085,2.4232,2.4332,2.5233,2.5893,2.6095,2.5799,2.6167,2.69,2.6319,2.5397,2.4514,2.4515,2.3848,2.2674,2.2187,2.1991,2.1793,2.0683,1.9584,1.8368,1.5855,1.4291,1.2924,1.1486,1.0647,1.0056,0.963,0.8727,0.7756,0.7004,0.6287,0.0,0.0,0.4964,0.4444,0.3834,0.3187,0.2639,0.1943,0.1843,0.1339,0.0137,-0.0139,-0.0714,-0.2256,-0.263,-0.3183,-0.3954,-0.4135,-0.5998,-1.053,-1.0944,-1.2771,-1.6482,-1.6933,-1.7063,-1.7242,-1.7502,-1.7681,-1.7778,-1.8038,-1.8176,-1.8176,-1.8176,-1.8363,-1.8728,-1.9671,-2.1587,-2.4115,-2.6045,-2.8176,-3.014,-3.1732,-3.2412,-3.2781,-3.3803,-3.4673,-3.5011,-3.5607,-3.6202,-3.6597,-3.6597,-3.6597,-3.6597,2.4925,2.5432,2.619,2.734,2.8098,2.8908,2.998,3.032,3.0869,3.2019,3.2856,3.3539,3.4012,3.3725,3.37,3.412,3.37,3.2804,3.1701,3.1517,3.0939,2.9666,2.9039,2.8412,2.7706,2.6634,2.5689,2.4982,2.4496,2.4154,2.4062,2.4154,2.4084,2.3875,2.5015,2.544,2.5348,2.5695,2.6072,2.6532,2.6409,2.5544,2.4508,2.4743,2.3851,2.2399,2.2311,2.2071,2.158,2.0145,1.9054,1.7832,1.5366,1.4032,1.2985,1.1971,1.1118,1.0365,0.9494,0.8375,0.7407,0.6474,0.5647,0.5043,0.0,0.0,0.0,0.3821,0.3058,0.2396,0.2472,0.2242,0.1766,0.052,-0.0,-0.0668,-0.1927,-0.2581,-0.3145,-0.3766,-0.4101,-0.5903,-1.0182,-1.0952,-1.2849,-1.6411,-1.6482,-1.657,-1.7104,-1.7445,-1.764,-1.764,-1.7989,-1.8176,-1.8176,-1.8176,-1.8543,-1.9288,-2.0992,-2.3294,-2.6238,-2.7792,-2.9721,-3.1704,-3.2291,-3.274,-3.2781,-3.4363,-3.5011,-3.521,-3.5805,-3.6202,-3.6597,-3.6597,-3.6597,-3.6597,2.5282,2.5432,2.619,2.734,2.8438,2.9405,3.0032,3.0999,3.2071,3.3247,3.4733,3.5672,3.5752,3.6004,3.6252,3.6306,3.5764,3.4982,3.4019,3.3407,3.2429,3.0843,3.0241,2.9405,2.8307,2.7213,2.6153,2.5117,2.4496,2.3971,2.3464,2.3994,2.4379,2.4732,2.4957,2.5452,2.6217,2.6134,2.6562,2.7338,2.7474,2.6644,2.5107,2.4916,2.4482,2.3665,2.3297,2.2151,2.0671,2.0509,1.838,1.5654,1.5128,1.3913,1.2631,1.206,1.1573,1.0906,0.9989,0.8759,0.7582,0.6609,0.575,0.5214,0.5226,0.0,0.5068,0.5166,0.0,0.5021,0.5185,0.0,0.0,0.1889,0.0878,-0.0378,-0.1945,-0.2228,-0.2587,-0.3563,-0.36,-0.5295,-0.9592,-1.1745,-1.3865,-1.6398,-1.5362,-1.5337,-1.6928,-1.7445,-1.764,-1.764,-1.7989,-1.8176,-1.8176,-1.8176,-1.9287,-2.1364,-2.1745,-2.4059,-2.8176,-2.856,-2.9721,-3.1704,-3.2291,-3.2935,-3.3365,-3.4561,-3.521,-3.5805,-3.6202,-3.6597,-3.6597,-3.6597,-3.6597,-3.6597,2.6217,2.6524,2.7407,2.8933,2.9629,3.0308,3.1294,3.2515,3.359,3.4389,3.568,3.6849,3.7457,3.7631,3.794,3.8317,3.7741,3.6928,3.5835,3.5248,3.4152,3.2542,3.1627,3.0738,2.9902,2.8119,2.6746,2.6054,2.5083,2.4361,2.3902,2.4384,2.4566,2.4581,2.4894,2.5228,2.5672,2.5511,2.6013,2.7033,2.7362,2.6928,2.6185,2.5714,2.468,2.3652,2.352,2.2486,2.0922,1.991,1.7949,1.5561,1.4464,1.3428,1.2694,1.254,1.2117,1.1327,0.9761,0.8851,0.7963,0.6379,0.5579,0.5243,0.5243,0.5202,0.5177,0.5214,0.0,0.0,0.0,0.0,0.0,0.0,0.0833,-0.0362,-0.1834,-0.2115,-0.2595,-0.3379,-0.341,-0.476,-0.809,-1.0229,-1.237,-1.4555,-1.433,-1.475,-1.6768,-1.7396,-1.764,-1.764,-1.7989,-1.8176,-1.8176,-1.8176,-1.9475,-2.1745,-2.3064,-2.5392,-2.856,-2.9924,-3.0981,-3.1944,-3.2358,-3.303,-3.3612,-3.4631,-3.5408,-3.5805,-3.64,-3.6597,-3.6597,-3.6597,-3.6597,-3.6597,2.7418,2.7564,2.822,2.9902,3.0364,3.0999,3.2809,3.3938,3.5068,3.6106,3.7183,3.8326,3.9365,3.96,3.9852,4.0313,3.9912,3.9147,3.8087,3.7273,3.6216,3.4733,3.3251,3.2121,3.1461,2.9151,2.7582,2.6672,2.5507,2.4659,2.42,2.4682,2.4785,2.4679,2.5267,2.5445,2.5427,2.554,2.6106,2.6864,2.7048,2.6779,2.6319,2.5814,2.4727,2.3487,2.334,2.2125,2.0485,1.8849,1.7201,1.5426,1.4065,1.3441,1.3108,1.3011,1.2409,1.1419,0.9729,0.8817,0.7937,0.612,0.5573,0.539,0.539,0.5284,0.5181,0.5181,0.5161,0.0,0.0,0.0,0.2852,0.1897,0.0,-0.069,-0.1742,-0.2127,-0.2587,-0.3195,-0.3796,-0.4993,-0.7077,-0.8503,-1.0378,-1.3143,-1.3137,-1.4154,-1.6655,-1.7258,-1.7543,-1.764,-1.794,-1.8127,-1.8176,-1.8727,-2.0216,-2.2685,-2.4753,-2.7098,-2.9529,-3.108,-3.1824,-3.2118,-3.2412,-3.3097,-3.3987,-3.4686,-3.5408,-3.6004,-3.64,-3.6597,-3.6597,-3.6597,-3.6597,-3.6597,2.8774,2.8174,2.8157,2.9587,3.0158,3.1439,3.4403,3.5083,3.6207,3.8966,3.9726,4.0532,4.159,4.2126,4.2452,4.2452,4.2514,4.2027,4.0941,3.9778,3.8583,3.7504,3.5386,3.3699,3.2551,3.0342,2.8322,2.6672,2.5507,2.4659,2.42,2.4682,2.5187,2.5684,2.6113,2.6317,2.632,2.712,2.7302,2.7215,2.6998,2.6103,2.4815,2.4844,2.4454,2.3652,2.231,2.092,1.9287,1.7654,1.5886,1.4351,1.4002,1.388,1.3798,1.3457,1.2391,1.1135,1.0066,0.8779,0.7414,0.6311,0.59,0.5765,0.5765,0.5561,0.5373,0.5373,0.5304,0.5243,0.5243,0.3384,0.1866,0.1787,-0.0109,0.0,0.0,-0.1997,-0.2394,-0.3005,-0.5116,-0.6623,-0.6855,-0.7056,-0.8775,-1.2834,-1.1702,-1.2586,-1.6639,-1.7023,-1.7283,-1.7632,-1.7827,-1.8005,-1.8176,-2.0019,-2.2251,-2.4753,-2.6818,-2.9181,-3.1664,-3.1664,-3.1824,-3.2118,-3.2412,-3.3293,-3.4577,-3.4885,-3.5607,-3.6612,-3.6597,-3.6597,-3.6597,-3.6597,-3.6597,-3.6597,2.942,2.9429,2.9822,3.0742,3.1071,3.2097,3.4843,3.587,3.723,3.9541,4.0786,4.1758,4.283,4.3915,4.4538,4.4538,4.4433,4.4125,4.3432,4.227,4.1149,4.0068,3.7806,3.6049,3.4955,3.2225,2.9973,2.8322,2.6783,2.5693,2.521,2.5371,2.5716,2.6267,2.6417,2.6469,2.6361,2.6863,2.7264,2.75,2.7119,2.6067,2.4766,2.4038,2.395,2.3944,2.2596,2.1038,1.9393,1.7888,1.6108,1.4594,1.4473,1.427,1.3914,1.2926,1.227,1.1351,0.9504,0.8433,0.7661,0.6587,0.6137,0.5961,0.5961,0.5798,0.5627,0.5565,0.5484,0.5158,0.4163,0.2837,0.152,0.0747,-0.0639,-0.1705,0.0,-0.2166,-0.267,-0.3371,-0.4339,-0.4943,-0.5062,-0.6256,-0.801,-1.0854,-1.1773,-1.3547,-1.6285,-1.6885,-1.7218,-1.7469,-1.7762,-1.8484,-1.9997,-2.0677,-2.2994,-2.6818,-2.7577,-2.9181,-3.1677,-3.1864,-3.2118,-3.2412,-3.2706,-3.3592,-3.4857,-3.4969,-3.5607,-3.6597,-3.6597,-3.6597,-3.6597,-3.6597,-3.6597,-3.6795,3.0347,3.06,3.0928,3.1282,3.2096,3.3484,3.5947,3.7152,3.8586,4.0669,4.1948,4.2971,4.4054,4.5344,4.6095,4.6095,4.6224,4.6028,4.5511,4.4343,4.3305,4.2389,4.015,3.8363,3.7199,3.4298,3.1804,3.0044,2.8018,2.6657,2.5991,2.5991,2.6152,2.6519,2.7105,2.6993,2.6587,2.7502,2.7891,2.7955,2.7243,2.6012,2.4456,2.3836,2.3941,2.4103,2.2109,2.0894,1.9754,1.747,1.6009,1.4984,1.4919,1.4741,1.4239,1.2984,1.2038,1.1247,0.9179,0.8232,0.7456,0.6876,0.6419,0.6243,0.6243,0.608,0.5904,0.5847,0.5737,0.5373,0.4432,0.2925,0.1663,0.0858,-0.0643,-0.1813,0.0,-0.2224,-0.281,-0.3298,-0.3654,0.0,0.0,0.0,-0.7131,-1.0298,-1.1434,0.0,-1.6004,-1.6665,-1.7063,-1.738,-1.7672,-1.8749,-2.079,-2.1742,-2.4095,-2.795,-2.852,-2.9955,-3.1677,-3.1971,-3.2265,-3.2559,-3.2853,-3.3742,-3.5011,-3.5011,-3.5607,-3.6597,-3.6597,-3.6597,-3.6597,-3.6597,-3.6992,-3.7946,3.1583,3.164,3.1601,3.1225,3.3266,3.5672,3.7714,3.8778,4.0199,4.2396,4.3352,4.426,4.5284,4.6588,4.7347,4.7347,4.7881,4.7965,4.7375,4.6167,4.5212,4.4621,4.2405,4.0581,3.9305,3.6374,3.3795,3.1493,2.9166,2.7506,2.6496,2.6473,2.6473,2.6565,2.8035,2.8076,2.7017,2.884,2.9043,2.8192,2.7278,2.5899,2.4209,2.4235,2.4422,2.4258,2.1148,2.0307,2.0032,1.6607,1.5512,1.5488,1.5309,1.5252,1.4907,1.3339,1.2106,1.0744,0.9262,0.803,0.6982,0.6896,0.6741,0.6611,0.6611,0.6402,0.6215,0.621,0.6068,0.5912,0.5698,0.3696,0.2099,0.1919,-0.0221,-0.1838,-0.2089,-0.239,-0.2615,-0.2983,0.0,0.0,0.0,0.0,-0.6321,-1.1041,-1.0872,0.0,0.0,-1.6365,-1.6812,-1.7348,-1.7543,-1.8794,-2.0953,-2.3013,-2.5397,-2.8136,-2.9844,-3.1102,-3.1677,-3.1984,-3.2278,-3.2559,-3.2866,-3.3755,-3.5011,-3.5011,-3.5607,-3.6597,-3.6597,-3.6597,-3.6597,-3.6597,-3.7946,-4.0061,3.2932,3.3578,3.4506,3.533,3.5787,3.6789,3.8947,3.9673,4.0858,4.3574,4.4948,4.6126,4.7291,4.8499,4.9258,4.9258,4.9398,4.9426,4.9258,4.8106,4.7347,4.7178,4.4455,4.2285,4.0749,3.7593,3.4595,3.1625,2.9535,2.8012,2.7024,2.6634,2.6657,2.707,2.8195,2.8076,2.7017,2.884,2.854,2.684,2.6344,2.5328,2.4249,2.469,2.5037,2.4809,2.1272,2.0307,2.0032,1.6607,1.5512,1.5504,1.5463,1.5447,1.4955,1.2682,1.1773,1.0873,0.866,0.7684,0.7186,0.7162,0.7023,0.6888,0.6888,0.6778,0.6664,0.6598,0.6443,0.6007,0.4963,0.3251,0.1831,0.0936,-0.0674,-0.1961,-0.2378,-0.2562,-0.277,-0.3358,-0.4342,0.0,0.0,0.0,0.0,0.0,0.0,0.0,-1.561,-1.6113,-1.6568,-1.6974,-1.8822,-2.0875,-2.2705,-2.5105,-2.761,-3.003,-3.0597,-3.1102,-3.169,-3.2198,-3.2478,-3.2572,-3.3476,-3.4331,-3.5011,-3.5408,-3.6004,-3.6597,-3.6597,-3.6597,-3.6597,-3.6597,-3.7946,-4.0093,3.5423,3.5911,3.6754,3.799,3.8277,3.8726,4.0013,4.1215,4.2635,4.4593,4.6139,4.7459,4.8415,4.9876,5.0663,5.0382,5.0859,5.0944,5.0382,4.9707,4.9089,4.8555,4.645,4.4457,4.2699,3.9565,3.65,3.3454,3.1008,2.927,2.8195,2.7483,2.7277,2.7621,2.8815,2.8492,2.7268,2.823,2.7815,2.6534,2.6037,2.5355,0.0,2.4957,2.4875,2.4263,2.1446,2.0619,2.0337,1.686,1.5748,1.5748,1.5748,1.531,1.4549,1.2578,1.1376,1.0503,0.8548,0.7701,0.7497,0.7497,0.7358,0.7223,0.7223,0.7154,0.7064,0.6978,0.6245,0.5388,0.4565,0.2627,0.0767,-0.0489,-0.14,-0.1922,-0.2261,-0.2547,-0.2743,-0.3124,-0.4079,-0.4525,0.0,0.0,0.0,0.0,0.0,0.0,-1.5358,-1.5975,-1.647,-1.6844,-1.8423,-2.0667,-2.351,-2.4891,-2.7427,-3.0795,-3.0795,-3.1169,-3.1877,-3.2332,-3.2807,-3.3151,-3.381,-3.4612,-3.5408,-3.5607,-3.6202,-3.6597,-3.6597,-3.7174,-3.7946,-3.7946,-3.9394,-4.168,3.8246,3.8218,3.8664,3.9929,4.0716,4.125,4.1418,4.3188,4.4818,4.5605,4.7319,4.8696,4.923,5.0859,5.1702,5.1169,5.2096,5.2236,5.1169,5.1028,5.0494,4.9342,4.8039,4.6374,4.4516,4.1569,3.8562,3.5426,3.2794,3.0835,2.9573,2.8632,2.8195,2.8241,2.9486,2.9205,2.7723,2.7364,2.7144,2.6863,2.6091,2.5492,2.509,2.517,2.4406,2.3236,2.1534,2.0889,2.0413,1.7182,1.6064,1.6081,1.6081,1.5196,1.3978,1.2621,1.1266,0.9913,0.8556,0.8036,0.7852,0.7852,0.7721,0.7595,0.7595,0.7525,0.7435,0.7044,0.5829,0.4657,0.4117,0.1792,-0.04,-0.1537,-0.1842,-0.1907,-0.2022,-0.2435,-0.2744,-0.29,-0.3651,0.0,0.0,0.0,0.0,0.0,0.0,0.0,0.0,-1.5813,-1.6549,-1.7107,-1.784,-1.9931,-2.351,-2.436,-2.6695,-3.0412,-3.0597,-3.1249,-3.2118,-3.2412,-3.3097,-3.3776,-3.4077,-3.4812,-3.5805,-3.5805,-3.6202,-3.6612,-3.6992,-3.8142,-3.9673,-4.0303,-4.2067,-4.429,3.9499,3.9872,4.0603,4.1868,4.302,4.4116,4.5155,4.524,4.5774,4.7431,4.9258,5.0438,5.055,5.1731,5.2489,5.2377,5.2574,5.2602,5.2405,5.1899,5.1309,5.0578,4.8882,4.6703,4.415,4.1878,3.8667,3.4409,3.2816,3.1368,3.0078,2.9504,2.9228,2.9274,2.9413,2.9237,2.8862,2.6878,2.6597,2.7102,2.5555,2.5012,2.513,2.5611,2.4907,2.326,2.1723,2.021,1.8789,1.6689,1.6137,1.6259,1.6259,1.5363,1.4131,1.2759,1.1395,1.0027,0.8654,0.8219,0.813,0.813,0.8048,0.7966,0.7966,0.7901,0.7324,0.5789,0.5153,0.4401,0.2842,0.1149,-0.0138,-0.0134,-0.1296,-0.2277,-0.2749,-0.2948,-0.316,-0.3658,-0.4813,-0.5605,-0.5741,0.0,0.0,0.0,0.0,0.0,0.0,-1.526,-1.652,-1.8699,-2.1028,-2.261,-2.3332,-2.7071,-2.8729,-2.852,-3.003,-3.1249,-3.2118,-3.2412,-3.3097,-3.3789,-3.4474,-3.521,-3.5805,-3.6202,-3.6597,-3.6795,-3.8534,-3.9299,-4.0093,-4.387,-4.577,-4.6624,4.231,4.2422,4.3073,4.4321,4.4987,4.5914,4.7488,4.7993,4.8527,4.9426,5.0607,5.159,5.2264,5.3135,5.3557,5.322,5.3501,5.3557,5.322,5.322,5.2967,5.2349,5.0188,4.802,4.5805,4.2678,3.9275,3.5742,3.3965,3.2625,3.1387,3.0629,3.0285,3.0239,2.9721,2.9656,2.9834,2.7202,2.6603,2.7196,2.5408,2.4903,2.5192,2.483,2.3648,2.202,2.0362,1.8789,1.7173,1.6205,1.6162,1.63,1.63,1.4953,1.3422,1.273,1.1047,0.9351,0.8653,0.8411,0.8342,0.8342,0.8272,0.8203,0.8203,0.817,0.7608,0.568,0.4562,0.3,0.0305,-0.0895,-0.1313,-0.1128,-0.1657,-0.2306,-0.2809,-0.3011,-0.322,-0.3707,-0.4497,-0.5397,-0.6239,0.0,0.0,0.0,0.0,0.0,0.0,-1.5122,-1.6555,-1.9085,-2.0776,-2.2744,-2.476,-2.7398,-2.8869,-2.9461,-3.0716,-3.1623,-3.2345,-3.2639,-3.3327,-3.4405,-3.4742,-3.5408,-3.6202,-3.64,-3.6597,-3.6795,-3.8909,-4.0239,-4.1607,-4.4857,-4.7178,-4.8949,4.5225,4.5101,4.5487,4.6799,4.7066,4.7684,4.9539,5.0635,5.1225,5.1084,5.1843,5.2714,5.3585,5.4231,5.44,5.3894,5.4316,5.4372,5.3894,5.4316,5.4316,5.3697,5.1242,4.9153,4.7555,4.3612,4.0234,3.7665,3.5695,3.4006,3.2563,3.203,3.1513,3.1054,3.0037,3.0016,3.0363,2.7805,2.7012,2.7661,2.5632,2.5144,2.5484,2.4021,2.2498,2.0899,1.9326,1.7563,1.6105,1.6146,1.6251,1.6365,1.6069,1.44,1.2523,1.2348,1.049,0.8607,0.8607,0.8554,0.8501,0.8501,0.8448,0.8391,0.8391,0.8391,0.7668,0.534,0.3208,0.0982,-0.1553,-0.2326,-0.2313,-0.193,-0.2196,-0.2606,-0.2845,-0.3205,-0.3552,-0.3897,-0.4158,-0.4926,-0.6658,0.0,0.0,0.0,0.0,0.0,-1.4351,-1.5025,-1.6452,-1.9018,-2.0191,-2.235,-2.5654,-2.716,-2.8812,-3.0228,-3.1195,-3.1971,-3.2559,-3.2839,-3.3728,-3.5011,-3.5011,-3.5607,-3.6597,-3.6597,-3.6795,-3.7371,-3.9478,-4.159,-4.3677,-4.5865,-4.8152,-5.0365,4.7201,4.7153,4.7673,4.938,4.9623,5.0241,5.2096,5.2461,5.2349,5.1787,5.322,5.4147,5.3726,5.4231,5.4569,5.4512,5.4569,5.4569,5.4512,5.4569,5.4316,5.3697,5.1258,4.9328,4.8131,4.456,4.1558,3.8999,3.7642,3.5535,3.2901,3.3945,3.3354,3.1183,3.0306,3.0043,3.0149,2.8163,2.8,2.871,2.636,2.5625,2.579,2.4318,2.2659,2.092,1.9502,1.7758,1.6308,1.647,1.6544,1.6414,1.5182,1.3948,1.2662,1.1245,0.9838,0.8607,0.8607,0.8603,0.8595,0.8595,0.8591,0.8583,0.8583,0.8583,0.7485,0.3876,0.0346,-0.1855,-0.065,-0.1617,-0.2079,-0.0617,-0.184,-0.3193,-0.3413,-0.3836,-0.4231,-0.4553,-0.454,-0.5611,-0.8183,-0.867,0.0,0.0,0.0,0.0,0.0,-1.4724,-1.6268,-1.8799,-2.1325,-2.3054,-2.351,-2.7895,-2.9376,-2.8148,-3.0616,-3.1971,-3.2559,-3.2839,-3.3728,-3.5011,-3.5011,-3.5607,-3.6597,-3.6597,-3.775,-3.9673,-4.1574,-4.3677,-4.5828,-4.8679,-4.9941,-5.0518,5.0338,5.0311,5.0614,5.144,5.1618,5.1983,5.3107,5.3613,5.3866,5.4007,5.4344,5.4625,5.4765,5.499,5.5131,5.5131,5.5131,5.5131,5.5131,5.5131,5.5018,5.4793,5.1991,4.989,4.8734,4.5171,4.2244,4.0069,3.8935,3.7345,3.5201,3.4744,3.3159,3.0883,3.0762,3.0335,2.9421,2.8533,2.7943,2.758,2.6364,2.5205,2.4227,2.2739,2.1308,1.9647,1.7924,1.7045,1.6495,1.6682,1.6747,1.6411,1.5082,1.3806,1.2686,1.1083,0.9669,0.8607,0.8607,0.8607,0.8607,0.8607,0.8607,0.8607,0.8607,0.8607,0.752,0.3743,-0.0176,-0.2597,-0.1854,-0.2361,-0.2519,-0.1796,-0.2602,-0.3397,-0.366,-0.4077,-0.4475,-0.4853,-0.5667,-0.7031,-0.8908,-1.0007,0.0,0.0,0.0,0.0,0.0,-1.5998,-1.7621,-1.8961,-2.2681,-2.4998,-2.5345,-2.8885,-3.0478,-3.0174,-3.1521,-3.2412,-3.2812,-3.3106,-3.3905,-3.5011,-3.5607,-3.6202,-3.6795,-3.7946,-3.8909,-4.0061,-4.3296,-4.502,-4.6186,-4.8838,-5.0111,-5.0417,5.3605,5.3314,5.326,5.3603,5.3613,5.3754,5.4372,5.5018,5.558,5.6002,5.5693,5.5496,5.5749,5.5777,5.5693,5.5524,5.5496,5.5496,5.5496,5.5496,5.5379,5.488,5.2192,5.0219,4.923,4.5649,4.3096,4.1733,4.0683,3.9084,3.7053,3.4869,3.2976,3.1482,3.1424,3.0864,2.9563,2.8922,2.8182,2.7126,2.6307,2.5049,2.3392,2.1878,2.0293,1.8634,1.7095,1.6552,1.669,1.6868,1.6578,1.6048,1.4646,1.3663,1.2509,1.0555,0.9317,0.8607,0.8607,0.8607,0.8607,0.8607,0.8607,0.8607,0.8607,0.8607,0.7527,0.3762,0.0357,-0.2119,-0.2601,-0.2782,-0.278,-0.2728,-0.3229,-0.3724,-0.385,-0.4452,-0.4867,-0.5112,-0.6098,-0.7354,-0.9334,-1.0577,0.0,0.0,0.0,0.0,-1.5317,-1.7226,-1.8843,-1.9911,-2.3926,-2.6297,-2.6771,-2.9507,-3.1169,-3.1677,-3.2265,-3.2692,-3.2986,-3.3679,-3.4413,-3.521,-3.6202,-3.6597,-3.6795,-3.8909,-4.0061,-4.1012,-4.4453,-4.6167,-4.712,-4.9012,-5.0234,-5.0782,5.6436,5.5738,5.5313,5.5752,5.5623,5.5664,5.6283,5.6929,5.735,5.735,5.735,5.7097,5.6479,5.6395,5.617,5.5552,5.5496,5.5496,5.5496,5.5496,5.488,5.3631,5.1705,5.0297,4.9464,4.6137,4.4323,4.4299,4.2877,4.0808,3.7919,3.4576,3.3075,3.3107,3.2301,3.147,3.07,2.9502,2.8796,2.8052,2.6553,2.5165,2.368,2.2144,2.0426,1.8671,1.722,1.6852,1.6877,1.7047,1.6217,1.4801,1.3388,1.2863,1.2331,0.9496,0.8607,0.8607,0.8607,0.8607,0.8607,0.8607,0.8607,0.8607,0.8607,0.8607,0.7527,0.3762,0.1254,-0.0536,-0.2479,-0.2827,-0.2818,-0.2787,-0.365,-0.4154,-0.4109,-0.4957,-0.5425,-0.5305,-0.5234,-0.6431,-0.9553,-0.9987,-1.1324,-1.4406,-1.6879,-1.7969,-1.7559,-1.8131,-1.9473,-2.1556,-2.4785,-2.6479,-2.6771,-2.9702,-3.137,-3.1677,-3.2265,-3.2692,-3.2986,-3.4474,-3.521,-3.5805,-3.64,-3.6597,-3.6795,-3.8909,-4.0819,-4.2915,-4.502,-4.7307,-4.9604,-5.0154,-5.0965,-5.178,5.9289,5.8984,5.8605,5.8031,5.7799,5.7648,5.7161,5.7266,5.7547,5.794,5.7997,5.794,5.7716,5.7322,5.6985,5.6788,5.6788,5.6788,5.6788,5.6788,5.6131,5.4704,5.3243,5.1484,4.9515,4.745,4.5958,4.4876,4.4055,4.1481,3.733,3.4737,3.3301,3.273,3.2777,3.172,3.0033,3.0192,2.8837,2.658,2.5046,2.352,2.197,2.0405,1.8792,1.7366,1.6984,1.6925,1.7039,1.7088,1.6217,1.4801,1.3394,1.2148,1.1088,0.9139,0.8607,0.8607,0.8607,0.8607,0.8607,0.8607,0.8607,0.8607,0.8607,0.663,0.4299,0.3225,0.0359,-0.2152,-0.2683,-0.286,-0.3034,-0.3378,-0.3909,-0.4436,-0.4597,-0.5268,-0.61,-0.7259,-0.8315,-0.9858,-1.2099,-1.3478,-1.4539,-1.5465,-1.6366,-1.7341,-1.8198,-2.119,-2.2797,-2.2457,-2.6301,-2.8131,-2.7305,-2.9896,-3.157,-3.2265,-3.2452,-3.2996,-3.3878,-3.4557,-3.521,-3.5805,-3.64,-3.7371,-3.8909,-4.0819,-4.2915,-4.502,-4.712,-4.8643,-4.9604,-5.0154,-5.0965,-5.178,6.1416,6.1074,6.0535,5.9479,5.9159,5.877,5.7837,5.7912,5.8221,5.8587,5.8643,5.8643,5.8643,5.8306,5.7884,5.7435,5.7378,5.7378,5.7378,5.6865,5.595,5.4493,5.3088,5.1478,4.9381,4.8282,4.7305,4.6319,4.4934,4.2358,3.868,3.6314,3.4604,3.3523,3.378,3.2506,3.0156,3.045,2.8966,2.6135,2.4541,2.297,2.1397,1.9815,1.8166,1.686,1.6925,1.7015,1.7112,1.7112,1.5866,1.4095,1.3217,1.1444,0.9669,0.8786,0.8607,0.8607,0.8607,0.8607,0.8607,0.8607,0.8607,0.8607,0.8607,0.6273,0.3762,0.3046,0.0359,-0.1975,-0.2694,-0.3053,-0.3231,-0.359,-0.4126,-0.4664,-0.5022,-0.6059,-0.7272,-0.8325,-0.9932,-1.1709,-1.3593,-1.4652,-1.5568,-1.6243,-1.7138,-1.8343,-2.0066,-2.2621,-2.4362,-2.4861,-2.8152,-2.9493,-2.8825,-3.0634,-3.1944,-3.2706,-3.3009,-3.3647,-3.4612,-3.5011,-3.5607,-3.6202,-3.64,-3.775,-3.9867,-4.1958,-4.3867,-4.5979,-4.8273,-4.942,-4.9991,-5.0518,-5.1413,-5.2416,6.2948,6.2269,6.1357,6.0457,6.0034,5.952,5.8485,5.884,5.9205,5.9205,5.9205,5.9205,5.9205,5.9205,5.8755,5.7603,5.7519,5.7519,5.7519,5.6184,5.488,5.3321,5.2042,5.0737,4.9133,4.8603,4.8291,4.8171,4.5318,4.3037,4.1284,3.8867,3.6797,3.5155,3.5011,3.3422,3.0751,3.0751,2.9123,2.6693,2.4714,2.307,2.1641,1.9827,1.8216,1.6893,1.7055,1.7112,1.7112,1.6936,1.5161,1.2863,1.2863,1.0916,0.8607,0.8607,0.8607,0.8607,0.8607,0.8607,0.8607,0.8607,0.8607,0.8607,0.8429,0.6812,0.5017,0.3046,0.1076,-0.0718,-0.2515,-0.3231,-0.359,-0.3588,-0.4305,-0.5022,-0.5199,-0.7163,-0.8769,-0.8952,-1.046,-1.2324,-1.4095,-1.4146,-1.4922,-1.6478,-1.8685,-2.0801,-2.2708,-2.3086,-2.466,-2.8257,-2.9659,-3.0555,-3.0849,-3.1704,-3.2412,-3.2986,-3.3864,-3.4413,-3.5011,-3.5607,-3.6004,-3.6612,-3.6795,-3.7946,-4.0061,-4.215,-4.4057,-4.6167,-4.8643,-4.9971,-5.0397,-5.1372,-5.2395,-5.324,6.4395,6.4285,6.3589,6.1905,6.1439,6.0845,5.9228,5.9121,5.9205,5.9205,5.9205,5.9205,5.9205,5.9205,5.9093,5.8812,5.8783,5.8783,5.8783,5.8507,5.7168,5.4629,5.4126,5.2582,4.9824,4.9157,4.8291,4.7088,4.446,4.266,4.1602,3.8823,3.727,3.685,3.5149,3.3516,3.1842,3.0566,2.8919,2.6835,2.368,2.2321,2.1864,1.8705,1.7273,1.7055,1.7096,1.7112,1.6928,1.5866,1.4272,1.2686,1.1616,1.0026,0.8607,0.8607,0.8607,0.8607,0.8607,0.8607,0.8607,0.8607,0.8607,0.8246,0.6809,0.4838,0.3046,0.1075,-0.0897,-0.2334,-0.2874,-0.3053,-0.3233,-0.3949,-0.4307,-0.5201,-0.7517,-0.823,-0.9683,-1.2812,-1.3509,-1.4606,-1.6533,-1.6689,-1.6845,-1.7388,-1.9375,-2.1661,-2.344,-2.542,-2.7361,-2.9499,-3.0488,-3.1169,-3.1463,-3.2118,-3.2625,-3.2986,-3.3864,-3.4413,-3.5011,-3.5607,-3.6004,-3.6597,-3.8338,-4.0045,-4.215,-4.4246,-4.6354,-4.8273,-4.9216,-4.9971,-5.0397,-5.1372,-5.2395,-5.324,6.4888,6.4524,6.3789,6.2233,6.1673,6.0837,5.9454,5.9205,5.9205,5.9205,5.9205,5.9205,5.9205,5.9205,5.9205,5.9205,5.9205,5.9205,5.9205,5.855,5.7194,5.5049,5.4247,5.279,5.0263,4.9974,4.9397,4.8531,4.5568,4.3599,4.275,3.9524,3.7803,3.7403,3.5362,3.3759,3.2221,3.045,2.8776,2.7126,2.3435,2.2223,2.1926,1.8339,1.7031,1.7112,1.7112,1.7112,1.6928,1.5506,1.4095,1.2686,1.1083,0.9669,0.8607,0.8607,0.8607,0.8607,0.8607,0.8607,0.8607,0.8607,0.8607,0.8067,0.6094,0.4299,0.233,0.0359,-0.1615,-0.2874,-0.2874,-0.3053,-0.3411,-0.4128,-0.4504,-0.5596,-0.8293,-0.9586,-1.1257,-1.4223,-1.5319,-1.6445,-1.7451,-1.764,-1.7681,-1.7762,-1.9934,-2.2089,-2.4011,-2.6515,-2.8741,-3.0327,-3.1036,-3.1637,-3.2064,-3.2652,-3.3026,-3.3173,-3.4131,-3.4812,-3.5011,-3.5805,-3.64,-3.6795,-3.8714,-4.0819,-4.2915,-4.502,-4.712,-4.9236,-4.9787,-5.0274,-5.1046,-5.2067,-5.2889,-5.3551,6.4888,6.4158,6.3304,6.2233,6.1316,6.0381,5.9329,5.9205,5.9205,5.9205,5.9205,5.9205,5.9205,5.9205,5.9205,5.9205,5.9205,5.9205,5.9205,5.8016,5.6677,5.4916,5.3708,5.2416,5.0696,5.0624,5.0386,5.0149,4.6848,4.4755,4.3658,4.044,3.8382,3.7613,3.5539,3.3793,3.2364,3.0277,2.8823,2.7429,2.3687,2.2449,2.2277,1.8488,1.7112,1.7112,1.7112,1.7112,1.6928,1.5154,1.3918,1.2686,1.0911,0.9491,0.8607,0.8607,0.8607,0.8607,0.8607,0.8607,0.8607,0.8607,0.8607,0.8067,0.5733,0.412,0.233,-0.0,-0.1795,-0.2874,-0.2874,-0.3231,-0.3771,-0.4316,-0.471,-0.601,-0.8923,-1.0816,-1.2712,-1.4922,-1.6764,-1.7705,-1.7762,-1.7762,-1.7843,-1.803,-2.0417,-2.2653,-2.4549,-2.7251,-2.9558,-3.1129,-3.157,-3.2078,-3.2666,-3.316,-3.3414,-3.3614,-3.4612,-3.5011,-3.521,-3.6202,-3.6795,-3.7174,-3.9283,-4.1398,-4.3296,-4.5397,-4.7698,-4.9604,-5.0214,-5.1026,-5.178,-5.2889,-5.353,-5.3903,6.4888,6.4777,6.4045,6.2349,6.188,6.1197,5.9454,5.9205,5.9205,5.9205,5.9205,5.9205,5.9205,5.9205,5.9205,5.9205,5.9205,5.9205,5.9205,5.8955,5.7734,5.5049,5.4649,5.3326,5.0696,5.0239,4.9176,4.7282,4.5911,4.4166,4.2379,4.0627,3.94,3.891,3.5181,3.3401,3.3075,2.9812,2.8365,2.7733,2.4109,2.2589,2.2277,1.8488,1.7112,1.7112,1.7112,1.7112,1.6753,1.4102,1.304,1.2509,0.9847,0.8786,0.8607,0.8607,0.8607,0.8607,0.8607,0.8607,0.8607,0.8607,0.8607,0.771,0.412,0.3046,0.1971,-0.1795,-0.2694,-0.2874,-0.2874,-0.3231,-0.378,-0.4359,-0.4735,-0.6571,-1.0836,-1.1598,-1.3114,-1.6926,-1.7692,-1.7989,-1.8298,-1.8322,-1.8403,-1.8582,-2.2354,-2.4854,-2.5462,-2.9245,-3.1772,-3.2625,-3.2492,-3.2692,-3.3267,-3.3374,-3.3614,-3.4014,-3.4612,-3.521,-3.5607,-3.64,-3.7568,-3.9299,-4.1381,-4.3487,-4.5585,-4.8069,-4.9216,-4.9827,-5.0923,-5.1658,-5.1821,-5.324,-5.3778,-5.3903,6.4888,6.4045,6.3104,6.2116,6.1197,6.0137,5.9329,5.9205,5.9205,5.9205,5.9205,5.9205,5.9205,5.9205,5.9205,5.9205,5.9205,5.9205,5.9205,5.9205,5.7861,5.5049,5.4916,5.3598,5.0696,5.0455,4.9463,4.7597,4.6043,4.423,4.214,4.0394,3.9272,3.8798,3.5025,3.3397,3.3233,2.9621,2.763,2.6418,2.3652,2.1932,2.0905,1.8147,1.7112,1.7112,1.7112,1.6577,1.569,1.3571,1.2325,1.1266,0.9317,0.8607,0.8607,0.8607,0.8607,0.8607,0.8607,0.8607,0.8607,0.8607,0.7889,0.6281,0.3427,0.1987,0.0543,-0.2369,-0.2908,-0.2901,-0.3283,-0.3453,-0.3996,-0.477,-0.5902,-0.7959,-1.1504,-1.287,-1.4798,-1.7667,-1.8054,-1.816,-1.8428,-1.8452,-1.9129,-2.036,-2.3516,-2.5836,-2.7375,-3.0458,-3.2372,-3.2959,-3.3,-3.3146,-3.3414,-3.3414,-3.3614,-3.4214,-3.4812,-3.521,-3.5805,-3.7553,-3.8714,-3.9867,-4.2915,-4.4832,-4.5979,-4.8643,-4.9787,-5.0011,-5.1168,-5.2046,-5.256,-5.3405,-5.4195,-5.4633,6.4888,6.3562,6.2233,6.1998,6.0624,5.9454,5.9205,5.9205,5.9205,5.9205,5.9205,5.9205,5.9205,5.9205,5.9205,5.9205,5.9205,5.9205,5.9205,5.8955,5.7606,5.5049,5.4247,5.2941,5.0696,5.0696,4.9652,4.7704,4.6189,4.4096,4.1693,4.0178,3.8938,3.7827,3.4701,3.3233,3.2577,2.9453,2.7109,2.5203,2.3309,2.1597,1.97,1.7805,1.7112,1.7112,1.7112,1.6217,1.4801,1.3388,1.1971,1.0377,0.896,0.8607,0.8607,0.8607,0.8624,0.8632,0.8611,0.8624,0.8457,0.8094,0.6845,0.5063,0.2733,0.1095,-0.0549,-0.2586,-0.2943,-0.3117,-0.3513,-0.3862,-0.4222,-0.5006,-0.709,-0.9368,-1.1812,-1.3964,-1.5917,-1.7989,-1.8217,-1.8314,-1.8501,-1.855,-1.9654,-2.1901,-2.4084,-2.642,-2.9019,-3.1076,-3.2545,-3.3066,-3.3293,-3.3414,-3.3414,-3.3414,-3.3814,-3.4413,-3.4812,-3.5408,-3.6004,-3.8518,-3.9867,-4.0626,-4.4264,-4.6167,-4.6934,-4.8945,-5.0131,-5.0721,-5.1821,-5.2642,-5.3385,-5.384,-5.4612,-5.5304,6.4888,6.4045,6.3074,6.2116,6.1197,6.0165,5.9329,5.9205,5.9205,5.9205,5.9205,5.9205,5.9205,5.9205,5.9205,5.9205,5.9205,5.9205,5.9205,5.8016,5.6547,5.4916,5.2416,5.0978,5.0696,5.0696,4.9198,4.6063,4.5915,4.3815,4.0059,3.9902,3.8603,3.6155,3.4213,3.2577,3.0954,2.8964,2.7109,2.5203,2.3309,2.1597,1.97,1.7805,1.7112,1.7112,1.7112,1.6217,1.4801,1.3388,1.1971,1.0377,0.896,0.8607,0.8607,0.8607,0.8664,0.8709,0.8628,0.8664,0.8178,0.6356,0.5853,0.479,0.0922,-0.0,-0.0554,-0.259,-0.296,-0.3143,-0.3703,-0.4071,-0.4638,-0.5246,-0.7306,-0.9764,-1.1736,-1.3833,-1.5917,-1.7989,-1.8322,-1.8501,-1.8688,-1.885,-1.9987,-2.2135,-2.4474,-2.6856,-2.9296,-3.1565,-3.3053,-3.3374,-3.34,-3.3414,-3.3414,-3.3414,-3.4014,-3.5011,-3.5011,-3.5607,-3.6597,-3.8714,-4.0626,-4.2533,-4.4832,-4.712,-4.944,-5.041,-5.1125,-5.176,-5.3012,-5.3758,-5.3861,-5.4317,-5.4883,-5.5304,6.4888,6.3562,6.2466,6.1998,6.0716,5.9578,5.9205,5.9205,5.9205,5.9205,5.9205,5.9205,5.9205,5.9205,5.9205,5.9205,5.9205,5.9205,5.9205,5.7065,5.5049,5.3708,5.1747,5.0696,5.0696,5.0696,4.9054,4.5915,4.5596,4.3663,3.9902,3.9588,3.8286,3.5994,3.4213,3.2412,3.0622,2.8978,2.6418,2.3652,2.2966,2.0905,1.8147,1.7455,1.7112,1.7112,1.7112,1.569,1.3565,1.304,1.1266,0.9317,0.8786,0.8607,0.8619,0.8673,0.8709,0.8738,0.8766,0.8795,0.8266,0.6241,0.497,0.3329,0.0559,-0.112,-0.2057,-0.2826,-0.3002,-0.3182,-0.4144,-0.4314,-0.4685,-0.5677,-0.8696,-1.1151,-1.1946,-1.4966,-1.746,-1.833,-1.8412,-1.8566,-1.8858,-1.8948,-2.0402,-2.4095,-2.5288,-2.749,-3.1125,-3.259,-3.3293,-3.3414,-3.3414,-3.3414,-3.3414,-3.3414,-3.4014,-3.5011,-3.5011,-3.5607,-3.6795,-4.0045,-4.1958,-4.2915,-4.6167,-4.8459,-4.9643,-5.0635,-5.1371,-5.1801,-5.3302,-5.384,-5.3903,-5.4737,-5.5283,-5.585,6.4888,6.3334,6.1998,6.1998,6.0502,5.9205,5.9205,5.9205,5.9205,5.9205,5.9205,5.9205,5.9205,5.9205,5.9205,5.9205,5.9205,5.9205,5.9205,5.652,5.4113,5.2278,5.1236,5.0696,5.0696,5.0246,4.8621,4.5915,4.517,4.3207,4.0059,3.9745,3.795,3.5349,3.405,3.2083,2.9969,2.8642,2.6066,2.2622,2.2622,2.0385,1.7112,1.7112,1.7112,1.7112,1.6577,1.4985,1.2863,1.2325,1.0555,0.8607,0.8607,0.8628,0.866,0.8717,0.8775,0.8832,0.8897,0.8559,0.7456,0.5384,0.3534,0.1494,-0.0565,-0.2076,-0.3026,-0.3048,-0.3036,-0.3405,-0.4379,-0.4549,-0.5103,-0.6847,-0.9879,-1.2328,-1.2899,-1.614,-1.8306,-1.8436,-1.855,-1.8712,-1.8956,-1.9614,-2.1661,-2.5366,-2.6582,-2.8634,-3.2589,-3.32,-3.3414,-3.3414,-3.3414,-3.3414,-3.3414,-3.3614,-3.4014,-3.5011,-3.521,-3.5805,-3.6795,-4.0819,-4.2724,-4.2915,-4.7307,-4.942,-4.9827,-5.096,-5.1759,-5.221,-5.3508,-5.4068,-5.411,-5.4989,-5.5661,-5.6038,6.4888,6.3334,6.1998,6.1998,6.0502,5.9205,5.9205,5.9205,5.9205,5.9205,5.9205,5.9205,5.9205,5.9205,5.9205,5.9205,5.9205,5.9205,5.9205,5.652,5.3598,5.0837,5.0696,5.0696,5.0696,4.9054,4.7558,4.5915,4.4289,4.2483,4.0509,4.0059,3.7791,3.4034,3.356,3.1437,2.815,2.815,2.6066,2.2622,2.2622,2.0385,1.7112,1.7112,1.7112,1.6936,1.5506,1.4095,1.2686,1.1261,0.9847,0.8607,0.8607,0.8668,0.8734,0.8738,0.8864,0.9007,0.9007,0.7558,0.5505,0.3383,0.1512,-0.0571,-0.267,-0.3052,-0.3052,-0.3052,-0.3052,-0.3434,-0.4385,-0.4575,-0.5525,-0.8557,-1.0824,-1.2899,-1.4973,-1.7192,-1.8452,-1.8452,-1.8769,-1.898,-1.8988,-2.1085,-2.3424,-2.5798,-2.8009,-3.0577,-3.3173,-3.3414,-3.3414,-3.3414,-3.3414,-3.3414,-3.3414,-3.4014,-3.4413,-3.5011,-3.5607,-3.6004,-3.6795,-4.0803,-4.2724,-4.2915,-4.7679,-4.9787,-5.0397,-5.184,-5.2786,-5.3282,-5.4172,-5.4524,-5.4544,-5.5114,-5.5661,-5.6038,6.4888,6.3334,6.1998,6.1998,6.0502,5.9205,5.9205,5.9205,5.9205,5.9205,5.9205,5.9205,5.9205,5.9205,5.9205,5.9205,5.9205,5.827,5.626,5.4381,5.2666,5.0837,5.0696,5.0696,5.0696,4.9054,4.7558,4.5915,4.4289,4.233,4.0059,3.9902,3.7775,3.3912,3.3746,3.19,2.8579,2.7139,2.5134,2.2858,2.1312,1.9186,1.7112,1.7112,1.7112,1.6936,1.5506,1.4095,1.2686,1.1261,0.9847,0.8619,0.8677,0.8713,0.8758,0.8889,0.8962,0.902,0.9085,0.6458,0.3803,0.3223,0.152,-0.0571,-0.267,-0.3052,-0.3052,-0.3052,-0.3052,-0.3243,-0.4006,-0.4385,-0.5525,-0.8178,-1.0635,-1.2899,-1.4973,-1.7192,-1.8501,-1.8631,-1.8842,-1.9037,-1.9167,-2.1165,-2.3424,-2.5798,-2.9578,-3.2405,-3.3387,-3.3414,-3.3414,-3.3414,-3.3414,-3.3614,-3.4014,-3.4214,-3.4413,-3.5011,-3.5607,-3.678,-3.8909,-4.1574,-4.3487,-4.502,-4.8254,-4.9787,-5.0377,-5.1494,-5.2498,-5.324,-5.382,-5.4255,-5.4524,-5.5472,-5.585,-5.6038,6.4412,6.3074,6.188,6.1555,6.0137,5.9205,5.9205,5.9205,5.9205,5.9205,5.9205,5.9205,5.9205,5.9205,5.9205,5.9205,5.8676,5.735,5.5049,5.3572,5.2139,5.0696,5.0696,5.0412,4.9795,4.8163,4.6529,4.487,4.34,4.1733,4.0059,3.9403,3.7326,3.4071,3.3228,3.1563,2.8844,2.6711,2.4882,2.293,2.0871,1.9025,1.7218,1.7218,1.7177,1.6753,1.4801,1.3565,1.2509,1.0555,0.9339,0.8668,0.8717,0.8783,0.8864,0.8975,0.9032,0.9073,0.913,0.609,0.3046,0.3046,0.0952,-0.1525,-0.286,-0.3052,-0.3052,-0.3052,-0.3052,-0.3243,-0.3624,-0.4196,-0.5713,-0.9118,-1.1008,-1.3104,-1.6003,-1.7678,-1.8631,-1.8801,-1.8988,-1.9527,-2.0414,-2.2444,-2.5156,-2.845,-3.147,-3.3227,-3.34,-3.3414,-3.3414,-3.3414,-3.3414,-3.3614,-3.4214,-3.4413,-3.4812,-3.5408,-3.5805,-3.7356,-3.9673,-4.1766,-4.3867,-4.6149,-4.8828,-5.0154,-5.0742,-5.1535,-5.2559,-5.322,-5.3675,-5.413,-5.4925,-5.5661,-5.6226,-5.6414,6.3532,6.2612,6.1673,6.0745,5.9797,5.9205,5.9205,5.9205,5.9205,5.9205,5.9205,5.9205,5.9205,5.9205,5.9205,5.9205,5.7761,5.626,5.5049,5.3462,5.2,5.0696,5.0696,4.9818,4.8163,4.6677,4.517,4.3532,4.1907,4.0997,4.0372,3.8489,3.6559,3.4467,3.2489,3.0793,2.8937,2.6758,2.4971,2.3187,2.1035,1.8963,1.7413,1.7413,1.7307,1.68,1.3958,1.29,1.2538,0.9509,0.8677,0.8746,0.8746,0.8864,0.9007,0.9016,0.9077,0.9142,0.8952,0.59,0.3046,0.2855,-0.019,-0.3052,-0.3052,-0.3052,-0.3052,-0.3052,-0.3052,-0.3243,-0.3624,-0.4385,-0.628,-1.0621,-1.1956,-1.3901,-1.7852,-1.8623,-1.8809,-1.8964,-1.9142,-2.0046,-2.2201,-2.4753,-2.8032,-3.2735,-3.3253,-3.3414,-3.3414,-3.3414,-3.3414,-3.3414,-3.3414,-3.3814,-3.4214,-3.4812,-3.5408,-3.5805,-3.6597,-3.7946,-4.0061,-4.215,-4.4436,-4.6915,-4.9197,-5.0519,-5.1086,-5.2064,-5.2723,-5.322,-5.3633,-5.4466,-5.5304,-5.585,-5.6414,-5.6789,6.3418,6.2028,6.0865,6.0624,5.9797,5.9205,5.9205,5.9205,5.9205,5.9205,5.9205,5.9205,5.9205,5.9205,5.9205,5.9205,5.6807,5.5181,5.4916,5.2554,5.0954,5.0696,5.0696,4.9365,4.6507,4.6063,4.517,4.3532,4.1907,4.086,4.0059,3.8507,3.6549,3.4334,3.2648,3.1232,2.9521,2.5865,2.3971,2.3422,1.9662,1.7977,1.7583,1.7583,1.7559,1.7158,1.4262,1.3175,1.2794,0.9631,0.8766,0.884,0.884,0.8918,0.902,0.9093,0.913,0.8763,0.7233,0.4947,0.2665,0.0952,-0.1334,-0.3052,-0.3052,-0.3052,-0.3052,-0.3052,-0.3052,-0.3052,-0.3243,-0.5332,-0.7792,-1.0432,-1.2968,-1.5533,-1.8065,-1.8728,-1.8939,-1.898,-1.9142,-2.0294,-2.2397,-2.6518,-3.023,-3.2762,-3.3253,-3.3414,-3.3414,-3.3414,-3.3414,-3.3414,-3.3814,-3.4214,-3.4812,-3.5408,-3.5607,-3.5805,-3.7931,-4.0061,-4.215,-4.4246,-4.6542,-4.9012,-4.9951,-5.0519,-5.1066,-5.1713,-5.2433,-5.3199,-5.3282,-5.4195,-5.5304,-5.585,-5.6414,-5.6789,6.2814,6.1555,6.0531,6.0043,5.9578,5.9205,5.9205,5.9205,5.9317,5.9598,5.9654,5.9767,6.0076,6.0104,5.9992,5.9683,5.695,5.5229,5.4942,5.2278,5.0696,5.0696,4.9961,4.8453,4.5915,4.517,4.3987,4.235,4.1618,4.0704,3.9921,3.77,3.5742,3.4123,3.2062,3.0643,2.9721,2.5558,2.3871,2.3497,1.9568,1.7843,1.777,1.777,1.7167,1.6181,1.399,1.2346,1.0876,0.936,0.886,0.8938,0.8938,0.8999,0.9081,0.913,0.9142,0.8569,0.6663,0.4567,0.2475,0.0571,-0.1525,-0.3052,-0.3052,-0.3052,-0.3052,-0.3052,-0.3052,-0.3052,-0.3052,-0.552,-0.8167,-1.0243,-1.337,-1.6173,-1.8375,-1.8818,-1.9013,-1.9102,-1.9199,-2.0733,-2.4167,-2.8708,-3.1823,-3.3173,-3.332,-3.3414,-3.3414,-3.3414,-3.3614,-3.3814,-3.4014,-3.4612,-3.5408,-3.5607,-3.6385,-3.7734,-3.9089,-4.0819,-4.2724,-4.5002,-4.7493,-4.9971,-5.0519,-5.0884,-5.1429,-5.161,-5.235,-5.3178,-5.3364,-5.4464,-5.5661,-5.6226,-5.6789,-5.7163,6.191,6.0957,6.0165,5.9329,5.9205,5.9205,5.9205,5.9205,5.943,6.0048,6.0132,6.0385,6.1031,6.1088,6.0734,5.9918,5.7488,5.5595,5.4697,5.2213,5.0696,5.0696,4.9198,4.7558,4.5937,4.4289,4.281,4.1172,4.1172,4.0529,3.943,3.6713,3.4903,3.3785,3.1035,2.9913,2.9734,2.5696,2.4054,2.3687,1.9834,1.8087,1.7965,1.7965,1.6942,1.535,1.3878,1.1494,0.8913,0.8901,0.8954,0.9028,0.9011,0.9069,0.9142,0.9142,0.9142,0.8573,0.628,0.4377,0.2475,-0.0,-0.1906,-0.3052,-0.3052,-0.3052,-0.3052,-0.3052,-0.3052,-0.3243,-0.3623,-0.6087,-0.8739,-1.0834,-1.3792,-1.6627,-1.8552,-1.8923,-1.9086,-1.924,-2.0097,-2.2227,-2.6584,-3.0665,-3.3146,-3.3387,-3.3414,-3.3414,-3.3414,-3.3414,-3.3814,-3.4214,-3.4413,-3.4812,-3.5805,-3.5805,-3.716,-3.9673,-4.0061,-4.1205,-4.3296,-4.5961,-4.8235,-5.0337,-5.0884,-5.1429,-5.1791,-5.1791,-5.235,-5.3178,-5.3713,-5.4837,-5.6038,-5.6602,-5.7163,-5.7514,6.0986,6.0043,5.9329,5.9205,5.9205,5.9205,5.9205,5.9205,5.943,6.0048,6.0132,6.0385,6.1031,6.1088,6.0515,5.9144,5.7037,5.5235,5.381,5.1901,5.0696,5.0696,4.9198,4.7558,4.5937,4.4289,4.281,4.1172,4.1172,4.0021,3.7614,3.622,3.4229,3.194,3.0519,2.9913,2.9734,2.5696,2.4054,2.3687,1.9834,1.816,1.8144,1.8144,1.7188,1.5673,1.4177,1.1736,0.9093,0.9016,0.9048,0.9109,0.9032,0.9069,0.9142,0.9142,0.9142,0.8189,0.4377,0.3236,0.2094,-0.1716,-0.286,-0.3052,-0.3052,-0.3052,-0.3052,-0.3052,-0.3052,-0.3623,-0.5332,-0.8167,-1.0838,-1.3031,-1.6245,-1.836,-1.8923,-1.9102,-1.9232,-1.9256,-2.2879,-2.6374,-2.906,-3.1765,-3.3374,-3.3414,-3.3414,-3.3414,-3.3414,-3.3814,-3.4214,-3.4214,-3.5011,-3.5607,-3.5805,-3.6202,-3.7568,-3.9673,-4.1381,-4.3296,-4.5397,-4.8069,-4.9584,-5.0337,-5.0884,-5.1429,-5.1791,-5.1791,-5.235,-5.3178,-5.3713,-5.4837,-5.6017,-5.6976,-5.7536,-5.7514,6.0745,5.9797,5.9205,5.9205,5.9205,5.9205,5.9205,5.9205,5.957,6.0554,6.0666,6.1031,6.2015,6.2127,6.1406,5.9533,5.7724,5.5934,5.3683,5.2079,5.1008,5.072,4.8308,4.6677,4.5915,4.3553,4.1907,4.1172,4.1172,3.9864,3.7277,3.6055,3.406,3.1611,3.0519,2.9913,2.9734,2.5696,2.4054,2.3687,1.9834,1.8176,1.8176,1.8176,1.6673,1.4416,1.1972,1.0275,0.9138,0.9097,0.9109,0.9138,0.9097,0.9109,0.9142,0.9142,0.9142,0.8189,0.4187,0.3046,0.2094,-0.2097,-0.3052,-0.3052,-0.3052,-0.3052,-0.3052,-0.3052,-0.3052,-0.3623,-0.5713,-0.8584,-1.1482,-1.3638,-1.6736,-1.8891,-1.8972,-1.9142,-1.9882,-2.1155,-2.5366,-2.8451,-2.9719,-3.2016,-3.3414,-3.3414,-3.3414,-3.3414,-3.3414,-3.3814,-3.4413,-3.4612,-3.5408,-3.6004,-3.6202,-3.7553,-3.9283,-4.1381,-4.3487,-4.502,-4.6336,-4.8828,-5.0337,-5.0702,-5.1248,-5.161,-5.1791,-5.1791,-5.235,-5.3364,-5.4082,-5.5394,-5.6976,-5.7349,-5.7514,-5.7514]},{"header":{"parameterUnit":"m.s-1","parameterCategory":1,"la1":30.6,"la2":28.766,"lo1":-90.7593,"lo2":-88.6598,"dx":0.0162,"dy":0.0183,"nx":116,"ny":114,"refTime":"2022-12-11T18:00:00:Z","depth":0,"parameterNumber":3,"parameterNumberName":"V-component_of_WINDS"},"data":[0.0,0.0,0.0,0.0,0.0,0.0,0.0,0.0,0.0,0.0,0.0,0.0,0.0,0.0,0.0,0.0,0.0,0.0,0.0,0.0,0.0,0.0,0.0,0.0,0.0,0.0,0.0,0.0,0.0,0.0,0.0,0.0,0.0,0.0,0.0,0.0,0.0,0.0,0.0,0.0,0.0,0.0,0.0,0.0,0.0,0.0,0.0,0.0,0.0,0.0,0.0,0.0,0.0,0.0,0.0,0.0,0.0,0.0,0.0,0.0,0.0,0.0,0.0,0.0,0.0,0.0,0.0,0.0,0.0,0.0,0.0,0.0,0.0,0.0,0.0,0.0,0.0,0.0,0.0,0.0,0.0,0.0,0.0,0.0,0.0,0.0,0.0,0.0,0.0,0.0,0.0,0.0,0.0,0.0,0.0,0.0,0.0,0.0,0.0,0.0,0.0,0.0,0.0,0.0,0.0,0.0,0.0,0.0,0.0,0.0,0.0,0.0,0.0,0.0,0.0,0.0,0.0,0.0,0.0,0.0,0.0,0.0,0.0,0.0,0.0,0.0,0.0,0.0,0.0,0.0,0.0,0.0,0.0,0.0,0.0,0.0,0.0,0.0,0.0,0.0,0.0,0.0,0.0,0.0,0.0,0.0,0.0,0.0,0.0,0.0,0.0,0.0,0.0,0.0,0.0,0.0,0.0,0.0,0.0,0.0,0.0,0.0,0.0,0.0,0.0,0.0,0.0,0.0,0.0,0.0,0.0,0.0,0.0,0.0,0.0,0.0,0.0,0.0,0.0,0.0,0.0,0.0,0.0,0.0,0.0,0.0,0.0,0.0,0.0,0.0,0.0,0.0,0.0,0.0,0.0,0.0,0.0,0.0,0.0,0.0,0.0,0.0,0.0,0.0,0.0,0.0,0.0,0.0,0.0,0.0,0.0,0.0,0.0,0.0,0.0,0.0,0.0,0.0,0.0,0.0,0.0,0.0,0.0,0.0,0.0,0.0,0.0,0.0,0.0,0.0,0.0,0.0,0.0,0.0,0.0,0.0,0.0,0.0,0.0,0.0,0.0,0.0,0.0,0.0,0.0,0.0,0.0,0.0,0.0,0.0,0.0,0.0,0.0,0.0,0.0,0.0,0.0,0.0,0.0,0.0,0.0,0.0,0.0,0.0,0.0,0.0,0.0,0.0,0.0,0.0,0.0,0.0,0.0,0.0,0.0,0.0,0.0,0.0,0.0,0.0,0.0,0.0,0.0,0.0,0.0,0.0,0.0,0.0,0.0,0.0,0.0,0.0,0.0,0.0,0.0,0.0,0.0,0.0,0.0,0.0,0.0,0.0,0.0,0.0,0.0,0.0,0.0,0.0,0.0,0.0,0.0,0.0,0.0,0.0,0.0,0.0,0.0,0.0,0.0,0.0,0.0,0.0,0.0,0.0,0.0,0.0,0.0,0.0,0.0,0.0,0.0,0.0,0.0,0.0,0.0,0.0,0.0,0.0,0.0,0.0,0.0,0.0,0.0,0.0,0.0,0.0,0.0,0.0,0.0,0.0,0.0,0.0,0.0,0.0,0.0,0.0,0.0,0.0,0.0,0.0,0.0,0.0,0.0,0.0,0.0,0.0,0.0,0.0,0.0,0.0,0.0,0.0,0.0,0.0,0.0,0.0,0.0,0.0,0.0,0.0,0.0,0.0,0.0,0.0,0.0,0.0,0.0,0.0,0.0,0.0,0.0,0.0,0.0,0.0,0.0,0.0,0.0,0.0,0.0,0.0,0.0,0.0,0.0,0.0,0.0,0.0,0.0,0.0,0.0,0.0,0.0,0.0,0.0,0.0,0.0,0.0,0.0,0.0,0.0,0.0,0.0,0.0,0.0,0.0,0.0,0.0,0.0,0.0,0.0,0.0,0.0,0.0,0.0,0.0,0.0,0.0,0.0,0.0,0.0,0.0,0.0,0.0,0.0,0.0,0.0,0.0,0.0,0.0,0.0,0.0,0.0,0.0,0.0,0.0,0.0,0.0,0.0,0.0,0.0,0.0,0.0,0.0,0.0,0.0,0.0,0.0,0.0,0.0,0.0,0.0,0.0,0.0,0.0,0.0,0.0,0.0,0.0,0.0,0.0,0.0,0.0,0.0,0.0,0.0,0.0,0.0,0.0,0.0,0.0,0.0,0.0,0.0,0.0,0.0,0.0,0.0,0.0,0.0,0.0,0.0,0.0,0.0,0.0,0.0,0.0,0.0,0.0,0.0,0.0,0.0,0.0,0.0,0.0,0.0,0.0,0.0,0.0,0.0,0.0,0.0,0.0,0.0,0.0,0.0,0.0,0.0,0.0,0.0,0.0,0.0,0.0,0.0,0.0,0.0,0.0,0.0,0.0,0.0,0.0,0.0,0.0,0.0,0.0,0.0,0.0,0.0,0.0,0.0,0.0,0.0,0.0,0.0,0.0,0.0,0.0,0.0,0.0,0.0,0.0,0.0,0.0,0.0,0.0,0.0,0.0,0.0,0.0,0.0,0.0,0.0,0.0,0.0,0.0,0.0,0.0,0.0,0.0,0.0,0.0,0.0,0.0,0.0,0.0,0.0,0.0,0.0,0.0,0.0,0.0,0.0,0.0,0.0,0.0,0.0,0.0,0.0,0.0,0.0,0.0,0.0,0.0,0.0,0.0,0.0,0.0,0.0,0.0,0.0,0.0,0.0,0.0,0.0,0.0,0.0,0.0,0.0,0.0,0.0,0.0,0.0,0.0,0.0,0.0,0.0,0.0,0.0,0.0,0.0,0.0,0.0,0.0,0.0,0.0,0.0,0.0,0.0,0.0,0.0,0.0,0.0,0.0,0.0,0.0,0.0,0.0,0.0,0.0,0.0,0.0,0.0,0.0,0.0,0.0,0.0,0.0,0.0,0.0,0.0,0.0,0.0,0.0,0.0,0.0,0.0,0.0,0.0,0.0,0.0,0.0,0.0,0.0,0.0,0.0,0.0,0.0,0.0,0.0,0.0,0.0,0.0,0.0,0.0,0.0,0.0,0.0,0.0,0.0,0.0,0.0,0.0,0.0,0.0,0.0,0.0,0.0,0.0,0.0,0.0,0.0,0.0,0.0,0.0,0.0,0.0,0.0,0.0,0.0,0.0,0.0,0.0,0.0,0.0,0.0,0.0,0.0,0.0,0.0,0.0,0.0,0.0,0.0,0.0,0.0,0.0,0.0,0.0,0.0,0.0,0.0,0.0,0.0,0.0,0.0,0.0,0.0,0.0,0.0,0.0,0.0,0.0,0.0,0.0,0.0,0.0,0.0,0.0,0.0,0.0,0.0,0.0,0.0,0.0,0.0,0.0,0.0,0.0,0.0,0.0,0.0,0.0,0.0,0.0,0.0,0.0,0.0,0.0,0.0,0.0,0.0,0.0,0.0,0.0,0.0,0.0,0.0,0.0,0.0,0.0,0.0,0.0,0.0,0.0,0.0,0.0,0.0,0.0,0.0,0.0,0.0,0.0,0.0,0.0,0.0,0.0,0.0,0.0,0.0,0.0,0.0,0.0,0.0,0.0,0.0,0.0,0.0,0.0,0.0,0.0,0.0,0.0,0.0,0.0,0.0,0.0,0.0,0.0,0.0,0.0,0.0,0.0,0.0,0.0,0.0,0.0,0.0,0.0,0.0,0.0,0.0,0.0,0.0,0.0,0.0,0.0,0.0,0.0,0.0,0.0,0.0,0.0,0.0,0.0,0.0,0.0,0.0,0.0,0.0,0.0,0.0,0.0,0.0,0.0,0.0,0.0,0.0,0.0,0.0,0.0,0.0,0.0,0.0,0.0,0.0,0.0,0.0,0.0,0.0,0.0,0.0,0.0,0.0,0.0,0.0,0.0,0.0,0.0,0.0,0.0,0.0,0.0,0.0,0.0,0.0,0.0,0.0,0.0,0.0,0.0,0.0,0.0,0.0,0.0,0.0,0.0,0.0,0.0,0.0,0.0,0.0,0.0,0.0,0.0,0.0,0.0,0.0,0.0,0.0,0.0,0.0,0.0,0.0,0.0,0.0,0.0,0.0,0.0,0.0,0.0,0.0,0.0,0.0,0.0,0.0,0.0,0.0,0.0,0.0,0.0,0.0,0.0,0.0,0.0,0.0,0.0,0.0,0.0,0.0,0.0,0.0,0.0,0.0,0.0,0.0,0.0,0.0,0.0,0.0,0.0,0.0,0.0,0.0,0.0,0.0,0.0,0.0,0.0,0.0,0.0,0.0,0.0,0.0,0.0,0.0,0.0,0.0,0.0,0.0,0.0,0.0,0.0,0.0,0.0,0.0,0.0,0.0,0.0,0.0,0.0,0.0,0.0,0.0,0.0,0.0,0.0,0.0,0.0,0.0,0.0,0.0,0.0,0.0,0.0,0.0,0.0,0.0,0.0,0.0,0.0,0.0,0.0,0.0,0.0,0.0,0.0,0.0,0.0,0.0,0.0,0.0,0.0,0.0,0.0,0.0,0.0,0.0,0.0,0.0,0.0,0.0,0.0,0.0,0.0,0.0,0.0,0.0,0.0,0.0,0.0,0.0,0.0,0.0,0.0,0.0,0.0,0.0,0.0,0.0,0.0,0.0,0.0,0.0,0.0,0.0,0.0,0.0,0.0,0.0,0.0,0.0,0.0,0.0,0.0,0.0,0.0,0.0,0.0,0.0,0.0,0.0,0.0,0.0,0.0,0.0,0.0,0.0,0.0,0.0,0.0,0.0,0.0,0.0,0.0,0.0,0.0,0.0,0.0,0.0,0.0,0.0,0.0,0.0,0.0,0.0,0.0,0.0,0.0,0.0,0.0,0.0,0.0,0.0,0.0,0.0,0.0,0.0,0.0,0.0,0.0,0.0,0.0,0.0,0.0,0.0,0.0,0.0,0.0,0.0,0.0,0.0,0.0,0.0,0.0,0.0,0.0,0.0,0.0,0.0,0.0,0.0,0.0,0.0,0.0,0.0,0.0,0.0,0.0,0.0,0.0,0.0,0.0,0.0,0.0,0.0,0.0,0.0,0.0,0.0,0.0,0.0,0.0,0.0,0.0,0.0,0.0,0.0,0.0,0.0,0.0,0.0,0.0,0.0,0.0,0.0,0.0,0.0,0.0,0.0,0.0,0.0,0.0,0.0,0.0,0.0,0.0,0.0,0.0,0.0,0.0,0.0,0.0,0.0,0.0,0.0,0.0,0.0,0.0,0.0,0.0,0.0,0.0,0.0,0.0,0.0,0.0,0.0,0.0,0.0,0.0,0.0,0.0,0.0,0.0,0.0,0.0,0.0,0.0,0.0,0.0,0.0,0.0,0.0,0.0,0.0,0.0,0.0,0.0,0.0,0.0,0.0,0.0,0.0,0.0,0.0,0.0,0.0,0.0,0.0,0.0,0.0,0.0,0.0,0.0,0.0,0.0,0.0,0.0,0.0,0.0,0.0,0.0,0.0,0.0,0.0,0.0,0.0,0.0,0.0,0.0,0.0,0.0,0.0,0.0,0.0,0.0,0.0,0.0,0.0,0.0,0.0,0.0,0.0,0.0,0.0,0.0,0.0,0.0,0.0,0.0,0.0,0.0,0.0,0.0,0.0,0.0,0.0,0.0,0.0,0.0,0.0,0.0,0.0,0.0,0.0,0.0,0.0,0.0,0.0,0.0,0.0,0.0,0.0,0.0,0.0,0.0,0.0,0.0,0.0,0.0,0.0,0.0,0.0,0.0,0.0,0.0,0.0,0.0,0.0,0.0,0.0,0.0,0.0,0.0,0.0,0.0,0.0,0.0,0.0,0.0,0.0,0.0,0.0,0.0,0.0,0.0,0.0,0.0,0.0,0.0,0.0,0.0,0.0,0.0,0.0,0.0,0.0,0.0,0.0,0.0,0.0,0.0,0.0,0.0,0.0,0.0,0.0,0.0,0.0,0.0,0.0,0.0,0.0,0.0,0.0,0.0,0.0,0.0,0.0,0.0,0.0,0.0,0.0,0.0,0.0,0.0,0.0,0.0,0.0,0.0,0.0,0.0,0.0,0.0,0.0,0.0,0.0,0.0,0.0,0.0,0.0,0.0,0.0,0.0,0.0,0.0,0.0,0.0,0.0,0.0,0.0,0.0,-4.1952,-3.9375,0.0,0.0,0.0,0.0,0.0,0.0,0.0,0.0,0.0,0.0,0.0,0.0,0.0,0.0,0.0,0.0,0.0,0.0,0.0,0.0,0.0,0.0,0.0,-2.0326,-2.0224,-2.0224,-2.0395,0.0,0.0,0.0,0.0,0.0,0.0,0.0,0.0,0.0,-2.0254,-2.0879,-2.1507,-2.2425,-2.3507,-2.2957,-2.2606,-2.2491,0.0,0.0,0.0,0.0,0.0,0.0,0.0,0.0,0.0,0.0,0.0,0.0,0.0,0.0,0.0,0.0,0.0,0.0,0.0,0.0,0.0,0.0,0.0,0.0,0.0,0.0,0.0,0.0,0.0,0.0,0.0,0.0,0.0,0.0,0.0,0.0,0.0,0.0,0.0,0.0,0.0,0.0,0.0,0.0,0.0,0.0,0.0,0.0,0.0,0.0,0.0,0.0,0.0,0.0,0.0,0.0,0.0,0.0,0.0,0.0,0.0,0.0,0.0,0.0,0.0,0.0,0.0,0.0,0.0,0.0,-4.5452,-4.2987,0.0,0.0,0.0,0.0,0.0,0.0,0.0,0.0,0.0,0.0,0.0,0.0,0.0,0.0,0.0,0.0,0.0,0.0,0.0,0.0,0.0,-2.0985,-2.1051,-2.1145,-2.1075,-2.0805,-2.0976,-2.1007,-2.0667,-2.1175,0.0,0.0,0.0,0.0,0.0,-2.0525,-2.1238,-2.1969,-2.3118,-2.4402,-2.5894,-2.6562,-2.6209,-2.4956,-2.3876,0.0,0.0,0.0,0.0,0.0,0.0,0.0,0.0,0.0,0.0,0.0,0.0,0.0,0.0,0.0,0.0,0.0,0.0,0.0,0.0,0.0,0.0,0.0,0.0,0.0,0.0,0.0,0.0,0.0,0.0,0.0,0.0,0.0,0.0,0.0,0.0,0.0,0.0,0.0,0.0,0.0,0.0,0.0,0.0,0.0,0.0,0.0,0.0,0.0,0.0,0.0,0.0,0.0,0.0,0.0,0.0,0.0,0.0,0.0,0.0,0.0,0.0,0.0,-4.9861,-5.1035,-5.2524,-5.2531,-5.2724,-5.2844,-4.9201,-4.725,-4.6516,-4.4815,0.0,0.0,0.0,0.0,0.0,0.0,0.0,0.0,0.0,0.0,0.0,0.0,0.0,0.0,0.0,0.0,0.0,0.0,0.0,-2.1784,-2.215,-2.2463,-2.2745,-2.302,-2.2741,-2.2497,-2.2461,-2.2201,0.0,0.0,0.0,0.0,-2.1744,-2.2134,-2.2884,-2.394,-2.6038,-2.7482,-2.8242,-2.8882,-2.9348,-2.9608,-2.6996,-2.5687,-2.5319,0.0,0.0,0.0,0.0,0.0,0.0,0.0,0.0,0.0,0.0,0.0,0.0,0.0,0.0,0.0,0.0,0.0,0.0,0.0,0.0,0.0,0.0,0.0,0.0,0.0,0.0,0.0,0.0,0.0,0.0,0.0,0.0,0.0,0.0,0.0,0.0,0.0,0.0,0.0,0.0,0.0,-3.2783,-3.3233,0.0,0.0,0.0,0.0,0.0,0.0,0.0,0.0,0.0,0.0,0.0,0.0,0.0,-4.6688,-4.9161,-4.9149,-4.9939,-5.1625,-5.2357,-5.3243,-5.4205,-5.4916,-5.4866,-5.433,-5.3671,0.0,-4.9951,-4.8674,0.0,0.0,0.0,0.0,0.0,0.0,0.0,0.0,0.0,0.0,0.0,0.0,0.0,0.0,0.0,0.0,0.0,0.0,0.0,0.0,0.0,-2.3522,-2.3618,-2.3756,-2.3709,-2.36,-2.3474,-2.3717,0.0,0.0,0.0,-2.367,-2.302,-2.3932,-2.5193,-2.6769,-2.8824,-3.0016,-3.0277,-3.0945,-3.1409,-3.1613,-3.0367,-2.8928,-2.7358,-2.6403,0.0,0.0,0.0,0.0,0.0,0.0,0.0,0.0,0.0,0.0,0.0,0.0,0.0,0.0,0.0,0.0,0.0,0.0,0.0,0.0,0.0,0.0,0.0,0.0,0.0,0.0,0.0,0.0,0.0,0.0,0.0,0.0,0.0,0.0,0.0,0.0,0.0,0.0,0.0,-3.398,-3.5813,-3.5976,-3.7682,-3.8975,0.0,0.0,0.0,0.0,0.0,0.0,0.0,0.0,0.0,-4.8233,-4.9088,-5.0296,-5.1865,-5.2189,-5.3205,-5.4863,-5.5168,-5.628,-5.805,-5.8067,-5.8397,-5.8774,-5.7901,-5.6818,-5.5356,-5.2007,-5.0787,-5.0854,0.0,0.0,0.0,0.0,-4.8751,-4.8746,0.0,0.0,0.0,0.0,0.0,0.0,0.0,0.0,0.0,0.0,0.0,0.0,-2.4687,-2.4875,-2.4995,-2.5142,-2.5173,-2.5129,-2.4984,-2.557,-2.578,-2.5419,-2.5894,-2.5728,-2.4702,-2.6063,-2.7639,-2.9406,-3.1322,-3.2251,-3.228,-3.3093,-3.3499,-3.3499,-3.3499,-3.1961,-2.9377,-2.8884,-2.7578,-2.5807,0.0,0.0,0.0,0.0,0.0,0.0,0.0,0.0,0.0,0.0,0.0,0.0,0.0,0.0,0.0,0.0,0.0,0.0,0.0,0.0,0.0,0.0,0.0,0.0,0.0,0.0,0.0,0.0,0.0,0.0,0.0,0.0,0.0,0.0,0.0,0.0,0.0,-3.6692,-3.8588,-3.8733,-4.0954,-4.2533,0.0,0.0,0.0,0.0,0.0,0.0,-4.7489,-4.8945,-5.0111,-5.091,-5.2242,-5.3443,-5.4429,-5.5114,-5.6319,-5.7973,-5.8204,-5.9396,-6.1435,-6.1015,-6.1393,-6.2291,-6.1164,-6.0555,-5.9936,-5.5397,-5.3649,-5.3743,-5.272,-5.2471,-5.2597,-5.239,-5.2344,-5.238,0.0,0.0,0.0,0.0,0.0,0.0,0.0,0.0,0.0,0.0,0.0,-2.5349,-2.6039,-2.6773,-2.7519,-2.8154,-2.7783,-2.7538,-2.7489,-2.7862,-2.7893,-2.7579,-2.7893,-2.7844,-2.73,-2.8697,-3.0045,-3.138,-3.3325,-3.4254,-3.4283,-3.5532,-3.6112,-3.6112,-3.6112,-3.4341,-3.138,-3.1351,-3.0219,-2.8419,-2.7839,0.0,0.0,0.0,0.0,0.0,0.0,0.0,0.0,0.0,0.0,0.0,0.0,0.0,0.0,0.0,0.0,0.0,0.0,0.0,0.0,0.0,0.0,0.0,0.0,0.0,0.0,0.0,0.0,0.0,0.0,0.0,0.0,0.0,0.0,0.0,0.0,0.0,0.0,-4.1639,-4.3349,0.0,0.0,0.0,0.0,-4.9372,-4.9658,-5.0144,-5.1094,-5.1953,-5.2847,-5.3756,-5.4422,-5.554,-5.7172,-5.7796,-5.8934,-6.0627,-6.1435,-6.232,-6.3166,-6.3092,-6.3024,-6.3012,-6.2899,-6.2742,-6.2365,-5.9061,-5.7703,-5.7675,-5.6822,-5.6492,-5.6492,-5.6492,-5.6492,-5.6602,0.0,0.0,0.0,-2.0761,-2.099,-2.1375,-2.2052,-2.2505,-2.3227,-2.4641,-2.5416,-2.6454,-2.8083,-2.8556,-2.9031,-2.9675,-2.964,-2.9451,-2.9064,-2.9946,-3.0361,-3.0207,-3.1097,-3.1457,-3.1141,-3.178,-3.2513,-3.3383,-3.4893,-3.5851,-3.6286,-3.6751,-3.7157,-3.7535,-3.7535,-3.6664,-3.5154,-3.3906,-3.2513,-3.109,-3.0422,-2.9029,0.0,0.0,0.0,0.0,0.0,0.0,0.0,0.0,0.0,0.0,0.0,0.0,0.0,0.0,0.0,0.0,0.0,0.0,0.0,0.0,0.0,0.0,0.0,0.0,0.0,0.0,0.0,0.0,0.0,0.0,0.0,0.0,0.0,0.0,0.0,0.0,0.0,-4.5079,-4.6781,0.0,-4.9121,-4.9518,-5.0251,-5.1531,-5.2223,-5.2962,-5.3852,-5.5218,-5.611,-5.6411,-5.8081,-5.923,-5.9852,-6.0962,-6.182,-6.2435,-6.3281,-6.4103,-6.4859,-6.4794,-6.4969,-6.5384,-6.4741,-6.4439,-6.4347,-6.3172,-6.2071,-6.108,-6.0786,-6.0676,-6.0676,-6.0676,-6.0676,-6.0713,0.0,-2.046,0.0,-2.0958,-2.1246,-2.1786,-2.276,-2.3321,-2.4216,-2.5865,-2.6655,-2.7759,-2.9438,-2.9833,-3.0241,-3.1072,-3.1216,-3.1214,-3.1131,-3.2099,-3.2625,-3.2407,-3.2895,-3.3333,-3.3577,-3.378,-3.4312,-3.5386,-3.6431,-3.7273,-3.7941,-3.8144,-3.8463,-3.8841,-3.8841,-3.8609,-3.8144,-3.6664,-3.5038,-3.3412,-3.2774,-3.1496,-2.9959,0.0,0.0,0.0,0.0,0.0,0.0,0.0,0.0,0.0,0.0,0.0,0.0,0.0,0.0,0.0,0.0,0.0,0.0,0.0,0.0,0.0,0.0,0.0,0.0,0.0,0.0,0.0,0.0,0.0,0.0,0.0,0.0,0.0,0.0,-4.4727,-4.6673,-4.7766,-4.9509,-5.0959,-5.1812,-5.223,-5.2957,-5.4229,-5.492,-5.5669,-5.6528,-5.8207,-5.9104,-5.9104,-6.1039,-6.2065,-6.2065,-6.3471,-6.4166,-6.4205,-6.5295,-6.6115,-6.6573,-6.645,-6.6673,-6.7074,-6.6705,-6.6529,-6.6549,-6.6806,-6.6256,-6.5191,-6.4383,-6.4053,-6.409,-6.4347,-6.4457,-6.4457,-2.0662,-2.0794,-2.0925,-2.1246,-2.162,-2.2062,-2.2824,-2.4183,-2.5304,-2.5844,-2.7615,-2.9166,-3.0103,-3.0592,-3.1331,-3.2489,-3.2571,-3.2956,-3.3698,-3.4411,-3.4527,-3.3999,-3.3268,-3.3346,-3.4457,-3.4516,-3.5444,-3.7331,-3.7941,-3.8609,-3.9276,-3.9857,-4.0147,-4.0147,-4.0147,-4.0147,-4.0089,-3.9509,-3.7796,-3.5444,-3.4777,-3.3732,-3.2605,0.0,0.0,0.0,0.0,0.0,0.0,0.0,0.0,0.0,0.0,0.0,0.0,0.0,0.0,0.0,0.0,0.0,0.0,0.0,0.0,0.0,0.0,0.0,0.0,0.0,0.0,0.0,0.0,0.0,0.0,0.0,0.0,0.0,-4.5201,-4.674,-4.8392,-4.9727,-5.1425,-5.2873,-5.3766,-5.4702,-5.5946,-5.7664,-5.7849,-5.8285,-5.9183,-6.0822,-6.1759,-6.1754,-6.3114,-6.3867,-6.3852,-6.5247,-6.5936,-6.6013,-6.7587,-6.8367,-6.8339,-6.8195,-6.8057,-6.8053,-6.8753,-6.9022,-6.9009,-6.9779,-7.011,-6.9853,-6.754,-6.6623,-6.6696,-6.7467,-6.776,-6.776,-2.0326,-2.0795,-2.1183,-2.1277,-2.2013,-2.2857,-2.3586,-2.4944,-2.6425,-2.7938,-2.8831,-3.0037,-3.1933,-3.24,-3.303,-3.4145,-3.4655,-3.4967,-3.4941,-3.521,-3.5486,-3.5738,-3.598,-3.6165,-3.632,-3.7334,-3.7856,-3.7941,-3.9044,-3.9915,-4.0583,-4.0757,-4.1076,-4.1541,-4.1541,-4.1279,-4.0815,-4.0641,-3.9886,-3.8667,-3.7128,-3.5985,-3.5156,0.0,0.0,0.0,0.0,0.0,0.0,0.0,0.0,0.0,0.0,0.0,0.0,0.0,0.0,0.0,0.0,0.0,0.0,0.0,0.0,0.0,0.0,0.0,0.0,0.0,0.0,0.0,0.0,0.0,0.0,0.0,-4.6353,-4.7571,-4.7375,-4.8938,-5.096,-5.3288,-5.4531,-5.5786,-5.7263,-5.7736,-5.8402,-5.9499,-5.9646,-6.0354,-6.1837,-6.2384,-6.287,-6.3358,-6.4273,-6.497,-6.547,-6.6314,-6.709,-6.7744,-6.8702,-6.9491,-7.0017,-7.0167,-7.0346,-7.048,-7.0378,-7.0101,-6.9779,-7.0,-7.011,-7.0036,-6.9376,-6.9119,-6.9119,-6.9339,-6.9449,-6.9449,-2.0395,-2.0827,-2.1119,-2.1277,-2.2177,-2.3156,-2.3884,-2.5508,-2.7085,-2.8306,-2.9388,-3.074,-3.2547,-3.3236,-3.406,-3.5431,-3.5983,-3.6322,-3.6519,-3.6742,-3.6966,-3.7188,-3.7299,-3.7526,-3.7961,-3.8413,-3.8986,-3.9421,-4.0147,-4.1004,-4.1887,-4.1887,-4.2254,-4.285,-4.285,-4.2643,-4.2258,-4.2258,-4.1873,-4.124,-4.0143,-3.875,-3.7446,-3.7496,-3.6846,-3.5944,-3.5697,-3.492,-3.3846,-3.2835,0.0,0.0,0.0,0.0,0.0,0.0,0.0,0.0,0.0,0.0,0.0,0.0,0.0,0.0,0.0,0.0,0.0,0.0,0.0,0.0,0.0,0.0,0.0,0.0,-4.8844,-5.0474,-5.0815,-5.1824,-5.3406,-5.5812,-5.6835,-5.7884,-5.9205,-5.9451,-6.0041,-6.1256,-6.1443,-6.2071,-6.3477,-6.3906,-6.4437,-6.5137,-6.579,-6.6484,-6.727,-6.788,-6.8602,-6.9421,-7.0143,-7.0929,-7.172,-7.1846,-7.1749,-7.1531,-7.1593,-7.1227,-7.0624,-7.0954,-7.1101,-7.1064,0.0,0.0,0.0,0.0,-7.1101,-7.1138,-2.0662,-2.0827,-2.0958,-2.1309,-2.2274,-2.3255,-2.3918,-2.5938,-2.7509,-2.7794,-2.9546,-3.1228,-3.2416,-3.3322,-3.4516,-3.6168,-3.663,-3.7203,-3.7937,-3.8316,-3.8367,-3.8091,-3.7698,-3.8031,-3.9106,-3.8839,-3.9518,-4.1105,-4.1244,-4.1917,-4.3019,-4.3019,-4.3289,-4.3904,-4.3904,-4.3904,-4.3983,-4.3983,-4.3728,-4.3335,-4.3411,-4.1866,-3.9529,-3.9886,-3.9268,-3.8246,-3.796,-3.7417,-3.669,-3.5236,0.0,0.0,0.0,0.0,0.0,0.0,0.0,0.0,0.0,0.0,0.0,0.0,0.0,0.0,0.0,0.0,0.0,0.0,0.0,0.0,0.0,0.0,0.0,0.0,-5.1358,-5.356,-5.4959,-5.5171,-5.5857,-5.7677,-5.8506,-5.9283,-6.0176,-6.0434,-6.1217,-6.2701,-6.3005,-6.3516,-6.4414,-6.5273,0.0,0.0,0.0,-6.8163,-6.9001,-6.9571,-7.019,-7.0979,-7.1697,-7.2448,-7.3226,-7.3165,-7.2662,-7.1921,-7.2545,-7.2311,-7.1561,-7.2202,-7.2569,-7.2569,-7.1762,-7.1505,-7.1688,-7.2386,-7.2679,-7.2863,-2.0662,-2.1023,-2.1309,-2.1648,-2.2859,-2.3851,-2.3984,-2.6369,-2.8345,-2.8715,-2.9832,-3.1208,-3.2663,-3.3264,-3.4182,-3.5674,-3.6714,-3.7326,-3.7504,-3.7591,-3.7582,-3.7503,-3.8681,-3.9349,-3.9215,-4.1053,-4.1692,-4.1105,-4.2166,-4.2725,-4.2956,-4.2956,-4.3332,-4.3943,-4.3943,-4.4251,-4.4803,-4.4803,-4.5071,-4.5434,-4.5957,-4.4569,-4.2078,-4.1651,-4.1591,-4.1582,-4.0451,-3.9914,-3.9566,-3.8175,-3.7322,-3.6722,-3.6026,-3.5916,0.0,0.0,0.0,0.0,0.0,0.0,0.0,0.0,0.0,0.0,0.0,0.0,0.0,0.0,0.0,0.0,0.0,0.0,0.0,-5.2361,-5.391,-5.5782,-5.8256,-5.8625,-5.8895,-5.9527,-5.9749,-6.0176,-6.107,-6.1876,-6.2466,-6.2779,-6.3591,-6.4414,-6.5312,-6.6131,-6.6889,-6.7647,-6.8319,-6.9007,-6.9691,-7.0311,-7.1017,-7.1862,-7.2556,0.0,-7.4074,-7.4006,-7.4028,-7.409,-7.3853,-7.3452,-7.2865,-7.265,-7.2899,-7.3377,-7.2569,-7.2679,-7.323,-7.3413,-7.3891,-7.4478,-2.0429,-2.0827,-2.1214,-2.1738,-2.3023,-2.4017,-2.4017,-2.617,-2.8015,-2.8436,-2.9419,-3.0798,-3.2724,-3.3379,-3.446,-3.6533,-3.7323,-3.7796,-3.7886,-3.8182,-3.8206,-3.7983,-3.9872,-4.0667,-4.0088,-4.165,-4.2179,-4.1599,-4.2538,-4.3307,-4.3961,-4.4288,-4.4945,-4.593,-4.593,-4.6092,-4.6413,-4.6413,-4.6652,-4.6998,-4.7309,-4.6354,-4.4799,-4.4038,-4.356,-4.3042,-4.2031,-4.1652,-4.143,-4.004,-3.9313,-3.8902,-3.8175,-3.8004,-3.7978,0.0,0.0,0.0,0.0,0.0,0.0,0.0,0.0,0.0,0.0,0.0,0.0,0.0,0.0,-4.7815,-4.9419,0.0,-5.2986,-5.4836,-5.6422,-5.7935,-5.9395,-6.0036,-6.0437,-6.073,-6.0759,-6.1097,-6.2029,-6.2524,-6.3178,-6.4092,-6.5031,-6.5936,-6.6795,-6.7654,-6.8405,-6.9128,-6.9809,-7.0484,-7.1175,-7.1761,-7.2485,-7.33,-7.3597,-7.4112,-7.492,-7.4886,-7.5017,-7.5349,-7.4839,-7.4586,-7.4434,-7.3901,-7.3964,-7.4258,-7.3854,-7.3964,-7.4294,-7.4294,-7.4551,-7.4955,-2.0588,-2.0902,-2.1341,-2.1847,-2.3091,-2.405,-2.4183,-2.5971,-2.7491,-2.7991,-2.8919,-3.0325,-3.2417,-3.3223,-3.4723,-3.7351,-3.7592,-3.7809,-3.8375,-3.8774,-3.89,-3.8673,-4.0677,-4.1565,-4.102,-4.187,-4.2237,-4.2092,-4.2923,-4.3938,-4.4981,-4.5647,-4.6609,-4.7903,-4.7903,-4.7949,-4.8103,-4.8103,-4.8211,-4.8288,-4.8288,-4.7782,-4.6961,-4.6424,-4.5317,-4.399,-4.3327,-4.3074,-4.2884,-4.1462,-4.0893,-4.0672,-4.004,-3.9735,-3.9532,-3.9694,-3.9614,0.0,0.0,0.0,0.0,0.0,0.0,0.0,0.0,-4.5947,-4.6653,-4.8999,-4.9616,-5.0478,-5.2817,-5.3926,-5.5075,-5.6828,-5.8374,-5.9527,-5.9819,-6.0712,-6.1436,-6.1638,-6.1652,-6.2005,-6.2941,-6.3201,-6.3962,-6.5623,-6.655,-6.742,-6.8318,-6.9176,-6.9972,-7.0678,-7.1325,-7.1997,-7.2788,-7.3262,-7.3806,-7.4504,-7.4681,-7.5111,-7.573,-7.5921,-7.6122,-7.6382,-7.5705,-7.5458,-7.555,-7.5058,-7.4992,-7.5139,-7.5139,-7.5249,-7.5359,-7.5212,-7.5249,-7.5469,-2.1926,-2.2306,-2.2547,-2.2378,-2.326,-2.4216,-2.4878,-2.6303,-2.7528,-2.829,-2.9004,-2.9984,-3.125,-3.2347,-3.4143,-3.7025,-3.6258,-3.6397,-3.8286,-3.8247,-3.8315,-3.8673,-4.072,-4.1535,-4.105,-4.2784,-4.316,-4.2092,-4.3826,-4.483,-4.4989,-4.5645,-4.6611,-4.7943,-4.7943,-4.8275,-4.8767,-4.8767,-4.909,-4.971,-4.971,-4.892,-4.7751,-4.7688,-4.6803,-4.5476,-4.4749,-4.4496,-4.4275,-4.2916,-4.2031,-4.1466,-4.1305,-4.1161,-4.1189,-4.1769,-4.2279,-4.2541,-4.1802,-4.2509,-4.3411,-4.3286,-4.5096,-4.7171,0.0,-4.8163,-4.9002,-5.1045,-5.2272,-5.3631,-5.5744,-5.6866,-5.7745,-5.8689,-5.9141,-5.9719,-6.0629,-6.1602,-6.2327,-6.2531,-6.2546,-6.2896,-6.3779,-6.4614,-6.5512,-6.6497,-6.7418,-6.8357,-6.9215,-7.0074,-7.0928,-7.178,-7.2263,-7.2888,-7.3816,-7.4071,-7.4287,-7.4542,-7.5834,-7.6456,-7.657,-7.7373,-7.7719,-7.7721,-7.679,-7.5865,-7.5,-7.4918,-7.5322,-7.5983,-7.5983,-7.6423,-7.6974,-7.624,-7.6423,-7.7047,-2.1892,-2.2179,-2.2549,-2.2865,-2.387,-2.4678,-2.4767,-2.5829,-2.6899,-2.7665,-2.8063,-2.8895,-3.0596,-3.2751,-3.4576,-3.5742,-3.5951,-3.6495,-3.7672,-3.7561,-3.7816,-3.8673,-4.0017,-4.0958,-4.152,-4.2789,-4.3301,-4.317,-4.4357,-4.5342,-4.6142,-4.6762,-4.7763,-4.9066,-4.9066,-4.9259,-4.9501,-4.9501,-4.9661,-4.99,-4.9489,-4.8762,-4.7846,-4.7403,-4.6392,-4.5191,-4.5317,-4.5065,0.0,-4.3611,-4.2821,-4.2227,-4.2171,-4.2037,-4.2185,-4.3238,-4.3697,-4.3988,-4.4694,-4.5269,-4.5918,-4.6794,-4.8279,-4.9793,-5.0908,-5.1621,-5.2564,-5.4306,-5.5446,-5.6652,-5.8491,-5.9109,-5.9606,-6.0408,-6.0392,-6.0602,-6.1537,-6.218,-6.2952,-6.4007,-6.4605,-6.4867,-6.4765,-6.5613,-6.654,-6.7377,-6.8817,-6.9762,-7.0152,-7.148,-7.232,-7.2587,-7.3596,-7.4305,-7.4513,-7.5438,-7.5896,-7.5901,-7.6985,-7.7449,-7.7487,-7.7831,-7.8104,-7.8288,-7.8328,-7.7729,-7.6733,-7.6733,-7.6818,-7.6827,-7.6827,-7.7011,-7.7268,-7.6937,-7.7011,-7.7304,-2.2203,-2.2525,-2.2915,-2.3335,-2.4372,-2.513,-2.481,-2.5589,-2.6468,-2.7201,-2.73,-2.8092,-3.0278,-3.2431,-3.4021,-3.4816,-3.5408,-3.6102,-3.7021,-3.706,-3.7428,-3.8364,-3.9579,-4.0659,-4.1534,-4.2419,-4.3137,-4.3654,-4.4478,-4.5462,-4.6609,-4.7291,-4.823,-4.9363,-4.9363,-4.9363,-4.9363,-4.9363,-4.9363,-4.9331,-4.8825,-4.8098,-4.7277,-4.674,-4.5665,-4.4527,-4.5254,-4.5033,-4.4338,-4.3674,-4.321,-4.2969,-4.3102,-4.3224,-4.3547,-4.4948,-4.5309,-4.5494,-4.6719,-4.7618,-4.8514,-4.9779,-5.1087,-5.2417,-5.3592,-5.4326,-5.517,-5.6743,-5.7749,-5.8823,-6.0408,-6.0714,-6.0905,-6.1516,-6.1426,-6.146,-6.2116,-6.2891,-6.3945,-6.5382,-6.6314,-6.6722,-6.64,-6.7,-6.7754,-6.8632,-7.0178,-7.1167,-7.1402,-7.2807,-7.3633,-7.3676,-7.4678,-7.5312,-7.5581,-7.6463,-7.7011,-7.7245,-7.7982,-7.8366,-7.8366,-7.8596,-7.8751,-7.8874,-7.9443,-7.9123,-7.809,-7.809,-7.7768,-7.7304,-7.7304,-7.7304,-7.7304,-7.7304,-7.7304,-7.7304,0.0,-2.3933,-2.4131,-2.3666,-2.4641,-2.5454,-2.5454,-2.5885,-2.6468,-2.7201,-2.73,-2.8092,-3.0278,-3.0609,-3.1802,-3.4651,-3.4201,-3.4558,-3.6413,-3.6888,-3.728,-3.7684,-3.9601,-4.0746,-4.0708,-4.2107,-4.2836,-4.2955,-4.4188,-4.517,-4.5928,-4.6578,-4.7232,-4.7972,-4.7972,-4.7972,-4.7972,-4.7972,-4.7972,-4.7972,-4.794,-4.7119,-4.5855,-4.5855,-4.497,-4.3832,-4.4496,-4.4306,-4.3643,-4.2947,-4.3131,-4.3686,-4.4438,-4.5009,-4.5784,-4.7168,-4.7575,-4.7568,-4.7401,-4.9366,-5.1405,-5.1285,-5.3368,-5.5464,-5.55,-5.5537,-5.6024,-5.7641,-5.8613,-5.9653,-6.1247,-6.1554,-6.1554,-6.1593,-6.1925,-6.2155,-6.2193,-6.3899,-6.546,-6.6353,-6.7247,-6.8098,-6.9011,-6.91,-6.9511,-7.0469,-7.1428,-7.2339,-7.3197,-7.4017,-7.4718,-7.5314,-7.5115,-7.5708,-7.7202,-7.6881,-7.7141,-7.8088,-7.8861,-7.9245,-7.9283,-8.0047,-8.0161,-7.967,-7.9708,-7.9123,-7.809,-7.809,-7.7768,-7.7304,-7.7304,-7.7304,-7.7304,-7.7304,-7.7304,-7.7304,0.0,0.0,-2.3782,-2.3653,-2.443,-2.5098,-2.5098,-2.5701,-2.6303,-2.6535,-2.7002,0.0,0.0,0.0,0.0,0.0,-3.363,-3.4688,-3.5752,-3.6229,-3.705,-3.8457,-3.8302,-3.8908,-4.0567,-4.1168,-4.1876,-4.2802,-4.3631,-4.4391,-4.5123,-4.5845,-4.6485,-4.7182,-4.7688,-4.7909,-4.7877,-4.7372,-4.7182,-4.7087,-4.6139,-4.5507,-4.497,-4.4085,-4.3137,-4.2347,0.0,-4.2821,-4.3011,-4.2758,-4.2812,-4.3132,-4.4306,-4.5102,-4.5953,-4.7876,-4.943,-5.0624,-5.0925,-5.2337,-5.3761,-5.4054,-5.5265,-5.6418,-5.6418,-5.6822,-5.7405,-5.8226,-5.9054,-6.0074,-6.1427,-6.1435,-6.1375,-6.1983,-6.2145,-6.2386,-6.2909,-6.4751,-6.6392,-6.7247,-6.8606,-6.9603,-7.0029,-7.0063,-7.0448,-7.1406,-7.2326,-7.3236,-7.4056,-7.4915,-7.5443,-7.5668,-7.6404,-7.7018,-7.7442,-7.8122,-7.8629,-7.8935,-7.974,-8.0086,-8.0086,-8.0391,-8.0392,-8.0238,-8.0238,-7.9794,-7.9133,-7.8791,-7.8309,-7.7826,-7.7426,-7.7304,-7.7304,-7.7304,-7.7304,-7.7304,0.0,0.0,0.0,-2.3824,-2.442,0.0,0.0,0.0,0.0,0.0,0.0,0.0,0.0,0.0,0.0,0.0,0.0,-3.4136,-3.4836,-3.5754,-3.6844,-3.7993,-3.7839,-3.856,-4.0132,-4.0482,-4.1112,-4.2103,-4.2481,-4.3142,-4.399,-4.4464,-4.5065,-4.5728,-4.6202,-4.6424,-4.636,-4.5886,-4.6108,-4.6645,-4.4749,-4.4275,-4.4496,-4.2631,-4.1494,0.0,-4.083,-4.1146,-4.162,-4.2126,-4.2591,-4.3182,-4.4627,-4.6051,-4.7466,-4.9137,-5.0575,-5.1885,-5.2944,-5.4051,-5.5184,-5.6209,-5.6859,-5.7299,-5.7593,-5.785,-5.8097,-5.8503,-5.9297,-6.0166,-6.1091,-6.1387,-6.1553,-6.1818,-6.247,-6.3168,-6.3797,-6.5606,-6.7315,-6.8567,-6.9927,-7.0953,-7.139,-7.1714,-7.2017,-7.2376,-7.3525,-7.4408,-7.4954,-7.5807,-7.6372,-7.6556,-7.7282,-7.7827,-7.8283,-7.9006,-7.9509,-7.9742,-8.0238,-8.0506,-8.0506,-8.0506,-8.0506,-8.0506,-8.0506,-8.0199,-7.9665,-7.9358,-7.8741,-7.8072,-7.771,-7.745,-7.7304,-7.7304,-7.7304,-7.7304,0.0,0.0,0.0,0.0,0.0,0.0,0.0,0.0,0.0,0.0,0.0,0.0,0.0,0.0,0.0,0.0,0.0,0.0,-3.3673,-3.5454,-3.6507,-3.6501,-3.8309,-3.9314,-3.9314,-3.9968,-4.0498,-4.0926,-4.0927,-4.1501,-4.2604,-4.2568,-4.2916,-4.3548,-4.3611,-4.3611,-4.3611,-4.3548,-4.4654,-4.6234,-4.3579,-4.3295,-4.4148,-4.1494,-4.0072,-3.9439,-3.9439,-3.9439,-3.9661,-4.1116,-4.2522,-4.392,-4.5435,-4.7827,-5.0183,-5.0907,-5.1183,-5.1651,-5.3495,-5.4651,-5.5754,-5.7653,-5.8107,-5.8253,-5.9061,-5.8547,-5.806,-5.8424,-5.9144,-5.9789,-6.0303,-6.1311,-6.1856,-6.1065,-6.2892,-6.4474,-6.4685,-6.6417,-6.8296,-7.0105,-7.1093,-7.2043,-7.299,-7.3939,-7.4171,-7.3476,-7.4915,-7.5813,-7.5852,-7.6692,-7.7424,-7.8014,-7.7778,-7.8307,-7.9702,-7.9493,-7.9742,-8.0506,-8.0506,-8.0506,-8.0506,-8.0506,-8.0506,-8.0506,-8.0506,-8.0199,-7.9751,-7.9708,-7.9085,-7.8146,-7.809,-7.7768,-7.7304,-7.7304,-7.7304,-7.7304,0.0,0.0,0.0,0.0,0.0,0.0,0.0,0.0,0.0,0.0,0.0,0.0,0.0,0.0,0.0,0.0,0.0,0.0,-3.3722,-3.4562,-3.5509,-3.656,-3.7394,-3.7857,-3.7857,-3.9055,-3.9709,-3.9844,-4.0091,-4.0416,-4.0673,-4.1022,-4.1241,-4.143,-4.1904,-4.2126,-4.2094,-4.1588,-4.1683,-4.2062,-4.083,-4.0514,-4.0704,-3.9503,-3.8934,-3.8776,-3.8776,-3.8776,-3.9027,-4.0892,-4.3493,-4.606,-4.6965,-4.8884,-5.0873,-5.1045,-5.223,-5.373,-5.5257,-5.658,-5.7876,-5.9395,-5.9355,-5.8951,-5.9171,-5.8107,-5.7161,-5.7258,-5.6927,-5.7125,-5.8393,-5.8872,-5.9434,-6.0377,-6.2844,-6.464,-6.4685,-6.7523,-6.9778,-7.0238,-7.1636,-7.2691,-7.3068,-7.4486,-7.5304,-7.516,-7.554,-7.6086,-7.6711,-7.7589,-7.8113,-7.8223,-7.8999,-7.9594,-7.992,-8.0131,-8.0315,-8.0506,-8.0506,-8.0506,-8.0506,-8.0506,-8.0506,-8.0506,-8.0506,-8.0392,-8.0238,-7.9836,-7.9311,-7.8639,-7.8255,-7.7768,-7.7304,-7.7304,-7.7304,-7.7304,0.0,0.0,0.0,0.0,0.0,0.0,0.0,0.0,0.0,0.0,0.0,0.0,0.0,0.0,0.0,0.0,0.0,0.0,0.0,-3.3683,-3.4676,-3.5794,-3.6397,-3.6901,-3.7229,-3.8144,-3.8585,-3.8505,-3.8868,-3.9141,-3.9338,-3.9565,-3.985,-4.0135,-4.0514,-4.0672,-4.064,-4.0293,-4.0672,0.0,0.0,-3.9598,-4.0198,-3.8302,-3.7796,-3.8017,-3.7701,-3.8503,-4.0027,-4.1488,-4.4072,-4.6801,-4.7477,-4.9286,-5.1183,-5.1494,-5.3112,-5.5085,-5.6451,-5.7836,-5.919,-6.0567,-6.0052,-5.9318,-5.9648,-5.8217,-5.6822,-5.6822,-5.6161,-5.5868,-5.6785,-5.7813,-5.8839,-5.9703,-6.2527,-6.4864,-6.5727,-6.8355,-7.0365,-7.0821,-7.2763,-7.395,-7.3699,-7.5227,-7.628,-7.637,-7.636,-7.675,-7.7635,-7.8121,-7.869,-7.9422,-7.9854,-8.0087,-8.023,-8.0417,-8.0506,-8.0506,-8.0506,-8.0506,-8.0506,-8.0506,-8.0506,-8.0506,-8.0506,-8.0506,-8.0506,-8.0159,-7.9583,-7.8891,-7.8536,-7.796,-7.7304,-7.7304,-7.7304,-7.7304,0.0,0.0,0.0,0.0,0.0,0.0,0.0,0.0,0.0,0.0,-2.8582,-2.8461,-2.8522,-2.9052,0.0,0.0,0.0,0.0,0.0,0.0,-3.3822,-3.4584,-3.5265,-3.5993,-3.6754,-3.719,-3.7318,-3.7177,-3.748,-3.7865,-3.8299,-3.8239,-3.8586,-3.9218,-3.9218,-3.9218,-3.9218,-3.9218,-4.0293,-4.1778,-3.925,-3.9313,-4.0577,0.0,-3.6658,-3.7133,-3.6627,-3.8577,-4.1498,-4.2318,-4.4481,-4.6952,-4.7773,-4.9528,-5.1425,-5.2287,-5.3982,-5.593,-5.7412,-5.8772,-6.0062,-6.1312,-6.0456,-5.9501,-5.9979,-5.8217,-5.6455,-5.6345,-5.5611,-5.5023,-5.5244,-5.7072,-5.8687,-5.9024,-6.1895,-6.4768,-6.6714,-6.8702,-7.035,-7.1309,-7.3734,-7.5079,-7.4441,-7.593,-7.6944,-7.7107,-7.7212,-7.7596,-7.8363,-7.8456,-7.9208,-8.0881,-8.0456,-8.028,-8.0506,-8.0506,-8.0506,-8.0506,-8.0506,-8.0506,-8.0506,-8.0506,-8.0506,-8.0506,-8.0506,-8.0506,-8.0506,-8.0506,-7.9878,-7.8989,-7.894,-7.8309,-7.7426,-7.7304,-7.7304,-7.7341,0.0,0.0,0.0,0.0,0.0,0.0,0.0,0.0,0.0,0.0,-2.9601,-2.8588,0.0,0.0,0.0,0.0,0.0,0.0,0.0,0.0,0.0,-3.3027,-3.365,-3.4233,-3.4906,-3.5393,-3.5922,-3.6486,-3.6258,-3.651,-3.7189,-3.6901,-3.7164,-3.7828,-3.7828,-3.7828,-3.7828,-3.7828,-3.8049,-3.8302,-3.7227,-3.7006,-3.7196,-3.6026,0.0,0.0,-3.6279,-3.8577,-4.1498,-4.2318,-4.4801,-4.7739,-4.916,-5.0735,-5.2287,-5.3701,-5.5201,-5.6846,-5.8873,-5.9996,-6.0715,-6.1459,-6.0896,-5.9869,-5.8694,-5.6565,-5.462,-5.3959,-5.2674,-5.205,-5.3371,-5.4465,-5.586,-5.8023,-6.0709,-6.324,-6.5122,-6.7635,-6.9584,-7.0432,-7.2841,-7.4417,-7.4402,-7.593,-7.6946,-7.7089,-7.7777,-7.8246,-7.8402,-7.9002,-7.9936,-8.1187,-8.1127,-8.0887,-8.0506,-8.0506,-8.0506,-8.0506,-8.0506,-8.0506,-8.0506,-8.0506,-8.0506,-8.0506,-8.0506,-8.0506,-8.0506,-8.0506,-8.0159,-7.9494,-7.9085,-7.8521,-7.7903,-7.745,-7.7304,-7.7353,0.0,0.0,0.0,0.0,0.0,0.0,0.0,-2.8922,-2.9508,-3.0786,-3.0459,-3.0326,-3.1031,-3.0775,-3.0667,0.0,0.0,0.0,0.0,0.0,0.0,-3.1924,0.0,0.0,-3.316,-3.3986,-3.4575,-3.4929,0.0,-3.5776,-3.6126,-3.5925,-3.6058,-3.6406,-3.6406,-3.6406,-3.6406,-3.6406,-3.6406,-3.6374,-3.6026,-3.59,-3.5805,-3.511,0.0,0.0,-3.6595,-3.8669,-4.1165,-4.2692,-4.4933,-4.7512,-4.9378,-5.1011,-5.2528,-5.4046,-5.6003,-5.8023,-5.9452,-6.0829,-6.1806,-6.1655,-6.0676,-5.9465,-5.8253,-5.5794,-5.3775,-5.3812,-5.2527,-5.1646,-5.2417,-5.3833,-5.5488,-5.7167,-5.9752,-6.245,-6.5139,-6.7208,-6.8878,-7.016,-7.2259,-7.3793,-7.4369,-7.5532,-7.6679,-7.7706,-7.8113,-7.8534,-7.8993,-8.0212,-8.1034,-8.1296,-8.131,-8.1041,-8.0506,-8.0506,-8.0506,-8.0506,-8.0506,-8.0506,-8.0506,-8.0506,-8.0506,-8.0506,-8.0506,-8.0506,-8.0506,-8.0506,-8.0199,-7.9665,-7.9085,-7.8536,-7.8109,-7.8025,-7.7903,-7.795,0.0,0.0,0.0,0.0,0.0,0.0,0.0,-2.9087,-2.9598,-3.0403,-3.1318,-3.216,-3.2807,-3.2187,-3.1627,0.0,0.0,0.0,0.0,0.0,0.0,0.0,0.0,0.0,-3.1657,0.0,0.0,-3.3367,-3.4428,0.0,0.0,0.0,0.0,0.0,-3.5394,-3.5394,-3.5394,-3.5394,-3.5394,0.0,0.0,-3.5142,-3.5078,0.0,0.0,0.0,0.0,-3.8649,-4.0769,-4.28,-4.4908,-4.7043,-4.9286,-5.1011,-5.2528,-5.4233,-5.6469,-5.8673,-5.9752,-6.1134,-6.2144,-6.1484,-6.0126,-5.8657,-5.7483,-5.5133,-5.3188,-5.3115,-5.2087,-5.1206,-5.1206,-5.3014,-5.4927,-5.6346,-5.8678,-6.1537,-6.5037,-6.6495,-6.7914,-6.9811,-7.1771,-7.3378,-7.429,-7.535,-7.6665,-7.8246,-7.8642,-7.912,-7.9851,-8.131,-8.1859,-8.1407,-8.1335,-8.107,-8.0614,-8.0505,-8.0506,-8.0506,-8.0506,-8.0506,-8.0506,-8.0506,-8.0506,-8.0506,-8.0506,-8.0506,-8.0506,-8.0506,-8.0199,-7.9665,-7.9085,-7.8648,-7.835,-7.848,-7.8537,-7.8666,0.0,0.0,0.0,0.0,0.0,0.0,0.0,-2.9651,-3.0413,-3.1576,-3.2408,-3.2993,-3.3304,-3.2691,-3.1974,0.0,0.0,0.0,0.0,0.0,0.0,0.0,0.0,0.0,0.0,0.0,0.0,-3.2412,-3.3119,0.0,0.0,0.0,0.0,0.0,0.0,-3.5394,-3.5394,-3.5394,0.0,0.0,0.0,0.0,0.0,0.0,0.0,0.0,0.0,-3.8165,-4.058,-4.2185,-4.4429,-4.7024,-4.9321,-5.1011,-5.2615,-5.471,-5.6374,-5.8049,-6.0088,-6.0632,-6.0603,-6.0529,-5.9318,-5.7519,-5.5244,-5.3959,-5.238,-4.9481,-4.8746,-4.8636,-4.8636,-4.9961,-5.2128,-5.5366,-5.7275,-5.9656,-6.34,-6.4695,-6.6221,-6.8901,-7.1433,-7.3388,-7.429,-7.5897,-7.7286,-7.8222,-7.9723,-8.0635,-8.0786,-8.161,-8.1959,-8.1679,-8.143,-8.1154,-8.0837,-8.0611,-8.0506,-8.0506,-8.0506,-8.0506,-8.0506,-8.0506,-8.0506,-8.0506,-8.0506,-8.0506,-8.0506,-8.0506,-8.0199,-7.9665,-7.9085,-7.8985,-7.9092,-7.8541,-7.8775,-7.9442,0.0,0.0,0.0,0.0,0.0,0.0,-2.9034,-2.9601,-3.0306,-3.1304,-3.2074,-3.2648,-3.2895,-3.3048,-3.2676,-3.1593,0.0,0.0,0.0,0.0,0.0,0.0,0.0,0.0,0.0,0.0,-3.1571,-3.2317,-3.2961,0.0,0.0,0.0,0.0,0.0,0.0,-3.413,-3.413,-3.413,0.0,0.0,0.0,0.0,0.0,0.0,0.0,0.0,0.0,0.0,-4.0066,-4.1972,-4.3855,-4.5815,-4.8449,-5.0011,-5.1474,-5.4489,-5.6042,-5.7226,-5.9384,-6.0208,-6.0162,-5.9208,-5.774,-5.6161,-5.473,-5.3041,-5.1536,-5.0692,-4.9738,-4.9265,-4.9972,-5.0396,-5.16,-5.4739,-5.646,-5.845,-6.1456,-6.3226,-6.5178,-6.7829,-7.0119,-7.2281,-7.4218,-7.5544,-7.7036,-7.8876,-8.0596,-8.1597,-8.1622,-8.1921,-8.1959,-8.1698,-8.1453,-8.1181,-8.09,-8.0611,-8.0506,-8.0506,-8.0506,-8.0506,-8.0506,-8.0506,-8.0506,-8.0506,-8.0506,-8.0506,-8.0506,-8.0506,-8.0392,-8.0157,-7.9746,-7.9678,-7.9813,-7.9768,-7.9881,-8.0114,0.0,0.0,0.0,0.0,0.0,-2.8253,-2.8954,-2.9432,-3.0017,-3.0866,-3.1736,-3.2351,-3.2382,-3.3035,-3.2894,-3.1581,-3.0766,0.0,0.0,0.0,0.0,0.0,0.0,0.0,0.0,0.0,-3.1571,-3.2317,-3.3151,-3.3593,0.0,0.0,-3.3909,-3.3909,0.0,0.0,0.0,0.0,0.0,0.0,0.0,0.0,0.0,0.0,0.0,0.0,0.0,0.0,0.0,0.0,0.0,-4.4818,-4.7052,-4.8665,-5.0264,-5.3439,-5.4945,-5.6009,-5.7939,-5.8713,-5.8694,-5.7556,-5.6235,-5.495,-5.3922,-5.2197,-5.0839,-5.0875,-4.9892,-4.9233,-5.0043,-5.03,-5.1307,-5.4048,-5.5797,-5.7719,-6.0325,-6.2369,-6.4561,-6.7174,-6.9484,-7.178,-7.4145,-7.5919,-7.7755,-7.9727,-8.1247,-8.2104,-8.2104,-8.2104,-8.2026,-8.1826,-8.1475,-8.1207,-8.1012,-8.0681,-8.0506,-8.0506,-8.0506,-8.0506,-8.0506,-8.0506,-8.0506,-8.0506,-8.0506,-8.0506,-8.0506,-8.0506,-8.0545,-8.0618,-8.0245,-8.0278,-8.0576,-8.0588,-8.0625,-8.0781,0.0,0.0,0.0,0.0,0.0,0.0,-2.8817,-2.929,-2.9842,-3.054,-3.1622,-3.2185,-3.1936,-3.2384,-3.2283,-3.1286,-3.1191,0.0,0.0,0.0,0.0,0.0,0.0,0.0,0.0,0.0,-3.1571,-3.2317,-3.3625,-3.4288,-3.4288,-3.5047,-3.5363,-3.5331,0.0,0.0,0.0,0.0,0.0,0.0,0.0,0.0,0.0,0.0,0.0,0.0,0.0,0.0,0.0,0.0,0.0,0.0,0.0,-4.701,-4.9227,-5.1395,-5.2927,-5.4255,-5.5641,-5.5832,-5.5647,-5.5611,-5.5023,-5.3995,-5.238,-5.1389,-5.0325,-4.8673,-4.7977,-4.759,-4.7661,-4.8867,-5.073,-5.3205,-5.532,-5.7545,-6.0301,-6.2259,-6.4402,-6.7155,-6.9978,-7.2392,-7.4115,-7.7503,-7.9918,-8.074,-8.1597,-8.2104,-8.2104,-8.2104,-8.2104,-8.2104,-8.1561,-8.131,-8.131,-8.0778,-8.0506,-8.0506,-8.0506,-8.0506,-8.0506,-8.0506,-8.0506,-8.0506,-8.0506,-8.0506,-8.0506,-8.0506,-8.0694,-8.0959,-8.0327,-8.0779,-8.171,-8.0736,-8.0922,-8.151,0.0,0.0,0.0,0.0,0.0,0.0,0.0,-2.8565,-2.926,-3.0017,-3.0594,-3.1071,-3.1348,-3.1734,-3.1558,-3.0622,-3.0496,0.0,0.0,0.0,0.0,0.0,0.0,0.0,0.0,-3.2045,-3.2961,-3.3656,-3.4573,-3.5047,-3.5047,-3.5268,-3.5394,-3.5394,-3.5142,-3.4762,0.0,0.0,0.0,0.0,0.0,0.0,-3.4383,0.0,0.0,0.0,0.0,0.0,0.0,0.0,0.0,0.0,0.0,0.0,0.0,-4.8682,-5.0764,-5.2857,-5.4061,-5.4288,-5.4182,-5.4019,-5.3335,-5.2747,-5.2821,-5.1793,-5.0698,-5.0379,-4.8859,-4.8245,-5.0402,-4.9353,-4.9644,-5.4101,-5.5351,-5.6512,-5.8649,-6.1527,-6.4231,-6.6415,-7.0739,-7.4453,-7.6809,-7.8573,-7.9918,-8.074,-8.1597,-8.2104,-8.2104,-8.2104,-8.2104,-8.2104,-8.1561,-8.131,-8.131,-8.0778,-8.0506,-8.0506,-8.0506,-8.0506,-8.0506,-8.0506,-8.0506,-8.0506,-8.0506,-8.0506,-8.0544,-8.1156,-8.1461,-8.1568,-8.1754,-8.1949,-8.2053,-8.1452,-8.1328,-8.1445,0.0,0.0,0.0,0.0,0.0,0.0,0.0,-2.7926,-2.8592,-2.9375,-2.9855,-3.0268,-3.0647,-3.0782,-3.0627,-3.0002,-2.956,0.0,0.0,0.0,0.0,0.0,0.0,0.0,-3.1191,-3.2582,-3.3625,-3.4288,-3.53,-3.5774,-3.5774,-3.6058,-3.6184,-3.6153,-3.59,-3.5521,0.0,0.0,0.0,0.0,0.0,0.0,-3.4762,0.0,0.0,0.0,0.0,0.0,0.0,0.0,0.0,0.0,0.0,0.0,0.0,0.0,-4.8901,-5.0876,-5.2077,-5.2915,-5.3353,-5.2846,-5.2601,-5.2417,-5.2344,-5.1143,-5.0082,-5.0304,-4.9094,-4.8664,-5.096,-5.0328,-5.0761,-5.4766,-5.5938,-5.6856,-5.8357,-6.1692,-6.5019,-6.8015,-7.1942,-7.5568,-7.8461,-7.9257,-8.0062,-8.1208,-8.1792,-8.2104,-8.2104,-8.2104,-8.2039,-8.1944,-8.1519,-8.1259,-8.1154,-8.0711,-8.0506,-8.0506,-8.0506,-8.0506,-8.0506,-8.0506,-8.0506,-8.0506,-8.0506,-8.0697,0.0,-8.1576,-8.2033,-8.2403,-8.2534,-8.2532,-8.2387,-8.1791,-8.1478,-8.1375,0.0,0.0,0.0,0.0,0.0,0.0,0.0,-2.72,-2.7839,-2.8536,-2.9282,-2.9758,-2.9758,-2.9633,-2.9515,-2.9453,0.0,0.0,0.0,0.0,0.0,0.0,0.0,0.0,-3.13,-3.274,-3.3783,-3.4446,-3.5837,-3.65,-3.65,-3.7164,-3.748,-3.7449,-3.6785,-3.6437,-3.6311,0.0,0.0,0.0,-3.3972,-3.4699,0.0,0.0,0.0,0.0,0.0,0.0,0.0,0.0,0.0,0.0,0.0,0.0,0.0,0.0,0.0,0.0,0.0,-5.1611,-5.2815,-5.216,-5.2564,-5.2747,-5.1316,-5.0009,0.0,-4.9113,-4.892,-4.9034,-4.9944,-5.1586,-5.3378,-5.5212,-5.6855,-5.8298,-5.9379,-6.2743,-6.6828,-7.1429,-7.3515,-7.5884,-7.9164,-7.9548,-8.0273,-8.1948,-8.2104,-8.2104,-8.2104,-8.2104,-8.1959,-8.1679,-8.143,-8.1181,-8.09,-8.0611,-8.0506,-8.0506,-8.0506,-8.0506,-8.0506,-8.0506,-8.0506,-8.0506,-8.0582,-8.1041,-8.1805,-8.192,-8.2561,-8.3339,-8.2887,-8.2687,-8.2597,-8.1879,-8.1478,-8.1375,0.0,0.0,0.0,0.0,0.0,0.0,0.0,0.0,0.0,0.0,-2.809,-2.8361,-2.8651,-2.8607,-2.8514,0.0,0.0,0.0,0.0,0.0,0.0,0.0,0.0,0.0,-3.2771,-3.4194,-3.5236,-3.5932,-3.6817,-3.7227,-3.7227,-3.7417,-3.748,-3.748,-3.7291,-3.6627,-3.5584,-3.4857,0.0,0.0,-3.3467,-3.4288,0.0,0.0,0.0,0.0,-3.9135,-3.9817,0.0,0.0,0.0,0.0,0.0,0.0,0.0,0.0,-4.6542,-4.8011,-4.8937,0.0,-5.0926,-5.1784,-5.2123,-5.2344,0.0,-5.2114,-5.1675,-5.1956,-5.1209,-5.1022,-5.2755,-5.2933,-5.3569,-5.5938,-5.7315,-5.8635,-6.0316,-6.4947,-6.9575,-7.3354,-7.5345,-7.7212,-7.932,-8.0094,-8.0935,-8.2026,-8.2104,-8.2104,-8.2104,-8.2104,-8.1875,-8.1407,-8.1335,-8.1181,-8.09,-8.0611,-8.0506,-8.0506,-8.0506,-8.0506,-8.0506,-8.0506,-8.0506,-8.0544,-8.1194,-8.1614,-8.192,-8.3181,-8.359,-8.3415,-8.3527,-8.321,-8.2511,-8.1812,-8.1408,-8.1163,0.0,0.0,0.0,0.0,0.0,0.0,0.0,0.0,0.0,0.0,0.0,-2.7189,-2.7416,-2.7713,0.0,0.0,0.0,0.0,0.0,0.0,0.0,0.0,0.0,-3.181,-3.3277,-3.4984,-3.6216,-3.6911,-3.7607,-3.8112,-3.8397,-3.8081,-3.7954,-3.7954,-3.7607,-3.669,-3.5394,-3.53,-3.451,-3.334,-3.3625,0.0,0.0,0.0,0.0,0.0,-3.9506,-4.012,0.0,-4.0871,-4.1147,-4.1574,0.0,0.0,0.0,0.0,-4.6131,-4.7301,-4.846,-4.9864,-5.1098,-5.1825,-5.227,-5.2606,-5.281,-5.2494,-5.2143,-5.2128,-5.2002,-5.2322,-5.3811,-5.4432,-5.5361,-5.7544,-5.9365,-6.1477,-6.4173,-6.7903,-7.1384,-7.4126,-7.5968,-7.7837,-7.9951,-8.0534,-8.1169,-8.2026,-8.2104,-8.2104,-8.2104,-8.1959,-8.1717,-8.1335,-8.1181,-8.0992,-8.075,-8.0578,-8.0506,-8.0506,-8.0506,-8.0506,-8.0506,-8.0506,-8.0735,-8.1117,-8.1614,-8.2225,-8.3028,-8.3945,-8.4035,-8.365,-8.3749,-8.3074,-8.2039,-8.1647,-8.1375,-8.1128,0.0,0.0,0.0,0.0,0.0,0.0,0.0,0.0,0.0,0.0,0.0,0.0,0.0,0.0,0.0,0.0,0.0,0.0,0.0,0.0,0.0,0.0,-3.1052,-3.2435,-3.3593,-3.5584,-3.6943,-3.7638,-3.8333,-3.8934,-3.9503,-3.8934,-3.8618,-3.8491,-3.7796,-3.669,-3.5426,-3.6026,-3.511,-3.334,-3.3909,0.0,0.0,0.0,0.0,0.0,0.0,0.0,0.0,-4.0871,-4.0871,-4.1069,-4.216,0.0,0.0,0.0,0.0,0.0,-4.8291,-5.0268,-5.1912,-5.1981,-5.2642,-5.3175,-5.2753,-5.2407,-5.2096,-5.1907,-5.2665,-5.367,-5.4536,-5.6213,-5.7981,-5.958,-6.2188,-6.5258,-6.885,-7.0831,-7.2697,-7.4843,-7.6436,-7.8323,-8.0649,-8.0942,-8.1286,-8.2026,-8.2104,-8.2104,-8.2104,-8.1843,-8.1561,-8.131,-8.1012,-8.0778,-8.0506,-8.0506,-8.0506,-8.0506,-8.0506,-8.0582,-8.0697,-8.0697,-8.1156,-8.1996,-8.2111,-8.299,-8.4289,-8.4324,-8.4195,-8.3885,-8.358,-8.2719,-8.1579,-8.1445,-8.1234,-8.1128,0.0,0.0,0.0,0.0,0.0,0.0,0.0,0.0,0.0,0.0,0.0,0.0,0.0,0.0,0.0,0.0,0.0,0.0,0.0,0.0,0.0,-2.9385,-3.1413,-3.3341,-3.5047,-3.6564,-3.767,-3.8365,-3.9029,-3.9408,-3.9503,-3.9408,-3.906,-3.8491,-3.7796,-3.669,-3.5394,-3.5521,-3.4668,-3.3309,-3.3403,0.0,0.0,0.0,0.0,0.0,0.0,0.0,0.0,-4.0871,-4.0871,-4.1,-4.1495,0.0,0.0,0.0,0.0,0.0,-4.7934,-4.986,-5.1528,-5.1915,-5.2813,-5.3606,-5.3533,-5.3924,-5.4519,-5.5185,-5.5712,-5.6295,-5.7273,-5.8918,-6.0473,-6.1593,-6.4657,-6.7914,-7.0934,-7.2255,-7.4076,-7.7343,-7.8591,-7.9611,-8.0699,-8.148,-8.1948,-8.2104,-8.2104,-8.2104,-8.2104,-8.1843,-8.1561,-8.131,-8.1012,-8.0778,-8.0506,-8.0506,-8.0506,-8.0506,-8.0506,-8.0888,-8.1614,-8.1614,-8.2034,-8.2837,-8.3601,-8.4059,-8.4288,-8.4524,-8.4325,-8.3832,-8.3132,-8.2323,-8.1579,-8.1445,-8.1234,-8.1128,0.0,0.0,0.0,0.0,0.0,0.0,0.0,0.0,0.0,0.0,0.0,0.0,0.0,0.0,0.0,0.0,0.0,0.0,0.0,0.0,-2.9223,-2.9878,-3.24,-3.4166,-3.4992,-3.6983,-3.8365,-3.906,-3.9756,-4.0293,-4.0609,-3.985,-3.9155,-3.8491,-3.7796,-3.6911,-3.5932,-3.5552,-3.4794,-3.3814,0.0,0.0,0.0,0.0,0.0,0.0,0.0,0.0,0.0,0.0,-4.1024,-4.1265,-4.1753,0.0,0.0,0.0,0.0,0.0,-4.8416,-5.012,-5.1565,-5.2712,-5.3497,-5.42,-5.4859,-5.5271,-5.5814,-5.6863,-5.7537,-5.8157,-5.8702,-6.0627,-6.3119,-6.6109,-6.7969,-7.0032,-7.2782,-7.4708,-7.6466,-7.8123,-7.9465,-8.0569,-8.1399,-8.1839,-8.2104,-8.2104,-8.2104,-8.2039,-8.1875,-8.164,-8.1359,-8.1098,-8.0805,-8.0611,-8.0506,-8.0506,-8.0506,-8.0506,-8.0964,-8.1423,-8.1805,-8.2264,-8.2913,-8.3715,-8.4136,-8.4556,-8.4976,-8.5079,-8.4665,-8.3832,-8.3266,-8.2474,-8.1579,-8.1305,-8.1163,-8.1165,0.0,0.0,0.0,0.0,0.0,0.0,0.0,0.0,0.0,0.0,0.0,0.0,0.0,0.0,0.0,0.0,0.0,0.0,0.0,0.0,-2.9559,-3.0294,-3.302,-3.4651,-3.4953,-3.7429,-3.8997,-3.9503,-4.0388,-4.1083,-4.1557,-4.0166,-3.9218,-3.8713,-3.7859,-3.7101,-3.6406,-3.5868,-3.5205,-3.451,0.0,0.0,0.0,0.0,0.0,0.0,0.0,0.0,0.0,0.0,0.0,0.0,0.0,0.0,0.0,-4.5297,-4.603,-4.6691,-4.8967,-5.0638,-5.208,-5.3534,-5.4343,-5.5023,-5.614,-5.6603,-5.7063,-5.8066,-5.9228,-6.0073,-6.0018,-6.2574,-6.5973,-6.9972,-7.1005,-7.2072,-7.4314,-7.6542,-7.8079,-7.8543,-7.9938,-8.1155,-8.2034,-8.2077,-8.2104,-8.2104,-8.2104,-8.1959,-8.1717,-8.1453,-8.1181,-8.09,-8.0646,-8.0506,-8.0506,-8.0697,-8.0812,-8.0812,-8.1499,-8.1996,-8.2416,-8.3028,-8.3754,-8.4594,-8.4594,-8.4938,-8.5511,-8.5352,-8.4757,-8.3832,-8.3284,-8.2437,-8.1478,-8.1381,-8.1382,-8.1491,0.0,0.0,0.0,0.0,0.0,0.0,0.0,0.0,0.0,0.0,0.0,0.0,0.0,0.0,0.0,0.0,0.0,0.0,0.0,0.0,-2.9224,-3.035,-3.273,-3.4543,-3.5608,-3.812,-3.9439,-3.9503,-4.0862,-4.1557,-4.1557,-4.0166,-3.9471,-3.9376,-3.8049,-3.7101,-3.6437,-3.6374,-3.5963,-3.53,-3.5268,0.0,0.0,0.0,0.0,0.0,0.0,0.0,0.0,0.0,0.0,0.0,0.0,0.0,-4.3321,-4.5297,-4.6434,-4.7388,-4.9114,-5.1231,-5.317,-5.4033,-5.5126,-5.6209,-5.7036,-5.8081,-5.8945,-5.9254,-6.1223,-6.2719,-6.2012,-6.5487,-6.9091,-7.1154,-7.2913,-7.4392,-7.5449,-7.6475,-7.7688,-7.9292,-8.0328,-8.1207,-8.2038,-8.2104,-8.2104,-8.2104,-8.2104,-8.1959,-8.1717,-8.1453,-8.1181,-8.09,-8.0646,-8.0506,-8.0506,-8.1308,-8.1729,-8.1729,-8.1767,-8.2607,-8.4098,-8.4174,-8.4632,-8.5397,-8.5397,-8.5473,-8.5471,-8.4937,-8.4438,-8.3832,-8.2898,-8.1974,-8.1201,-8.1925,-8.2179,-8.2324,0.0,0.0,0.0,0.0,0.0,0.0,0.0,0.0,0.0,0.0,0.0,0.0,0.0,0.0,0.0,0.0,0.0,0.0,0.0,-2.8187,-2.9549,-3.1514,-3.3125,-3.4758,-3.6321,-3.8403,-3.9503,-3.9503,-4.0893,-4.1588,-4.1557,-4.0166,-3.9503,-3.9439,-3.8081,-3.7322,-3.7038,-3.6595,-3.6279,-3.5995,-3.5934,-3.6169,0.0,0.0,0.0,0.0,0.0,0.0,0.0,0.0,-4.1578,-4.205,-4.2498,-4.2957,-4.3615,-4.537,-4.6471,-4.7609,-5.0009,-5.2228,-5.4359,-5.6474,-5.7894,-5.8854,-5.9159,-6.0502,-6.1812,-6.2268,-6.4193,-6.6206,-6.7634,-6.8898,-7.0693,-7.3579,-7.4221,-7.5046,-7.6984,-7.8086,-7.9104,-8.0289,-8.1177,-8.1821,-8.2077,-8.2104,-8.2104,-8.2104,-8.1944,-8.1717,-8.1475,-8.1207,-8.0931,-8.0646,-8.0542,-8.0773,-8.1308,-8.1652,-8.2302,-8.3333,-8.3333,-8.3677,-8.4327,-8.4824,-8.5206,-8.5511,-8.5511,-8.5511,-8.5511,-8.5311,-8.4673,-8.3779,-8.2449,-8.187,-8.1889,-8.2179,-8.2613,-8.3157,0.0,0.0,0.0,0.0,0.0,0.0,0.0,0.0,0.0,0.0,0.0,0.0,0.0,0.0,0.0,0.0,0.0,0.0,-2.7881,-2.8554,-3.0039,-3.2613,-3.3693,-3.506,-3.6937,-3.8402,-3.9281,-3.9503,-4.0893,-4.1588,-4.1557,-4.0166,-3.9503,-3.9439,-3.8081,-3.748,-3.7449,-3.6975,-3.6753,-3.678,-3.6828,-3.7065,0.0,0.0,0.0,0.0,0.0,0.0,0.0,0.0,-4.1626,-4.2297,-4.2768,-4.336,-4.4158,-4.548,-4.6948,-4.8532,-5.0712,-5.3038,-5.5465,-5.7959,-5.9938,-6.1353,-6.1934,-6.3065,-6.4142,-6.4676,-6.6381,-6.87,-7.1746,-7.1589,-7.2013,-7.5016,-7.5307,-7.5897,-7.7927,-7.9061,-8.0016,-8.0787,-8.1685,-8.2172,-8.2116,-8.2104,-8.2104,-8.2104,-8.1843,-8.1561,-8.1335,-8.1041,-8.0778,-8.0506,-8.0773,-8.1194,-8.1805,-8.2302,-8.3181,-8.4289,-8.4556,-8.4671,-8.4709,-8.5244,-8.5511,-8.5511,-8.5511,-8.5511,-8.5511,-8.5511,-8.4916,-8.3954,-8.2537,-8.2281,-8.2686,-8.2939,-8.341,-8.399,0.0,0.0,0.0,0.0,0.0,0.0,0.0,0.0,0.0,0.0,0.0,0.0,0.0,0.0,0.0,0.0,0.0,0.0,-2.836,-2.9015,-3.0709,-3.3531,-3.4333,-3.5591,-3.7449,-3.8144,-3.8839,-3.9503,-4.0893,-4.1588,-4.1557,-4.0166,-3.9503,-3.9439,-3.8081,-3.748,-3.748,-3.748,-3.748,-3.7539,-3.8084,-3.8188,-3.8162,0.0,0.0,0.0,0.0,0.0,0.0,0.0,-4.1202,-4.2262,-4.2768,-4.3761,-4.4856,-4.5663,-4.7903,-5.0263,-5.1118,-5.3691,-5.6505,-5.8211,-6.0776,-6.3408,-6.5268,-6.5743,-6.5795,-6.6052,-6.7557,-6.9963,-7.3562,-7.3355,-7.3278,-7.5193,-7.6281,-7.7218,-7.8083,-7.9061,-8.0016,-8.0826,-8.1685,-8.2172,-8.2116,-8.2104,-8.2104,-8.2104,-8.1843,-8.1561,-8.1335,-8.1041,-8.0778,-8.0506,-8.1347,-8.1805,-8.1805,-8.3486,-8.4289,-8.4327,-8.5129,-8.5511,-8.5511,-8.5511,-8.5511,-8.5511,-8.5511,-8.5511,-8.5511,-8.5511,-8.5082,-8.4402,-8.3251,-8.3118,-8.3591,-8.4388,-8.4678,-8.4823,0.0,0.0,0.0,0.0,0.0,0.0,0.0,0.0,0.0,0.0,0.0,0.0,0.0,0.0,0.0,0.0,0.0,0.0,-2.8525,-2.8788,-3.0039,-3.2613,-3.3337,-3.4515,-3.6188,-3.771,-3.9092,-4.0261,-4.0704,-4.0893,-4.0862,-3.9945,-3.925,-3.8776,-3.7891,-3.748,-3.748,-3.748,-3.748,-3.7599,-3.8535,-3.8566,-3.8148,0.0,0.0,0.0,0.0,0.0,0.0,0.0,0.0,0.0,-4.2923,-4.3978,-4.4966,-4.6361,-4.8125,-5.0231,-5.2709,-5.4969,-5.7267,-6.0023,-6.1802,-6.3676,-6.6765,-6.8356,-6.9667,-7.1247,-7.2478,-7.3684,-7.4882,-7.5331,-7.5662,-7.6259,-7.6671,-7.7414,-7.8903,-7.9448,-8.0236,-8.1646,-8.1977,-8.2112,-8.2116,-8.2104,-8.2104,-8.2104,-8.1679,-8.1383,-8.131,-8.0869,-8.0846,-8.1385,-8.169,-8.2378,-8.3563,-8.4059,-8.4594,-8.5167,-8.5397,-8.5511,-8.5511,-8.5511,-8.5511,-8.5511,-8.5511,-8.5511,-8.5431,-8.5139,-8.4786,-8.4439,-8.3704,-8.381,-8.4352,-8.4605,-8.504,-8.5583,0.0,0.0,0.0,0.0,0.0,0.0,0.0,0.0,-2.6039,-2.6707,-2.6794,-2.6794,0.0,0.0,0.0,-2.6794,-2.6794,-2.7307,-2.8492,-2.8814,-2.9921,-3.2077,-3.2856,-3.397,-3.5698,-3.7272,-3.8649,-3.9787,-4.004,-4.0166,-4.0135,-3.9439,-3.8902,-3.8491,-3.7796,-3.748,-3.748,-3.748,-3.748,-3.7567,-3.8406,-3.8441,-3.8081,0.0,0.0,0.0,0.0,0.0,0.0,0.0,0.0,0.0,-4.2629,-4.3791,-4.5001,-4.6394,-4.8308,-5.0522,-5.3268,-5.5826,-5.8439,-6.1391,-6.336,-6.5465,-6.9013,-7.0658,-7.2042,-7.409,-7.4693,-7.5042,-7.5815,-7.6104,-7.6337,-7.6648,-7.71,-7.7882,-7.9293,-7.9919,-8.0704,-8.2036,-8.2182,-8.2112,-8.2116,-8.2104,-8.2039,-8.1944,-8.154,-8.1259,-8.1154,-8.0711,-8.0888,-8.1767,-8.2111,-8.2913,-8.4289,-8.4632,-8.5015,-8.5511,-8.5511,-8.5511,-8.5511,-8.5511,-8.5511,-8.5511,-8.5893,-8.5887,-8.5676,-8.5409,-8.5188,-8.5089,-8.4414,-8.4572,-8.5185,-8.5185,-8.5475,-8.5909,0.0,0.0,0.0,0.0,0.0,0.0,0.0,-2.5429,-2.6097,-2.6707,-2.6794,-2.6794,0.0,0.0,0.0,-2.6794,-2.6794,-2.7237,-2.8278,-2.8961,-3.0048,-3.1671,-3.2543,-3.3839,-3.5546,-3.677,-3.7701,-3.8333,-3.906,-3.9408,-3.9408,-3.8807,-3.8491,-3.8397,-3.7765,-3.748,-3.748,-3.748,-3.748,-3.7535,-3.7807,-3.7926,-3.7949,-3.8274,0.0,0.0,0.0,0.0,0.0,0.0,0.0,0.0,-4.201,-4.3387,-4.4926,-4.612,-4.8413,-5.1011,-5.3164,-5.634,-5.9693,-6.2357,-6.5273,-6.8321,-7.1582,-7.2607,-7.3355,-7.5098,-7.49,-7.49,-7.6415,-7.6104,-7.5832,-7.6588,-7.754,-7.8512,-7.9377,-8.0348,-8.1304,-8.2084,-8.2192,-8.2162,-8.2116,-8.2104,-8.2012,-8.1717,-8.1453,-8.1181,-8.09,-8.0646,-8.0926,-8.1881,-8.2607,-8.3448,-8.4403,-8.5129,-8.5511,-8.5511,-8.5511,-8.5511,-8.5511,-8.5511,-8.555,-8.5664,-8.6467,-8.648,-8.6019,-8.6079,-8.6132,-8.6037,-8.5297,-8.537,-8.5909,-8.5909,-8.5909,-8.5909,0.0,0.0,0.0,0.0,0.0,0.0,-2.4771,-2.5836,-2.662,-2.6765,-2.6794,-2.6794,-2.6794,-2.6794,0.0,-2.6794,-2.6794,-2.7108,-2.7773,-2.8499,-2.9256,-3.0075,-3.1955,-3.3594,-3.4833,-3.6048,-3.6722,-3.688,-3.8112,-3.8744,-3.8713,-3.8586,-3.8239,-3.7701,-3.7543,-3.748,-3.748,-3.748,-3.748,-3.7476,-3.7455,-3.7347,-3.7168,-3.7084,-3.6874,0.0,0.0,0.0,0.0,0.0,0.0,0.0,-4.1862,-4.3387,-4.5002,-4.6544,-4.849,-5.0953,-5.4251,-5.691,-5.9543,-6.3024,-6.756,-7.14,-7.2336,-7.3743,-7.4945,-7.5139,-7.5721,-7.6259,-7.6648,-7.657,-7.6544,-7.6741,-7.7589,-7.8528,-7.945,-8.0363,-8.1226,-8.2114,-8.2151,-8.2116,-8.2104,-8.2104,-8.2012,-8.1717,-8.1453,-8.1181,-8.09,-8.0646,-8.1194,-8.2684,-8.2913,-8.3715,-8.5244,-8.5397,-8.5511,-8.5511,-8.5511,-8.5511,-8.5511,-8.5511,-8.5893,-8.6543,-8.6734,-8.6866,-8.6938,-8.6943,-8.6617,-8.6074,-8.5917,-8.5842,-8.5909,-8.5909,-8.5909,-8.5909,0.0,0.0,0.0,0.0,0.0,0.0,0.0,0.0,-2.6794,-2.6794,-2.6794,-2.6794,-2.6794,-2.6794,0.0,0.0,-2.6794,-2.691,-2.7258,-2.8158,-2.9087,-3.0045,-3.1928,-3.3264,-3.3863,-3.5211,-3.609,-3.6437,-3.7164,-3.7701,-3.8017,-3.8017,-3.7828,-3.748,-3.748,-3.748,-3.748,-3.748,-3.748,-3.7476,-3.7343,-3.7339,-3.7433,-3.7244,-3.7297,-3.7387,-3.7387,0.0,0.0,0.0,0.0,0.0,0.0,0.0,-4.445,-4.6246,-4.8184,-5.0563,-5.4264,-5.7036,-5.9951,-6.455,-6.909,-7.2491,-7.2696,-7.4458,-7.5931,-7.5391,-7.574,-7.6259,-7.6648,-7.6687,-7.6855,-7.7338,-7.823,-7.9157,-8.0078,-8.0983,-8.1694,-8.2153,-8.2162,-8.2089,-8.2104,-8.2104,-8.1944,-8.154,-8.1383,-8.1126,-8.0711,-8.0961,-8.169,-8.2951,-8.341,-8.4212,-8.5511,-8.5511,-8.5511,-8.5511,-8.5511,-8.5741,-8.6123,-8.6123,-8.639,-8.6849,-8.7651,-8.7763,-8.7372,-8.7697,-8.7217,-8.6229,-8.6138,-8.5987,-8.5909,-8.5909,-8.5909,-8.5909,0.0,0.0,0.0,0.0,0.0,0.0,0.0,0.0,0.0,-2.6794,-2.6794,-2.6794,-2.6794,-2.6794,-2.6794,0.0,0.0,0.0,-2.6794,-2.7984,-2.9318,-3.0573,-3.2075,-3.2901,-3.3073,-3.4491,-3.5552,-3.6248,-3.6374,-3.6785,-3.748,-3.748,-3.748,-3.748,-3.748,-3.748,-3.748,-3.748,-3.748,-3.7476,-3.7287,-3.7514,-3.7996,-3.7849,-3.8103,-3.8594,-3.8594,-3.8486,-3.8385,-3.8709,0.0,0.0,0.0,0.0,-4.3823,-4.5568,-4.7554,-4.9943,-5.3429,-5.693,-6.0839,-6.6005,-6.9839,-7.2463,-7.2807,-7.4861,-7.6454,-7.5677,-7.5599,-7.591,-7.657,-7.6687,-7.6987,-7.7958,-7.8901,-7.9821,-8.078,-8.1647,-8.221,-8.2192,-8.2123,-8.2101,-8.2104,-8.2052,-8.1826,-8.1359,-8.1259,-8.1012,-8.0543,-8.1347,-8.2187,-8.2951,-8.383,-8.4671,-8.5511,-8.5511,-8.5511,-8.5511,-8.5664,-8.6123,-8.681,-8.7116,-8.7231,-8.7307,-8.8721,-8.8729,-8.7735,-8.8298,-8.7699,-8.6392,-8.6247,-8.6062,-8.5909,-8.5909,-8.5982,-8.609,0.0,0.0,0.0,0.0,0.0,0.0,0.0,0.0,0.0,0.0,-2.6794,-2.6794,-2.6794,-2.6794,-2.6794,-2.6794,-2.6794,-2.6794,-2.6794,0.0,0.0,-3.089,-3.1667,-3.2425,-3.3275,-3.4045,-3.4794,-3.5521,-3.6121,-3.6785,-3.748,-3.748,-3.748,-3.748,-3.748,-3.748,-3.748,-3.748,-3.748,-3.7476,-3.7343,-3.7567,-3.7996,-3.7831,-3.8116,-3.8594,-3.8594,-3.8834,-3.9194,-3.9566,-4.0488,0.0,0.0,0.0,-4.3716,-4.4669,-4.6541,-4.8942,-5.16,-5.6816,-6.2477,-6.6337,-6.9413,-7.1726,-7.269,-7.4861,-7.6454,-7.5677,-7.6065,-7.657,-7.6687,-7.6687,-7.7034,-7.8004,-7.8936,-7.9831,-8.0836,-8.1687,-8.2192,-8.2192,-8.2151,-8.2116,-8.2104,-8.1913,-8.164,-8.1335,-8.107,-8.0844,-8.0543,-8.1347,-8.2187,-8.2951,-8.383,-8.4671,-8.5511,-8.5511,-8.5511,-8.5511,-8.6275,-8.6696,-8.6849,-8.8301,-8.8988,-8.8988,-8.9218,-8.907,-8.8654,-8.8711,-8.7861,-8.6429,-8.632,-8.6136,-8.5909,-8.5909,-8.6308,-8.6851,0.0,0.0,0.0,0.0,0.0,0.0,0.0,0.0,0.0,0.0,0.0,-2.6794,-2.6794,-2.6794,-2.6794,-2.6794,-2.6794,-2.6939,-2.7287,-2.7839,-2.8697,-2.9978,-3.0915,-3.1665,-3.2342,-3.3266,-3.4067,-3.4762,-3.5489,-3.6216,-3.688,-3.7291,-3.748,-3.748,-3.748,-3.748,-3.748,-3.748,-3.748,-3.7508,-3.7762,-3.8439,-3.9309,-3.9581,-4.03,-4.1147,-4.1147,-4.1066,-4.0861,-4.1065,-4.1501,-4.2044,-4.2252,0.0,0.0,0.0,-4.5992,-4.8323,-5.2106,-5.6805,-6.128,-6.3797,-6.6903,-6.986,-7.1736,-7.3424,-7.49,-7.5949,-7.6104,-7.6182,-7.6609,-7.6687,-7.719,-7.8682,-7.9254,-8.0027,-8.153,-8.1984,-8.2192,-8.2192,-8.214,-8.2104,-8.2104,-8.1843,-8.1581,-8.1335,-8.1041,-8.0778,-8.0543,-8.1729,-8.2607,-8.299,-8.4289,-8.5129,-8.5511,-8.5511,-8.5741,-8.6237,-8.7116,-8.7766,-8.8262,-8.9485,-8.9752,-8.9332,-8.9829,-8.9564,-8.8804,-8.8804,-8.7861,-8.6429,-8.6429,-8.621,-8.5945,-8.638,-8.6742,-8.7068,0.0,0.0,0.0,0.0,0.0,0.0,0.0,0.0,0.0,0.0,0.0,-2.6794,-2.6794,0.0,0.0,0.0,-2.6794,-2.6997,-2.7461,-2.7636,-2.809,-2.8996,-3.0111,-3.0907,-3.1362,-3.2468,-3.3372,-3.4036,-3.4952,-3.5742,-3.6437,-3.7133,-3.748,-3.748,-3.748,-3.748,-3.748,-3.748,-3.7575,-3.7793,-3.8513,-3.9499,-4.0657,-4.1644,-4.2603,-4.3492,-4.3664,-4.343,-4.2995,-4.2781,-4.2804,-4.2873,-4.2653,-4.302,0.0,0.0,0.0,-4.8277,-5.2628,-5.6153,-5.9241,-6.1597,-6.4482,-6.7448,-7.0044,-7.1792,-7.3385,-7.5055,-7.5638,-7.591,-7.6337,-7.6566,-7.7312,-7.9197,-7.9499,-8.0153,-8.2032,-8.2218,-8.2192,-8.2192,-8.214,-8.2104,-8.2104,-8.1809,-8.1519,-8.1335,-8.1022,-8.0716,-8.0506,-8.2073,-8.299,-8.299,-8.4632,-8.5511,-8.5511,-8.5511,-8.5932,-8.681,-8.7689,-8.853,-8.9332,-9.0211,-9.0249,-8.9676,-9.016,-8.9763,-8.8804,-8.8635,-8.7736,-8.6429,-8.6648,-8.6537,-8.6271,-8.7032,-8.743,-8.772,0.0,0.0,0.0,0.0,0.0,0.0,0.0,0.0,0.0,0.0,0.0,-2.6794,-2.6794,-2.6794,-2.6794,-2.6794,-2.6794,-2.6794,-2.6823,-2.7403,-2.7939,-2.8419,-2.9388,0.0,-3.0618,-3.1797,-3.2645,-3.334,-3.4731,-3.5742,-3.6437,-3.7133,-3.748,-3.748,-3.748,-3.748,-3.748,-3.748,-3.7859,-3.8581,-3.9715,-4.0613,-4.1421,-4.3423,-4.4182,-4.432,-4.5044,-4.539,-4.5383,-4.4634,-4.4466,-4.4452,-4.3681,-4.3461,-4.3566,0.0,0.0,0.0,-5.2043,-5.4311,-5.6857,-6.1113,-6.3052,-6.4632,-6.7386,-7.0549,-7.2685,-7.2025,-7.4395,-7.6415,-7.5716,-7.6232,-7.7384,-7.9203,-7.9561,-8.0231,-8.2026,-8.2218,-8.2192,-8.2192,-8.214,-8.2104,-8.2104,-8.164,-8.1335,-8.131,-8.0844,-8.0543,-8.0506,-8.2073,-8.299,-8.299,-8.4632,-8.5511,-8.5511,-8.5511,-8.5932,-8.681,-8.7689,-8.853,-8.9332,-9.0211,-9.0593,-9.0474,-8.9991,-8.9376,-8.8748,-8.8205,-8.7357,-8.6502,-8.7268,-8.7263,-8.7068,-8.7865,-8.8626,-8.9277,0.0,0.0,0.0,0.0,0.0,0.0,0.0,0.0,0.0,0.0,0.0,0.0,0.0,-2.7752,-2.8013,-2.8013,-2.7636,-2.7229,-2.6823,-2.6997,-2.7325,-2.7743,-2.8755,-2.9501,-2.9937,-3.1514,-3.2443,-3.2645,-3.4004,-3.5047,-3.5774,-3.6469,-3.7038,-3.748,-3.748,-3.748,-3.7512,-3.7954,-3.848,-3.921,-4.0992,-4.2389,-4.3507,-4.4609,-4.563,-4.6512,-4.6639,-4.6927,-4.7105,-4.6672,-4.6048,-4.5333,-4.4525,-4.3901,-4.3597,-4.4102,-4.5536,-4.7378,-4.9105,-5.136,-5.3815,-5.6456,-5.9186,-6.2095,-6.5269,-6.7471,-6.95,-7.1947,-7.3424,-7.4545,-7.539,-7.6235,-7.7394,-7.9203,-7.9563,-8.0231,-8.2065,-8.2218,-8.2192,-8.2192,-8.214,-8.2104,-8.2104,-8.1601,-8.131,-8.131,-8.0811,-8.0506,-8.0506,-8.2073,-8.299,-8.299,-8.4632,-8.5511,-8.5511,-8.5511,-8.6237,-8.7651,-8.7957,-8.8797,-9.0135,-9.0478,-9.0593,-9.0551,-8.9528,-8.8969,-8.8748,-8.8144,-8.7586,-8.7231,-8.7523,-8.7626,-8.7901,-8.8662,-8.9133,-8.9459,0.0,0.0,0.0,0.0,0.0,0.0,0.0,0.0,-2.7171,-2.7403,0.0,0.0,0.0,0.0,-2.8681,-2.8681,-2.8274,-2.7781,-2.7142,-2.7113,-2.7103,-2.7211,-2.8132,-2.8778,-2.9027,-3.0942,-3.1918,-3.1918,-3.3498,-3.4541,-3.5047,-3.5995,-3.669,-3.7133,-3.7385,-3.748,-3.7512,-3.8207,-3.9138,-4.03,-4.1865,-4.3628,-4.5433,-4.6241,-4.7355,-4.8549,-4.9135,-4.9265,-4.9151,-4.8901,-4.7879,-4.6581,-4.5773,-4.492,-4.4257,-4.4458,-4.5332,-4.6525,-4.7869,-4.9745,-5.1869,-5.4203,-5.6908,-5.9818,-6.3042,-6.4986,-6.6975,-7.0121,-7.1917,-7.3197,-7.4104,-7.5698,-7.7433,-7.9235,-7.9609,-8.0261,-8.2065,-8.2218,-8.2192,-8.2192,-8.214,-8.2104,-8.2104,-8.1601,-8.131,-8.131,-8.0811,-8.0506,-8.0506,-8.2073,-8.3257,-8.383,-8.4938,-8.5511,-8.5511,-8.5511,-8.639,-8.811,-8.811,-8.8988,-9.0593,-9.0593,-9.0508,-9.0212,-8.9272,-8.8804,-8.8786,-8.8195,-8.7826,-8.7669,-8.8216,-8.8462,-8.8698,-8.9495,-8.9785,-8.9857,0.0,0.0,0.0,0.0,0.0,0.0,-2.7549,-2.7726,-2.8013,-2.8623,0.0,0.0,0.0,0.0,0.0,-2.8739,-2.871,-2.8448,-2.7755,-2.7752,-2.749,-2.6823,-2.7509,-2.7929,-2.7898,-3.0074,-3.1223,-3.1223,-3.3245,-3.4257,-3.432,-3.571,-3.6374,-3.6469,-3.7133,-3.7449,-3.7512,-3.8207,-3.9713,-4.1666,-4.2294,-4.4265,-4.6903,-4.8335,-4.939,-5.0368,-5.2446,-5.2448,-5.1579,-5.1355,-4.9992,-4.8269,-4.7388,-4.6446,-4.5538,-4.5004,-4.5635,-4.6844,0.0,0.0,0.0,-5.4689,-5.631,-5.7755,-6.0623,-6.3245,-6.5343,-6.6237,-6.9863,-7.2607,-7.1788,-7.4496,-7.7461,-7.9179,-7.9551,-8.0263,-8.202,-8.2179,-8.2153,-8.2192,-8.214,-8.2104,-8.2104,-8.1601,-8.131,-8.131,-8.0811,-8.0506,-8.0506,-8.2073,-8.3754,-8.5473,-8.5511,-8.5511,-8.5511,-8.5511,-8.639,-8.811,-8.811,-8.8988,-9.0593,-9.0551,-9.0257,-8.9665,-8.9023,-8.8786,-8.8804,-8.8413,-8.7994,-8.7851,-8.9419,-8.9811,-8.9531,-9.0292,-9.0581,-9.0581,0.0,0.0,0.0,0.0,0.0,-2.7461,-2.8303,-2.8797,-2.9174,0.0,0.0,0.0,-3.0742,-3.0742,-3.0539,-3.0103,-2.9639,-2.9087,-2.8448,-2.8419,-2.8129,-2.749,-2.8196,-2.8364,-2.7929,-3.0074,-3.1223,-3.1223,-3.2803,-3.3814,-3.4288,-3.4699,-3.5426,-3.6437,-3.6627,-3.7006,-3.7512,-3.8207,-3.9923,-4.2327,-4.3654,-4.5799,-4.8426,-5.0384,-5.1584,-5.2432,-5.3882,-5.4179,-5.3869,-5.3608,-5.2407,-5.0548,-4.8198,-4.6978,-4.6365,-4.5899,-4.5673,-4.5736,-4.6233,0.0,0.0,0.0,0.0,0.0,-5.7815,-6.0507,-6.2885,-6.4375,-6.7158,-6.9449,-6.9898,-7.2302,-7.4608,-7.5724,-7.7503,-7.9366,-8.1122,-8.1297,-8.1468,-8.2114,-8.2123,-8.2013,-8.1826,-8.1497,-8.1234,-8.1012,-8.0716,-8.0506,-8.0506,-8.2073,-8.3754,-8.5473,-8.5511,-8.5511,-8.5511,-8.5511,-8.639,-8.811,-8.811,-8.8988,-9.0593,-9.0167,-8.9897,-8.9665,-8.8578,-8.8479,-8.8977,-8.8471,-8.8653,-8.9383,-8.9857,-9.0138,-9.0292,-9.0509,-9.0581,-9.0581,0.0,0.0,-2.6416,-2.7055,-2.7694,-2.8419,-2.9319,-2.9784,-3.0219,0.0,0.0,0.0,-3.1932,-3.1932,-3.1787,-3.1409,-3.1061,-3.0451,-2.9523,-2.9464,-2.9058,-2.8158,-2.8753,-2.8741,-2.8101,-3.0258,-3.1256,-3.0942,-3.251,-3.3498,-3.3878,-3.4162,-3.4731,-3.5552,-3.6153,-3.6817,-3.7571,-3.8476,-4.0469,-4.3082,-4.424,-4.6839,-5.0258,-5.152,-5.278,-5.4098,-5.5346,-5.5571,-5.5257,-5.5359,-5.4106,-5.2136,-5.0001,-4.8402,-4.7229,-4.6898,-4.6085,-4.5354,-4.5698,-4.616,-4.7029,-4.8914,0.0,0.0,-5.5816,-5.8156,-6.0394,-6.2523,-6.4786,-6.6644,-6.7537,-6.9842,-7.1786,-7.2305,-7.3978,-7.6281,-7.9483,-7.9853,-8.0259,-8.149,-8.1616,-8.1597,-8.1678,-8.1453,-8.1207,-8.0931,-8.0646,-8.0659,-8.1003,-8.2302,-8.3601,-8.4976,-8.532,-8.5511,-8.5511,-8.5511,-8.639,-8.811,-8.811,-8.8867,-9.0212,-8.9859,-8.9427,-8.8952,-8.854,-8.871,-8.9196,-8.9121,-8.9459,-9.0039,-9.0367,-9.0575,-9.0581,-9.0581,-9.0581,-9.0581,0.0,-2.6387,-2.7084,-2.7723,-2.8419,-2.929,-3.048,-3.08,-3.1322,0.0,-3.2745,-3.2832,-3.2832,-3.2774,-3.2716,-3.2716,-3.26,-3.2019,-3.0858,-3.08,-3.0219,-2.8942,-2.9278,-2.9144,-2.8456,-3.054,-3.1269,-3.0608,-3.2405,-3.3277,-3.3214,-3.3878,-3.4225,-3.4352,-3.571,-3.6753,-3.7571,-3.9037,-4.1263,-4.3898,-4.4417,-4.752,-5.1876,-5.2267,-5.3673,-5.5632,-5.6978,-5.7035,-5.643,-5.6832,-5.5508,-5.347,-5.2335,-5.0359,-4.8415,-4.8172,-4.6806,-4.5583,-4.6309,-4.6549,-4.7011,-4.8771,-5.0581,0.0,-5.4168,-5.5986,-5.8004,-6.0438,-6.2345,-6.3905,-6.4882,-6.7101,-6.8839,-6.8952,-6.9694,-7.2071,-7.7257,-7.7933,-7.8573,-8.0397,-8.0552,-8.0766,-8.133,-8.1259,-8.1026,-8.0754,-8.0573,-8.0888,-8.1767,-8.2569,-8.341,-8.425,-8.5091,-8.5511,-8.5511,-8.5511,-8.639,-8.811,-8.811,-8.8657,-8.9714,-8.9665,-8.8969,-8.7973,-8.8727,-8.9189,-8.9491,-9.0045,-9.0226,-9.0222,-9.0914,-9.0897,-9.0581,-9.0581,-9.0581,-9.0581,-2.5698,-2.6736,-2.7752,-2.839,-2.9435,-3.0451,-3.1206,-3.2222,-3.3006,-3.3238,-3.4167,-3.4806,-3.4806,-3.4341,-3.4051,-3.4051,-3.3122,-3.2396,-3.2164,-3.2135,-3.1555,-3.0248,-3.0602,-3.03,-2.9114,-3.0701,-3.1269,-3.0505,-3.2374,-3.3024,-3.2487,-3.3182,-3.3783,-3.432,-3.5205,-3.6279,-3.7662,-4.0018,-4.2369,-4.4664,-4.525,-4.7713,-5.1262,-5.3655,-5.5864,-5.7861,-5.9237,-5.9651,-5.9322,-5.8134,-5.7235,-5.6243,-5.431,-5.2693,-5.1254,-5.0149,-4.8143,-4.6309,-4.6462,-4.6127,-4.6011,-4.7114,-4.8802,0.0,-5.1683,-5.379,-5.5858,-5.7117,-5.8765,-6.0444,-6.2045,-6.3894,-6.5387,-6.6131,-6.6989,-6.9367,-7.453,-7.5261,-7.6145,-7.8525,-7.8789,-7.8949,-7.9338,-7.9903,-8.0095,-7.9654,-8.0161,-8.0888,-8.1767,-8.2569,-8.341,-8.425,-8.5091,-8.5511,-8.5511,-8.5511,-8.639,-8.811,-8.811,-8.8657,-8.9714,-8.922,-8.8578,-8.791,-8.8243,-8.8787,-8.9491,-9.0045,-9.0554,-9.0987,-9.098,-9.0819,-9.0581,-9.0581,-9.0581,-9.0581,-2.6567,-2.7549,-2.8507,-2.9464,-3.0422,-3.138,-3.2338,-3.3035,-3.3769,-3.438,-3.5241,-3.5967,-3.6286,-3.5764,-3.5503,-3.5822,-3.498,-3.4138,-3.3499,-3.347,-3.289,-3.1613,-3.1389,-3.0895,-2.9985,-3.1102,-3.1443,-3.0768,-3.2457,-3.3119,-3.2803,-3.3151,-3.3816,-3.475,-3.5213,-3.6133,-3.7616,-4.0301,-4.2285,-4.3898,-4.6282,-4.9576,-5.3176,-5.5062,-5.7221,-5.9456,-6.0139,-6.0419,-6.0283,-5.9227,-5.8529,-5.7816,-5.6692,-5.4767,-5.2817,-5.2348,-5.0092,-4.7821,-4.7869,-4.7089,-4.6348,-4.6862,-4.7752,0.0,0.0,-5.1558,-5.3487,-5.4827,-5.612,-5.7557,-5.9343,-6.0323,-6.1352,-6.2695,-6.3633,-6.5426,-6.8908,-7.0889,-7.2899,-7.5443,-7.5746,-7.6209,-7.7373,-7.7867,-7.842,-7.9241,-7.9665,-8.0277,-8.1117,-8.234,-8.3181,-8.3639,-8.4862,-8.5511,-8.5511,-8.5511,-8.639,-8.811,-8.7824,-8.8217,-8.922,-8.8635,-8.8022,-8.7534,-8.8382,-8.905,-8.9456,-9.0411,-9.0917,-9.1206,-9.0975,-9.074,-9.0581,-9.0581,-9.0581,-9.0581,-2.744,-2.8245,-2.9087,-3.0364,-3.1206,-3.2106,-3.3296,-3.3674,-3.4283,-3.5561,-3.6331,-3.6924,-3.7445,-3.6966,-3.6777,-3.7399,-3.6777,-3.5956,-3.49,-3.4698,-3.4062,-3.2948,-3.2251,-3.1555,-3.0771,-3.1601,-3.1723,-3.0989,-3.2507,-3.3245,-3.3119,-3.3245,-3.3921,-3.5065,-3.5559,-3.6501,-3.7936,-4.0922,-4.2756,-4.3939,-4.7888,-5.1514,-5.4724,-5.5902,-5.7939,-6.0311,-6.0885,-6.1055,-6.094,-6.0648,-5.9976,-5.925,-5.8887,-5.6808,-5.461,-5.4561,-5.2308,-4.9832,-5.0005,-4.8739,-4.7433,-4.7569,-4.7714,-4.7978,0.0,0.0,0.0,-5.2987,-5.3858,-5.4869,-5.6626,-5.7065,-5.7785,-5.9529,-6.0273,-6.1246,-6.3056,-6.5691,-6.86,-7.1854,-7.2227,-7.2965,-7.4818,-7.5538,-7.6784,-7.8897,-7.9241,-7.9662,-8.0468,-8.2073,-8.299,-8.299,-8.4632,-8.5511,-8.5511,-8.5511,-8.6312,-8.7909,-8.7437,-8.7701,-8.8578,-8.8144,-8.7554,-8.7105,-8.872,-8.9346,-8.9456,-9.0701,-9.1206,-9.113,-9.0897,-9.074,-9.0581,-9.0581,-9.0581,-9.0581,-2.759,-2.8245,-2.9087,-3.0364,-3.1584,-3.2658,-3.3354,-3.4428,-3.5619,-3.6925,-3.7738,-3.8253,-3.8339,-3.794,-3.7704,-3.776,-3.7197,-3.6702,-3.6322,-3.5825,-3.5081,-3.4254,-3.3587,-3.2658,-3.1438,-3.2288,-3.2152,-3.0879,-3.2507,-3.2993,-3.2443,-3.3024,-3.371,-3.4514,-3.6313,-3.7913,-3.9422,-4.3494,-4.6007,-4.759,-5.0601,-5.201,-5.2639,-5.5311,-5.7675,-6.0077,-6.2727,-6.3431,-6.3148,-6.3119,-6.2551,-6.1637,-6.0118,-5.9087,-5.8176,-5.674,-5.4448,-5.2432,-5.2615,-5.0972,-4.9264,-4.9364,-4.9511,-4.9609,-4.9726,0.0,-5.0331,-5.1303,0.0,-5.2142,-5.3852,0.0,0.0,-5.7703,-5.7493,-5.7694,-5.9421,-6.0037,-6.2368,-6.7992,-6.8695,-6.9212,-7.0483,-7.3125,-7.5733,-7.7982,-7.9028,-7.9829,-8.0505,-8.2073,-8.299,-8.299,-8.4632,-8.5511,-8.5511,-8.5511,-8.6108,-8.7307,-8.7213,-8.7494,-8.8022,-8.7898,-8.7554,-8.7105,-8.872,-8.9275,-8.924,-9.0625,-9.113,-9.0897,-9.074,-9.0581,-9.0581,-9.0581,-9.0581,-9.0581,-2.7626,-2.8196,-2.9135,-3.0757,-3.1496,-3.2359,-3.4002,-3.5796,-3.7142,-3.7365,-3.8937,-4.0038,-4.0167,-4.0003,-3.9981,-4.0377,-3.9253,-3.8408,-3.8261,-3.7634,-3.6946,-3.6141,-3.5125,-3.4138,-3.3209,-3.3363,-3.3029,-3.2031,-3.3287,-3.353,-3.2898,-3.3561,-3.4441,-3.5433,-3.6734,-3.8297,-4.0104,-4.3093,-4.5513,-4.7539,-5.0395,-5.2566,-5.4288,-5.6751,-5.9583,-6.2427,-6.4185,-6.4845,-6.4874,-6.4619,-6.4178,-6.3592,-6.2649,-6.12,-5.972,-5.8994,-5.7008,-5.5058,-5.5357,-5.361,-5.1734,-5.1953,-5.0945,-4.9881,-4.9881,-4.9493,-4.926,-4.9609,0.0,0.0,0.0,0.0,0.0,0.0,-5.4564,-5.5272,-5.6025,-5.6992,-5.9435,-6.4482,-6.5067,-6.6,-6.8351,-7.0551,-7.2943,-7.5763,-7.7316,-7.8628,-7.974,-8.1843,-8.299,-8.299,-8.4632,-8.5511,-8.5511,-8.5511,-8.6066,-8.7213,-8.6833,-8.7117,-8.7898,-8.7526,-8.7489,-8.7766,-8.8904,-8.9531,-8.9898,-9.0808,-9.1053,-9.0897,-9.0661,-9.0581,-9.0581,-9.0581,-9.0581,-9.0581,-2.7658,-2.8172,-2.9223,-3.1237,-3.1443,-3.2241,-3.4725,-3.7037,-3.8438,-3.8382,-4.0048,-4.1279,-4.1482,-4.1367,-4.1449,-4.1928,-4.0793,-4.0011,-3.9786,-3.9106,-3.8331,-3.7738,-3.6447,-3.5363,-3.4485,-3.4435,-3.391,-3.2938,-3.3848,-3.3941,-3.3309,-3.3972,-3.4908,-3.6077,-3.7284,-3.8995,-4.1089,-4.3575,-4.5909,-4.8216,-5.1139,-5.4303,-5.7419,-5.9015,-6.1589,-6.453,-6.5455,-6.6123,-6.6486,-6.6278,-6.5918,-6.5513,-6.478,-6.3236,-6.1669,-6.1211,-5.966,-5.8067,-5.8137,-5.6464,-5.474,-5.4776,-5.3028,-5.128,-5.128,-5.027,-4.9299,-4.9299,-4.9104,0.0,0.0,0.0,-5.0231,-5.1137,0.0,-5.2691,-5.3214,-5.4138,-5.6425,-6.0971,-6.2071,-6.3437,-6.5949,-6.8025,-7.049,-7.3601,-7.5466,-7.7309,-7.9205,-8.1194,-8.2531,-8.299,-8.4403,-8.5282,-8.5511,-8.5352,-8.5855,-8.6933,-8.6326,-8.6601,-8.7618,-8.7163,-8.7435,-8.8243,-8.905,-8.9714,-9.03,-9.0954,-9.1053,-9.0819,-9.0661,-9.0581,-9.0581,-9.0581,-9.0581,-9.0581,-2.7786,-2.8174,-2.9285,-3.1589,-3.1641,-3.2414,-3.547,-3.7787,-3.9513,-4.035,-4.1137,-4.1607,-4.1771,-4.1397,-4.1175,-4.1175,-4.1055,-4.0941,-4.0763,-3.9605,-3.8921,-3.8667,-3.7289,-3.598,-3.4754,-3.537,-3.4819,-3.2938,-3.3848,-3.3941,-3.3309,-3.3972,-3.4668,-3.5514,-3.8173,-4.0525,-4.2741,-4.6271,-4.9001,-5.1183,-5.415,-5.7947,-6.1806,-6.1879,-6.3292,-6.5426,-6.6679,-6.7374,-6.7819,-6.8262,-6.8133,-6.7515,-6.5872,-6.5299,-6.4917,-6.3312,-6.2295,-6.1579,-6.0971,-5.9631,-5.828,-5.7624,-5.6136,-5.4854,-5.4854,-5.2912,-5.1125,-5.1125,-5.0464,-4.9881,-4.9881,-4.9964,-5.0278,-5.118,-5.0,0.0,0.0,-5.082,-5.2211,-5.7343,-5.9977,-6.1716,-6.2594,-6.5755,-6.8975,-7.1871,-7.3884,-7.6233,-7.9129,-8.0086,-8.1308,-8.2951,-8.3868,-8.4709,-8.5511,-8.5018,-8.5269,-8.6326,-8.5707,-8.5963,-8.6995,-8.6995,-8.7435,-8.8243,-8.905,-8.9642,-9.0076,-9.0878,-9.0975,-9.0618,-9.0581,-9.0581,-9.0581,-9.0581,-9.0581,-9.0581,-2.841,-2.8794,-2.9563,-3.0742,-3.0801,-3.1818,-3.5149,-3.7799,-3.9577,-4.0062,-4.1686,-4.2866,-4.3017,-4.3533,-4.3959,-4.3959,-4.3285,-4.2985,-4.3243,-4.2086,-4.1328,-4.1131,-3.9839,-3.8489,-3.7158,-3.7564,-3.6849,-3.4819,-3.5381,-3.5363,-3.4699,-3.492,-3.5394,-3.6153,-3.8438,-4.0565,-4.2808,-4.5833,-4.8933,-5.2269,-5.7176,-6.0311,-6.2078,-6.3033,-6.4485,-6.6234,-6.7531,-6.8278,-6.8763,-6.9169,-6.9084,-6.8661,-6.8088,-6.7133,-6.617,-6.5733,-6.4627,-6.3565,-6.359,-6.1968,-6.0218,-6.0148,-5.8389,-5.6719,-5.6719,-5.5165,-5.3533,-5.295,-5.2173,-5.1225,-5.0101,-4.9958,-4.9742,-4.89,-4.8785,-4.8837,0.0,-4.9601,-5.0946,-5.3214,-5.6709,-5.9482,-6.0923,-6.3521,-6.6433,-6.9509,-7.229,-7.4918,-7.7447,-7.9436,-8.1003,-8.2187,-8.3563,-8.4246,-8.41,-8.4499,-8.5072,-8.5707,-8.5507,-8.5963,-8.7031,-8.7545,-8.8243,-8.905,-8.9858,-9.0448,-9.0805,-9.1097,-9.0975,-9.0581,-9.0581,-9.0581,-9.0581,-9.0581,-9.0581,-9.0501,-2.9306,-2.955,-2.9997,-3.0474,-3.1541,-3.3193,-3.548,-3.8137,-3.9957,-4.0316,-4.2131,-4.3537,-4.3671,-4.4755,-4.5495,-4.5495,-4.5029,-4.4838,-4.4919,-4.3767,-4.2928,-4.2574,-4.1215,-3.99,-3.8689,-3.9282,-3.8581,-3.6285,-3.6846,-3.669,-3.5774,-3.5774,-3.5995,-3.65,-3.8531,-4.0782,-4.3174,-4.5999,-4.9297,-5.3134,-5.8757,-6.2032,-6.3709,-6.461,-6.5778,-6.7132,-6.8554,-6.9424,-7.0041,-7.0726,-7.075,-7.0495,-7.019,-6.9349,-6.8457,-6.8388,-6.741,-6.6319,-6.636,-6.4713,-6.2998,-6.2788,-6.107,-5.9399,-5.9399,-5.7845,-5.6175,-5.5631,-5.4582,-5.3363,-5.196,-5.1518,-5.0793,-4.9133,-4.9097,-4.8873,0.0,-4.8504,-4.949,-5.0322,-5.3939,0.0,0.0,0.0,-6.3821,-6.6907,-7.0208,0.0,-7.6109,-7.8404,-8.0277,-8.1767,-8.3142,-8.3707,-8.3385,-8.407,-8.4726,-8.5386,-8.5238,-8.5779,-8.7031,-8.7839,-8.8647,-8.9454,-9.0262,-9.085,-9.1206,-9.1206,-9.0975,-9.0581,-9.0581,-9.0581,-9.0581,-9.0581,-9.0421,-8.994,-3.05,-3.0554,-3.065,-3.1089,-3.3851,-3.6142,-3.6579,-3.8948,-4.0729,-4.1121,-4.2602,-4.3684,-4.3922,-4.499,-4.5723,-4.5723,-4.6238,-4.6319,-4.575,-4.4583,-4.366,-4.309,-4.1671,-4.0404,-3.9305,-4.0575,-3.9921,-3.7366,-3.8182,-3.7859,-3.6469,-3.6437,-3.6437,-3.6564,-3.8586,-4.1042,-4.3872,-4.6832,-5.0304,-5.4156,-5.9171,-6.3305,-6.6512,-6.6586,-6.71,-6.8031,-6.9714,-7.0818,-7.1626,-7.2657,-7.2979,-7.2864,-7.2024,-7.1756,-7.1669,-7.1103,-7.0452,-6.9803,-6.9187,-6.7847,-6.6431,-6.5615,-6.4139,-6.2896,-6.2896,-6.0914,-5.9127,-5.9088,-5.7729,-5.6253,-5.5372,-5.4562,-5.3435,-5.1722,-5.0663,-4.9536,-4.7845,-4.7596,-4.7897,-4.8776,0.0,0.0,0.0,0.0,-6.1433,-6.4253,-6.7687,0.0,0.0,-7.6991,-7.9092,-8.1614,-8.2531,-8.3056,-8.3263,-8.369,-8.4386,-8.5324,-8.4866,-8.5453,-8.7031,-8.7876,-8.8683,-8.9454,-9.0298,-9.0887,-9.1206,-9.1206,-9.0975,-9.0581,-9.0581,-9.0581,-9.0581,-9.0581,-8.994,-8.8932,-3.1802,-3.2426,-3.3322,-3.4267,-3.5476,-3.6629,-3.7776,-3.9157,-4.068,-4.2263,-4.3596,-4.4738,-4.5668,-4.6835,-4.7568,-4.7568,-4.7703,-4.7731,-4.7568,-4.6455,-4.5723,-4.556,-4.3876,-4.2842,-4.2754,-4.2679,-4.1595,-3.9581,-3.9372,-3.8555,-3.7196,-3.6658,-3.669,-3.7259,-3.8807,-4.1042,-4.3872,-4.6832,-5.2021,-5.8556,-6.2062,-6.4712,-6.6623,-6.7834,-6.8788,-6.9576,-7.0126,-7.0818,-7.1626,-7.2657,-7.2979,-7.2941,-7.275,-7.2673,-7.2696,-7.285,-7.229,-7.168,-7.1823,-7.0166,-6.8373,-6.814,-6.6819,-6.5537,-6.5537,-6.4488,-6.3401,-6.2779,-6.1303,-5.9659,-5.8187,-5.7251,-5.5946,-5.3625,-5.148,-4.9922,-4.9513,-4.8878,-4.8788,-4.9574,-5.0909,0.0,0.0,0.0,0.0,0.0,0.0,0.0,-7.3437,-7.5806,-7.7946,-7.9856,-8.1527,-8.2195,-8.1871,-8.276,-8.3729,-8.4801,-8.4639,-8.5453,-8.7068,-8.8463,-8.9234,-8.9491,-9.074,-9.1214,-9.1206,-9.1053,-9.0819,-9.0581,-9.0581,-9.0581,-9.0581,-9.0581,-8.994,-8.9003,-3.3322,-3.4227,-3.5493,-3.6687,-3.7288,-3.7891,-3.864,-4.015,-4.1715,-4.3063,-4.4556,-4.5831,-4.6754,-4.8165,-4.8924,-4.8653,-4.9114,-4.9196,-4.8653,-4.8002,-4.7405,-4.6889,-4.6247,-4.5636,-4.4996,-4.5314,-4.4278,-4.187,-4.1148,-4.0103,-3.8807,-3.7828,-3.7543,-3.8017,-3.9661,-4.1846,-4.4497,-4.9644,-5.5183,-6.0662,-6.3249,-6.5624,0.0,-6.8568,-6.976,-7.0967,-7.1257,-7.1907,-7.2717,-7.3762,-7.4087,-7.4087,-7.4087,-7.4418,-7.4849,-7.5166,-7.5001,-7.4734,-7.5022,-7.3268,-7.1326,-7.1326,-7.0005,-6.8723,-6.8723,-6.8062,-6.7208,-6.6392,-6.4856,-6.3169,-6.1432,-6.0177,-5.8589,-5.6013,-5.3458,-5.18,-5.1786,-5.0717,-5.0238,-5.1076,-5.1832,-5.3049,0.0,0.0,0.0,0.0,0.0,0.0,-7.2253,-7.5157,-7.7487,-7.9245,-8.1418,-8.2127,-8.1318,-8.2703,-8.3789,-8.4609,-8.4609,-8.5637,-8.7582,-8.883,-8.953,-8.9861,-9.1033,-9.1358,-9.1053,-9.0975,-9.074,-9.0581,-9.0581,-9.0304,-8.994,-8.994,-8.9529,-8.8876,-3.5046,-3.6109,-3.7338,-3.8559,-3.9319,-3.9834,-3.9997,-4.1707,-4.328,-4.404,-4.5695,-4.7025,-4.7541,-4.9114,-4.9928,-4.9413,-5.0308,-5.0444,-4.9413,-4.9277,-4.8762,-4.7649,-4.8249,-4.8021,-4.6502,-4.7609,-4.678,-4.3944,-4.2931,-4.1862,-4.0704,-3.9408,-3.8807,-3.8871,-4.0959,-4.3298,-4.614,-5.3704,-5.8544,-6.1413,-6.3775,-6.6408,-6.8935,-6.9155,-7.0381,-7.2049,-7.2698,-7.3454,-7.4237,-7.5171,-7.5577,-7.5653,-7.5653,-7.6394,-7.7301,-7.7494,-7.7703,-7.7926,-7.8126,-7.6454,-7.4706,-7.4706,-7.3462,-7.2258,-7.2258,-7.1598,-7.0743,-6.9959,-6.8345,-6.6595,-6.4987,-6.3178,-6.1131,-5.8691,-5.6259,-5.4615,-5.4494,-5.3108,-5.235,-5.3124,-5.39,0.0,0.0,0.0,0.0,0.0,0.0,0.0,0.0,-7.4393,-7.7031,-7.8789,-8.1308,-8.2228,-8.1318,-8.2901,-8.4025,-8.4706,-8.4639,-8.5857,-8.8243,-8.905,-8.9714,-9.0337,-9.1142,-9.1282,-9.0897,-9.0897,-9.074,-9.0618,-9.0421,-8.9857,-8.9106,-8.8951,-8.8693,-8.8348,-3.7483,-3.8336,-3.921,-4.0431,-4.1544,-4.2602,-4.3606,-4.3687,-4.4203,-4.5804,-4.7568,-4.8707,-4.8816,-4.9956,-5.0688,-5.058,-5.077,-5.0797,-5.0607,-5.0118,-4.9549,-4.8843,-4.7619,-4.7318,-4.7971,-4.692,-4.5878,-4.4843,-4.3747,-4.2585,-4.1399,-4.0609,-4.023,-4.0293,-4.2398,-4.5892,-5.0498,-5.6036,-5.9737,-6.2331,-6.5714,-6.7799,-6.9045,-7.0367,-7.1323,-7.2123,-7.3335,-7.413,-7.4664,-7.5281,-7.5921,-7.6494,-7.6494,-7.7237,-7.8146,-7.8343,-7.8592,-7.8818,-7.902,-7.8202,-7.7347,-7.7347,-7.657,-7.5793,-7.5793,-7.5172,-7.4367,-7.3561,-7.1455,-6.947,-6.8535,-6.5849,-6.3125,-6.125,-5.94,-5.7963,-5.7239,-5.6251,-5.5652,-5.5818,-5.6436,-5.6912,-5.7016,0.0,0.0,0.0,0.0,0.0,0.0,-7.1794,-7.4519,-7.6417,-7.9169,-8.0843,-8.1369,-8.2097,-8.3434,-8.5238,-8.4801,-8.5857,-8.8243,-8.905,-8.9714,-9.0374,-9.0993,-9.113,-9.0897,-9.074,-9.0581,-9.0501,-8.969,-8.9314,-8.9003,-8.799,-8.7458,-8.7227,-3.9282,-3.9906,-4.0696,-4.2614,-4.3443,-4.4339,-4.5858,-4.6347,-4.6862,-4.7731,-4.887,-4.982,-5.0471,-5.1312,-5.1719,-5.1394,-5.1665,-5.1719,-5.1394,-5.1394,-5.115,-5.0553,-5.0849,-5.0824,-5.0427,-4.9749,-4.8718,-4.7216,-4.5278,-4.389,-4.32,-4.2157,-4.1683,-4.1813,-4.4691,-4.8394,-5.2731,-5.7352,-6.046,-6.2546,-6.6189,-6.8421,-6.9688,-7.1102,-7.2244,-7.3164,-7.4048,-7.4664,-7.5132,-7.5427,-7.6036,-7.6685,-7.6685,-7.7834,-7.9143,-7.9257,-7.9864,-8.0513,-8.0631,-8.0028,-7.9367,-7.9367,-7.8707,-7.8046,-7.8046,-7.7736,-7.7243,-7.643,-7.4587,-7.232,-6.9804,-6.8392,-6.6862,-6.4638,-6.3259,-6.2145,-6.1264,-5.9963,-5.8975,-5.8515,-5.8773,-5.8737,-5.8143,0.0,0.0,0.0,0.0,0.0,0.0,-7.1145,-7.3911,-7.5839,-7.8912,-8.0643,-8.0987,-8.2482,-8.3841,-8.4959,-8.5551,-8.6885,-8.8867,-8.9674,-9.0337,-9.081,-9.11,-9.1053,-9.074,-9.0661,-9.0581,-9.0501,-8.9485,-8.8809,-8.8219,-8.7096,-8.644,-8.6079,-4.09,-4.1327,-4.2233,-4.4996,-4.5451,-4.6048,-4.7839,-4.8897,-4.9467,-4.9331,-5.0064,-5.0905,-5.1747,-5.2371,-5.2533,-5.2045,-5.2452,-5.2506,-5.2045,-5.2452,-5.2452,-5.1855,-5.3528,-5.3877,-5.2584,-5.2437,-5.1498,-4.9532,-4.7154,-4.554,-4.4615,-4.4085,-4.3976,-4.4349,-4.7605,-5.0957,-5.4495,-5.8623,-6.139,-6.3238,-6.6773,-6.9082,-7.0496,-7.1791,-7.3019,-7.4101,-7.4729,-7.5323,-7.5768,-7.5959,-7.6456,-7.6991,-7.7253,-7.8653,-8.02,-8.0227,-8.1043,-8.1892,-8.1892,-8.1387,-8.0882,-8.0882,-8.0377,-7.9834,-7.9834,-7.9834,-7.9632,-7.8843,-7.7355,-7.5032,-7.1194,-7.1056,-7.0665,-6.8019,-6.7073,-6.6316,-6.5172,-6.3826,-6.2555,-6.1517,-6.1383,-6.0895,-5.959,0.0,0.0,0.0,0.0,0.0,-6.7515,-7.0686,-7.3453,-7.5573,-7.8782,-8.0591,-8.0749,-8.2972,-8.4273,-8.4772,-8.6292,-8.7839,-8.9454,-9.0225,-9.0814,-9.1206,-9.1206,-9.0975,-9.0581,-9.0581,-9.0501,-9.0222,-8.9192,-8.8184,-8.7126,-8.626,-8.5543,-8.5077,-4.25,-4.3019,-4.4069,-4.7271,-4.792,-4.8517,-5.0308,-5.0661,-5.0553,-5.001,-5.1394,-5.2289,-5.1882,-5.2371,-5.2696,-5.2642,-5.2696,-5.2696,-5.2642,-5.2696,-5.2452,-5.1855,-5.1933,-5.2437,-5.3221,-5.1943,-5.1092,-5.0824,-4.9501,-4.7372,-4.4463,-4.6508,-4.8079,-4.9422,-5.1194,-5.3645,-5.6702,-6.0397,-6.326,-6.5636,-6.8669,-7.0403,-7.1341,-7.268,-7.3541,-7.4177,-7.5409,-7.616,-7.6723,-7.7487,-7.7831,-7.8058,-7.9023,-8.0123,-8.1088,-8.1296,-8.1596,-8.1892,-8.1892,-8.1854,-8.1776,-8.1776,-8.1737,-8.1659,-8.1659,-8.1659,-8.1454,-8.0688,-7.9257,-7.7282,-7.4528,-7.4084,-7.3291,-7.0661,-7.0249,-6.9653,-6.7961,-6.7547,-6.678,-6.5114,-6.4919,-6.413,-6.2159,-6.2684,0.0,0.0,0.0,0.0,0.0,-6.9273,-7.1893,-7.4702,-7.7551,-7.9742,-8.1318,-8.2769,-8.412,-8.5361,-8.6458,-8.7839,-8.9454,-9.0225,-9.0814,-9.1206,-9.1206,-9.0975,-9.0581,-9.0581,-9.0022,-8.9106,-8.8149,-8.7126,-8.6191,-8.5603,-8.4783,-8.4076,-4.4145,-4.4707,-4.5773,-4.9243,-4.9847,-5.02,-5.1285,-5.1774,-5.2018,-5.2154,-5.2479,-5.275,-5.2886,-5.3103,-5.3239,-5.3239,-5.3239,-5.3239,-5.3239,-5.3239,-5.313,-5.2913,-5.3838,-5.4208,-5.3888,-5.3832,-5.3346,-5.2219,-5.0971,-4.9334,-4.7572,-4.8485,-5.0098,-5.2169,-5.3281,-5.5581,-5.901,-6.2249,-6.4649,-6.6584,-6.9587,-7.1177,-7.1886,-7.323,-7.431,-7.5291,-7.6121,-7.6883,-7.7602,-7.8481,-7.8787,-7.8897,-7.944,-8.0346,-8.1242,-8.1437,-8.1695,-8.1892,-8.1892,-8.1892,-8.1892,-8.1892,-8.1892,-8.1892,-8.1892,-8.1892,-8.1843,-8.1633,-8.0703,-7.9332,-7.7243,-7.7268,-7.6951,-7.4822,-7.4525,-7.4102,-7.2877,-7.1798,-7.0639,-6.9401,-6.8202,-6.6897,-6.5451,-6.5016,0.0,0.0,0.0,0.0,0.0,-6.9992,-7.2699,-7.5346,-7.7816,-7.9891,-8.1624,-8.3298,-8.4889,-8.6406,-8.7794,-8.905,-9.0152,-9.0959,-9.129,-9.1206,-9.0975,-9.074,-9.0501,-8.994,-8.9485,-8.8932,-8.7316,-8.6483,-8.5955,-8.5018,-8.4228,-8.3908,-4.538,-4.6141,-4.7328,-5.0425,-5.1323,-5.1909,-5.2506,-5.313,-5.3673,-5.408,-5.3782,-5.3592,-5.3836,-5.3863,-5.3782,-5.3619,-5.3592,-5.3592,-5.3592,-5.3592,-5.3713,-5.4166,-5.5481,-5.602,-5.5645,-5.5871,-5.5409,-5.4142,-5.2781,-5.1398,-4.9846,-5.0498,-5.2263,-5.4804,-5.5826,-5.8047,-6.129,-6.3831,-6.5992,-6.7992,-7.036,-7.1728,-7.2532,-7.3859,-7.5079,-7.6152,-7.7112,-7.787,-7.8519,-7.936,-7.97,-7.9769,-7.9998,-8.0568,-8.1269,-8.1546,-8.1775,-8.1892,-8.1892,-8.1892,-8.1892,-8.1892,-8.1892,-8.1892,-8.1892,-8.1892,-8.192,-8.2062,-8.1718,-8.091,-7.9449,-7.9678,-7.96,-7.8116,-7.7863,-7.7528,-7.6661,-7.5494,-7.4255,-7.3103,-7.1498,-6.9966,-6.8586,-6.7734,0.0,0.0,0.0,0.0,-6.8384,-7.1067,-7.3522,-7.5626,-7.826,-8.0337,-8.1784,-8.3908,-8.5637,-8.7031,-8.8647,-8.9821,-9.0629,-9.129,-9.1433,-9.113,-9.074,-9.0581,-9.0501,-8.9485,-8.8932,-8.8454,-8.6776,-8.5921,-8.5447,-8.4466,-8.4018,-8.4099,-4.6316,-4.7395,-4.8722,-5.0864,-5.2554,-5.3754,-5.4351,-5.4976,-5.5383,-5.5383,-5.5383,-5.5138,-5.4541,-5.446,-5.4243,-5.3646,-5.3592,-5.3592,-5.3592,-5.3592,-5.4166,-5.5295,-5.5935,-5.7101,-5.8949,-5.7486,-5.673,-5.67,-5.5627,-5.3423,-5.032,-5.2486,-5.5046,-5.7925,-5.9492,-6.1432,-6.3647,-6.5112,-6.7429,-7.0314,-7.1019,-7.206,-7.3424,-7.4758,-7.5569,-7.6303,-7.8484,-7.9283,-7.9398,-8.02,-8.0611,-8.0844,-8.109,-8.1214,-8.1296,-8.1755,-8.1892,-8.1892,-8.1892,-8.1892,-8.1892,-8.1892,-8.1892,-8.1892,-8.1892,-8.1892,-8.192,-8.2062,-8.2139,-8.1951,-8.1134,-8.0966,-8.0693,-7.9795,-7.9604,-7.9266,-7.8408,-7.8241,-7.7584,-7.5869,-7.4856,-7.3508,-7.1355,-7.1059,-7.0502,-6.926,-7.0989,-7.1406,-6.9778,-7.205,-7.3964,-7.5173,-7.8607,-8.0893,-8.1784,-8.4461,-8.6187,-8.7031,-8.8647,-8.9821,-9.0629,-9.0993,-9.113,-9.0897,-9.0661,-9.0581,-9.0501,-8.9485,-8.8544,-8.7504,-8.6483,-8.5344,-8.4211,-8.3884,-8.3988,-8.4498,-4.8441,-4.9057,-5.0053,-5.2481,-5.3429,-5.3993,-5.496,-5.5301,-5.5573,-5.5952,-5.6007,-5.5952,-5.5735,-5.5355,-5.503,-5.484,-5.484,-5.484,-5.484,-5.484,-5.5401,-5.6648,-5.7598,-5.8449,-5.9009,-5.9387,-5.8824,-5.7438,-5.6642,-5.5803,-5.4826,-5.5861,-5.7679,-6.0281,-6.1321,-6.3275,-6.5901,-6.7415,-6.9192,-7.1092,-7.2226,-7.3476,-7.4768,-7.5494,-7.6797,-7.8332,-7.9055,-7.9627,-8.0162,-8.0391,-8.0611,-8.0844,-8.1128,-8.1285,-8.1475,-8.1796,-8.1892,-8.1892,-8.1892,-8.1892,-8.1892,-8.1892,-8.1892,-8.1892,-8.1892,-8.1959,-8.2036,-8.2085,-8.2187,-8.2198,-8.1948,-8.1903,-8.1779,-8.1453,-8.139,-8.1246,-8.0963,-8.0374,-7.9728,-7.9003,-7.7485,-7.6161,-7.5323,-7.4533,-7.3935,-7.3548,-7.4593,-7.4372,-7.2316,-7.3897,-7.5745,-7.7678,-7.976,-8.1699,-8.3418,-8.5013,-8.6738,-8.8647,-8.916,-9.0043,-9.1217,-9.1212,-9.113,-9.0897,-9.0661,-9.0222,-8.9485,-8.8544,-8.7504,-8.6483,-8.5447,-8.4679,-8.4211,-8.3884,-8.3988,-8.4498,-4.9291,-4.99,-5.0795,-5.2855,-5.3737,-5.4565,-5.5609,-5.5925,-5.6224,-5.6577,-5.6631,-5.6631,-5.6631,-5.6305,-5.5898,-5.5464,-5.541,-5.541,-5.541,-5.5881,-5.6687,-5.7928,-5.9219,-6.0007,-6.0439,-6.0971,-6.0547,-5.9285,-5.8825,-5.8839,-5.9278,-5.9844,-6.1163,-6.3048,-6.3531,-6.5197,-6.7731,-6.8796,-7.0365,-7.2296,-7.3347,-7.4549,-7.5868,-7.662,-7.791,-7.9321,-7.9627,-8.0047,-8.0506,-8.0506,-8.0681,-8.097,-8.1157,-8.1426,-8.1695,-8.1873,-8.1892,-8.1892,-8.1892,-8.1892,-8.1892,-8.1892,-8.1892,-8.1892,-8.1892,-8.1987,-8.2062,-8.2092,-8.2187,-8.2281,-8.2299,-8.2287,-8.2241,-8.2226,-8.2162,-8.2133,-8.2112,-8.1533,-8.1081,-8.0901,-7.946,-7.8348,-7.8083,-7.7176,-7.6518,-7.6418,-7.7303,-7.7146,-7.5544,-7.6368,-7.7266,-7.8255,-8.0616,-8.2711,-8.431,-8.5912,-8.7766,-8.9858,-9.008,-9.0594,-9.1358,-9.1206,-9.0975,-9.074,-9.0661,-9.0022,-8.9019,-8.7967,-8.703,-8.6022,-8.489,-8.4319,-8.4027,-8.4076,-8.431,-8.4703,-4.9181,-4.9976,-5.103,-5.2093,-5.3583,-5.502,-5.6232,-5.6821,-5.7174,-5.7174,-5.7174,-5.7174,-5.7174,-5.7174,-5.6739,-5.5627,-5.5545,-5.5545,-5.5545,-5.6676,-5.7831,-5.9219,-6.0398,-6.1549,-6.2887,-6.221,-6.1809,-6.1656,-6.1806,-6.2327,-6.3269,-6.4051,-6.5039,-6.6117,-6.6194,-6.7403,-6.9475,-6.9475,-7.1187,-7.3839,-7.4401,-7.5458,-7.6733,-7.8068,-7.8901,-7.9474,-8.0238,-8.0506,-8.0506,-8.0543,-8.0817,-8.1214,-8.1214,-8.1538,-8.1892,-8.1892,-8.1892,-8.1892,-8.1892,-8.1892,-8.1892,-8.1892,-8.1892,-8.1892,-8.1911,-8.1983,-8.2034,-8.2092,-8.218,-8.2223,-8.2305,-8.2241,-8.2226,-8.2187,-8.2153,-8.2112,-8.2062,-8.1875,-8.1718,-8.1738,-8.081,-8.0073,-7.9939,-7.9215,-7.8596,-7.8364,-7.9353,-7.9713,-7.9191,-7.9204,-7.881,-7.7635,-8.1489,-8.3948,-8.4756,-8.7105,-8.905,-9.0629,-9.118,-9.1433,-9.1206,-9.0975,-9.0819,-9.0618,-9.0501,-8.994,-8.8932,-8.7875,-8.6934,-8.5921,-8.4679,-8.3993,-8.3875,-8.4244,-8.467,-8.5202,-5.0311,-5.0451,-5.1264,-5.3106,-5.3881,-5.4785,-5.6699,-5.7092,-5.7174,-5.7174,-5.7174,-5.7174,-5.7174,-5.7174,-5.7065,-5.6794,-5.6766,-5.6766,-5.6766,-5.6995,-5.8174,-6.0406,-6.091,-6.1838,-6.3486,-6.2918,-6.1809,-6.027,-6.2331,-6.3246,-6.3153,-6.5581,-6.7236,-6.8223,-6.8983,-7.0268,-7.194,-7.2449,-7.3416,-7.4742,-7.5678,-7.6579,-7.7523,-7.8666,-7.9553,-8.0238,-8.043,-8.0506,-8.0505,-8.0681,-8.0939,-8.1242,-8.1362,-8.1652,-8.1892,-8.1892,-8.1892,-8.1892,-8.1892,-8.1892,-8.1892,-8.1892,-8.1892,-8.189,-8.1944,-8.2045,-8.2092,-8.2141,-8.2221,-8.2271,-8.2293,-8.2287,-8.228,-8.221,-8.2192,-8.2101,-8.1804,-8.1735,-8.1812,-8.2052,-8.1822,-8.1792,-8.2181,-8.203,-8.1879,-8.1805,-8.2281,-8.2274,-8.1745,-8.2501,-8.2371,-8.1048,-8.3765,-8.5637,-8.6444,-8.8243,-8.9638,-9.0629,-9.118,-9.1433,-9.1206,-9.0975,-9.0819,-9.0581,-8.9773,-8.8897,-8.7875,-8.6838,-8.582,-8.489,-8.4392,-8.3993,-8.3875,-8.4244,-8.467,-8.5202,-5.0696,-5.1095,-5.1886,-5.3623,-5.4325,-5.526,-5.6915,-5.7174,-5.7174,-5.7174,-5.7174,-5.7174,-5.7174,-5.7174,-5.7174,-5.7174,-5.7174,-5.7174,-5.7174,-5.7788,-5.8968,-6.087,-6.1585,-6.2635,-6.4334,-6.3964,-6.3225,-6.2117,-6.4179,-6.5251,-6.5204,-6.7435,-6.8905,-6.9611,-7.0539,-7.1579,-7.2797,-7.3513,-7.4478,-7.5551,-7.6654,-7.7502,-7.8398,-7.9434,-8.0124,-8.0506,-8.0506,-8.0506,-8.0505,-8.0711,-8.097,-8.1242,-8.1437,-8.1695,-8.1892,-8.1892,-8.1892,-8.1892,-8.1892,-8.1892,-8.1892,-8.1892,-8.1892,-8.1908,-8.2,-8.2036,-8.2115,-8.2187,-8.225,-8.2293,-8.2293,-8.2287,-8.2234,-8.2201,-8.2494,-8.2623,-8.2357,-8.2531,-8.2714,-8.2771,-8.2655,-8.2677,-8.299,-8.299,-8.3181,-8.3563,-8.3834,-8.3899,-8.3735,-8.4737,-8.4669,-8.3324,-8.527,-8.6921,-8.8096,-8.9711,-9.0739,-9.1143,-9.1289,-9.1282,-9.1206,-9.0897,-9.0661,-9.0501,-8.9569,-8.8544,-8.7504,-8.6483,-8.5447,-8.4426,-8.4102,-8.4085,-8.4122,-8.4551,-8.5053,-8.5699,-5.0696,-5.1492,-5.2416,-5.3623,-5.4727,-5.5815,-5.7044,-5.7174,-5.7174,-5.7174,-5.7174,-5.7174,-5.7174,-5.7174,-5.7174,-5.7174,-5.7174,-5.7174,-5.7174,-5.827,-5.9465,-6.099,-6.2056,-6.3304,-6.4888,-6.4795,-6.4782,-6.4768,-6.6288,-6.7297,-6.7874,-6.9343,-7.0325,-7.0739,-7.1672,-7.2469,-7.3119,-7.4007,-7.5087,-7.6397,-7.7475,-7.829,-7.8989,-8.0081,-8.0506,-8.0506,-8.0506,-8.0506,-8.0505,-8.0778,-8.1,-8.1242,-8.1499,-8.1716,-8.1892,-8.1892,-8.1892,-8.1892,-8.1892,-8.1892,-8.1892,-8.1892,-8.1892,-8.1908,-8.1987,-8.2045,-8.2115,-8.2187,-8.2246,-8.2293,-8.2293,-8.2241,-8.2257,-8.2348,-8.2952,-8.3338,-8.3155,-8.3561,-8.3807,-8.3561,-8.333,-8.3295,-8.3563,-8.3563,-8.3945,-8.4824,-8.5044,-8.5285,-8.5612,-8.643,-8.6454,-8.5527,-8.6738,-8.8133,-8.9748,-9.1106,-9.1803,-9.173,-9.1358,-9.1206,-9.113,-9.074,-9.0501,-9.0304,-8.9278,-8.8275,-8.7316,-8.6286,-8.517,-8.4211,-8.3985,-8.4088,-8.4498,-8.5053,-8.5666,-8.6262,-5.0696,-5.0837,-5.1632,-5.3487,-5.4029,-5.4861,-5.6915,-5.7174,-5.7174,-5.7174,-5.7174,-5.7174,-5.7174,-5.7174,-5.7174,-5.7174,-5.7174,-5.7174,-5.7174,-5.7431,-5.8494,-6.087,-6.1229,-6.2436,-6.4888,-6.4303,-6.4088,-6.4484,-6.6181,-6.7685,-6.8818,-7.0724,-7.1816,-7.2038,-7.3758,-7.4581,-7.4726,-7.617,-7.6888,-7.7242,-7.8245,-7.8778,-7.8989,-8.0081,-8.0506,-8.0506,-8.0506,-8.0506,-8.0542,-8.1008,-8.1186,-8.1269,-8.1674,-8.1873,-8.1892,-8.1892,-8.1892,-8.1892,-8.1892,-8.1892,-8.1892,-8.1892,-8.1892,-8.1943,-8.2045,-8.2092,-8.2125,-8.2246,-8.2299,-8.2293,-8.2293,-8.2241,-8.2452,-8.3167,-8.3381,-8.3492,-8.3716,-8.385,-8.3982,-8.4134,-8.4136,-8.4632,-8.6084,-8.6199,-8.6581,-8.7422,-8.722,-8.7394,-8.8073,-8.8043,-8.8492,-8.9638,-8.9271,-8.9821,-9.14,-9.1693,-9.173,-9.1583,-9.1358,-9.113,-9.0975,-9.0661,-9.0141,-8.9314,-8.8239,-8.7221,-8.6187,-8.4961,-8.4392,-8.4169,-8.4333,-8.4298,-8.4564,-8.5617,-8.6063,-8.6262,-5.0696,-5.1632,-5.2717,-5.3759,-5.4861,-5.6078,-5.7044,-5.7174,-5.7174,-5.7174,-5.7174,-5.7174,-5.7174,-5.7174,-5.7174,-5.7174,-5.7174,-5.7174,-5.7174,-5.7174,-5.8368,-6.087,-6.099,-6.2203,-6.4888,-6.458,-6.4754,-6.5511,-6.6992,-6.8435,-6.9787,-7.1396,-7.2331,-7.2586,-7.4264,-7.501,-7.5083,-7.6664,-7.7487,-7.7826,-7.8588,-7.9085,-7.9403,-8.0199,-8.0506,-8.0506,-8.0506,-8.0578,-8.0716,-8.1099,-8.1258,-8.1451,-8.1775,-8.1892,-8.1892,-8.1892,-8.1892,-8.1892,-8.1892,-8.1892,-8.1892,-8.1892,-8.1926,-8.2104,-8.2624,-8.2788,-8.2967,-8.3521,-8.3269,-8.3074,-8.3568,-8.3249,-8.3185,-8.4005,-8.4403,-8.4587,-8.4533,-8.485,-8.501,-8.494,-8.4938,-8.5435,-8.6696,-8.681,-8.7184,-8.8188,-8.7763,-8.7923,-8.8847,-8.8457,-8.894,-9.0555,-9.0665,-9.1069,-9.1803,-9.1803,-9.173,-9.1508,-9.1282,-9.113,-9.0897,-9.0105,-8.9569,-8.9019,-8.7504,-8.6581,-8.6022,-8.4679,-8.4102,-8.406,-8.4322,-8.4518,-8.4935,-8.5882,-8.631,-8.6588,-5.0696,-5.2164,-5.3623,-5.3894,-5.5551,-5.6915,-5.7174,-5.7174,-5.7174,-5.7174,-5.7174,-5.7174,-5.7174,-5.7174,-5.7174,-5.7174,-5.7174,-5.7174,-5.7174,-5.7431,-5.862,-6.087,-6.1585,-6.2814,-6.4888,-6.4888,-6.5592,-6.6878,-6.7838,-6.9217,-7.0781,-7.1742,-7.2467,-7.3053,-7.4416,-7.5083,-7.537,-7.6728,-7.7629,-7.8146,-7.869,-7.9218,-7.9751,-8.0315,-8.0506,-8.0506,-8.0506,-8.0611,-8.0844,-8.109,-8.1311,-8.1569,-8.1815,-8.1892,-8.1892,-8.1892,-8.2048,-8.2126,-8.1931,-8.2048,-8.2183,-8.218,-8.2372,-8.2775,-8.3471,-8.3665,-8.3904,-8.4648,-8.4284,-8.4004,-8.4693,-8.4247,-8.4074,-8.4891,-8.5331,-8.5543,-8.5398,-8.5745,-8.5881,-8.5551,-8.5702,-8.6161,-8.704,-8.7269,-8.7747,-8.8663,-8.8338,-8.8483,-8.931,-8.8988,-8.9417,-9.0849,-9.1473,-9.1803,-9.1803,-9.1803,-9.1657,-9.1433,-9.1282,-9.1053,-9.0819,-8.9654,-8.9019,-8.8633,-8.6873,-8.5921,-8.5549,-8.4776,-8.4262,-8.3999,-8.4564,-8.5068,-8.5434,-8.6163,-8.6555,-8.681,-5.0696,-5.1632,-5.2692,-5.3759,-5.4861,-5.6105,-5.7044,-5.7174,-5.7174,-5.7174,-5.7174,-5.7174,-5.7174,-5.7174,-5.7174,-5.7174,-5.7174,-5.7174,-5.7174,-5.827,-5.9588,-6.099,-6.3304,-6.4666,-6.4888,-6.4888,-6.5884,-6.7971,-6.8072,-6.9442,-7.1898,-7.1985,-7.2602,-7.3721,-7.4642,-7.537,-7.6135,-7.6956,-7.7629,-7.8146,-7.869,-7.9218,-7.9751,-8.0315,-8.0506,-8.0506,-8.0506,-8.0611,-8.0844,-8.109,-8.1311,-8.1569,-8.1815,-8.1892,-8.1892,-8.1892,-8.2436,-8.2864,-8.2087,-8.2436,-8.3036,-8.3077,-8.3702,-8.4356,-8.4565,-8.4609,-8.4646,-8.4765,-8.4753,-8.4707,-8.4802,-8.4746,-8.4951,-8.5777,-8.5665,-8.5695,-8.6236,-8.6122,-8.5881,-8.5551,-8.6199,-8.704,-8.7918,-8.8683,-8.9234,-8.9611,-8.977,-8.9943,-9.0164,-9.0389,-9.0812,-9.1693,-9.1767,-9.1803,-9.1803,-9.1803,-9.1583,-9.1206,-9.1206,-9.0975,-9.0581,-8.9569,-8.8633,-8.769,-8.6581,-8.5447,-8.4352,-8.4732,-8.4668,-8.4464,-8.5666,-8.603,-8.6196,-8.6925,-8.6984,-8.681,-5.0696,-5.2164,-5.3351,-5.3894,-5.5393,-5.6785,-5.7174,-5.7174,-5.7174,-5.7174,-5.7174,-5.7174,-5.7174,-5.7174,-5.7174,-5.7174,-5.7174,-5.7174,-5.7174,-5.9093,-6.087,-6.2056,-6.3902,-6.4888,-6.4888,-6.4888,-6.5991,-6.8072,-6.8239,-6.9537,-7.1985,-7.2159,-7.2769,-7.3799,-7.4642,-7.5441,-7.627,-7.6993,-7.7826,-7.8588,-7.8791,-7.9403,-8.0199,-8.0392,-8.0506,-8.0506,-8.0506,-8.0716,-8.106,-8.1186,-8.1451,-8.1775,-8.1873,-8.1892,-8.2009,-8.2514,-8.2864,-8.3136,-8.3408,-8.3679,-8.393,-8.3987,-8.4267,-8.4739,-8.535,-8.5539,-8.5717,-8.6321,-8.5963,-8.5761,-8.6268,-8.5907,-8.581,-8.6611,-8.636,-8.6156,-8.6365,-8.5973,-8.582,-8.6237,-8.6619,-8.7345,-8.8721,-8.9141,-8.926,-8.9145,-8.9666,-8.9915,-8.9756,-9.0772,-9.1473,-9.1803,-9.1803,-9.1803,-9.1803,-9.1803,-9.1583,-9.1206,-9.1206,-9.0975,-9.0501,-8.8897,-8.7967,-8.7504,-8.5921,-8.4785,-8.4278,-8.4689,-8.4656,-8.4531,-8.5716,-8.6163,-8.6262,-8.6753,-8.6777,-8.6413,-5.0696,-5.2441,-5.3894,-5.3894,-5.5683,-5.7174,-5.7174,-5.7174,-5.7174,-5.7174,-5.7174,-5.7174,-5.7174,-5.7174,-5.7174,-5.7174,-5.7174,-5.7174,-5.7174,-5.956,-6.1704,-6.3418,-6.4412,-6.4888,-6.4888,-6.5187,-6.6311,-6.8072,-6.8568,-6.9822,-7.1898,-7.2072,-7.2901,-7.4111,-7.4716,-7.5582,-7.657,-7.7118,-7.7903,-7.8891,-7.8891,-7.9538,-8.0506,-8.0506,-8.0506,-8.0506,-8.0578,-8.0849,-8.1214,-8.1258,-8.1546,-8.1892,-8.1892,-8.2087,-8.2398,-8.2941,-8.3485,-8.4029,-8.4651,-8.5,-8.5221,-8.4986,-8.52,-8.5612,-8.6287,-8.6498,-8.6666,-8.729,-8.6939,-8.6652,-8.7195,-8.6795,-8.6529,-8.6996,-8.6704,-8.6351,-8.6307,-8.6038,-8.6123,-8.6734,-8.7269,-8.8033,-8.9179,-8.9397,-8.9365,-8.9197,-8.9739,-9.0131,-9.0149,-9.1216,-9.1803,-9.1803,-9.1803,-9.1803,-9.1803,-9.173,-9.1583,-9.1206,-9.113,-9.0897,-9.0501,-8.8544,-8.7597,-8.7504,-8.5344,-8.4319,-8.4169,-8.4812,-8.4877,-8.4784,-8.6048,-8.6527,-8.6593,-8.6732,-8.6535,-8.6291,-5.0696,-5.2441,-5.3894,-5.3894,-5.5683,-5.7174,-5.7174,-5.7174,-5.7174,-5.7174,-5.7174,-5.7174,-5.7174,-5.7174,-5.7174,-5.7174,-5.7174,-5.7174,-5.7174,-5.956,-6.2203,-6.4777,-6.4888,-6.4888,-6.4888,-6.5991,-6.6982,-6.8072,-6.9187,-7.0356,-7.16,-7.1898,-7.2984,-7.4681,-7.4937,-7.5895,-7.7341,-7.7341,-7.7903,-7.8891,-7.8891,-7.9538,-8.0506,-8.0506,-8.0506,-8.0543,-8.0711,-8.097,-8.1242,-8.1412,-8.1674,-8.1892,-8.1892,-8.2475,-8.3097,-8.3136,-8.434,-8.57,-8.57,-8.6389,-8.6896,-8.6105,-8.6627,-8.7303,-8.7381,-8.7407,-8.7407,-8.7407,-8.7407,-8.7393,-8.7312,-8.7302,-8.7208,-8.6884,-8.6592,-8.6307,-8.6011,-8.6431,-8.681,-8.681,-8.8301,-8.9294,-8.9332,-8.9543,-8.9767,-8.9968,-9.0204,-9.0728,-9.1766,-9.1803,-9.1803,-9.1803,-9.1803,-9.1803,-9.1803,-9.1583,-9.1433,-9.1206,-9.0975,-9.0819,-9.0501,-8.8508,-8.7597,-8.7504,-8.5136,-8.4102,-8.3875,-8.5011,-8.5301,-8.5268,-8.6693,-8.7256,-8.7289,-8.693,-8.6535,-8.6291,-5.0696,-5.2441,-5.3894,-5.3894,-5.5683,-5.7174,-5.7174,-5.7174,-5.7174,-5.7174,-5.7174,-5.7174,-5.7174,-5.7174,-5.7174,-5.7174,-5.7174,-5.8016,-5.9806,-6.1467,-6.3044,-6.4777,-6.4888,-6.4888,-6.4888,-6.5991,-6.6982,-6.8072,-6.9187,-7.0448,-7.1898,-7.1985,-7.3344,-7.5722,-7.5796,-7.7014,-7.9055,-7.8818,-7.9111,-7.9717,-7.9538,-7.9916,-8.0506,-8.0506,-8.0506,-8.0543,-8.0711,-8.097,-8.1242,-8.1412,-8.1674,-8.2009,-8.2553,-8.2903,-8.333,-8.4573,-8.5272,-8.5816,-8.6438,-8.6909,-8.7104,-8.6854,-8.7057,-8.7303,-8.7381,-8.7407,-8.7407,-8.7407,-8.7407,-8.7401,-8.7369,-8.7312,-8.7208,-8.6921,-8.6615,-8.6307,-8.6011,-8.6431,-8.704,-8.7651,-8.8644,-8.9561,-9.0173,-8.9885,-8.9767,-8.9968,-9.036,-9.0879,-9.173,-9.1803,-9.1803,-9.1803,-9.1803,-9.173,-9.1583,-9.1508,-9.1433,-9.1206,-9.0975,-9.0465,-8.9485,-8.8149,-8.7221,-8.6483,-8.4856,-8.4102,-8.3841,-8.4444,-8.4836,-8.5202,-8.613,-8.6825,-8.7256,-8.6656,-8.6413,-8.6291,-5.1236,-5.2692,-5.4029,-5.4459,-5.6078,-5.7174,-5.7174,-5.7174,-5.7174,-5.7174,-5.7174,-5.7174,-5.7174,-5.7174,-5.7174,-5.7174,-5.7661,-5.8871,-6.087,-6.2173,-6.3532,-6.4888,-6.4888,-6.5108,-6.5483,-6.6596,-6.7701,-6.8765,-6.9794,-7.0849,-7.1898,-7.2571,-7.4054,-7.6078,-7.6876,-7.8122,-7.979,-7.9829,-8.0132,-8.0631,-8.0704,-8.0798,-8.1003,-8.1003,-8.0812,-8.0542,-8.0844,-8.106,-8.1269,-8.1546,-8.1969,-8.2475,-8.2941,-8.3563,-8.434,-8.5389,-8.5933,-8.6321,-8.6865,-8.7092,-8.7212,-8.7212,-8.726,-8.7369,-8.7375,-8.7407,-8.7407,-8.7407,-8.7407,-8.7401,-8.7386,-8.736,-8.7157,-8.6749,-8.6529,-8.6394,-8.6342,-8.6892,-8.7651,-8.8453,-8.9332,-8.9936,-9.0219,-9.0017,-8.9947,-9.023,-9.0753,-9.1289,-9.1767,-9.1803,-9.1803,-9.1803,-9.1803,-9.173,-9.1508,-9.1433,-9.1282,-9.1053,-9.0897,-9.0186,-8.9106,-8.8058,-8.703,-8.5887,-8.4573,-8.3884,-8.3621,-8.4098,-8.4522,-8.5169,-8.5898,-8.6627,-8.705,-8.6535,-8.6169,-8.6046,-5.2139,-5.324,-5.4325,-5.5419,-5.6497,-5.7174,-5.7174,-5.7174,-5.7174,-5.7174,-5.7174,-5.7174,-5.7174,-5.7174,-5.7174,-5.7174,-5.8522,-5.9806,-6.087,-6.232,-6.3645,-6.4888,-6.4888,-6.5515,-6.6596,-6.7599,-6.8568,-6.9666,-7.0791,-7.1367,-7.1722,-7.3545,-7.4958,-7.6071,-7.7954,-7.9184,-8.0047,-8.0555,-8.1045,-8.1533,-8.2074,-8.2136,-8.192,-8.192,-8.1423,-8.0771,-8.1231,-8.1446,-8.1462,-8.1871,-8.2553,-8.3213,-8.3213,-8.434,-8.57,-8.5777,-8.636,-8.6982,-8.7001,-8.7105,-8.7212,-8.7219,-8.7304,-8.7407,-8.7407,-8.7407,-8.7407,-8.7407,-8.7407,-8.7401,-8.7386,-8.7312,-8.7078,-8.6499,-8.6442,-8.6547,-8.6776,-8.7613,-8.8492,-8.9218,-9.0058,-9.0422,-8.9877,-9.0018,-9.0279,-9.0554,-9.1363,-9.1803,-9.1803,-9.1803,-9.1803,-9.1803,-9.1803,-9.1657,-9.1508,-9.1282,-9.1053,-9.0897,-9.0581,-8.994,-8.8932,-8.7875,-8.6741,-8.5515,-8.4359,-8.3665,-8.3365,-8.3726,-8.4374,-8.5169,-8.5832,-8.6323,-8.681,-8.6413,-8.6046,-8.5799,-5.2278,-5.392,-5.5286,-5.5551,-5.6497,-5.7174,-5.7174,-5.7174,-5.7174,-5.7174,-5.7174,-5.7174,-5.7174,-5.7174,-5.7174,-5.7174,-5.9341,-6.075,-6.099,-6.3189,-6.4635,-6.4888,-6.4888,-6.5808,-6.7668,-6.7971,-6.8568,-6.9666,-7.0791,-7.1491,-7.1898,-7.3579,-7.5354,-7.7116,-7.8818,-8.0313,-8.1663,-8.2034,-8.2242,-8.2359,-8.2694,-8.2797,-8.2722,-8.2722,-8.2607,-8.2492,-8.3002,-8.3182,-8.3123,-8.2919,-8.3408,-8.4107,-8.4107,-8.4845,-8.5816,-8.6515,-8.6865,-8.7021,-8.7044,-8.7125,-8.7225,-8.726,-8.7333,-8.7407,-8.7407,-8.7407,-8.7407,-8.7407,-8.7407,-8.7407,-8.7401,-8.7181,-8.6878,-8.6522,-8.677,-8.6983,-8.6852,-8.811,-8.9103,-8.9294,-9.0058,-9.0606,-9.0673,-9.098,-9.1009,-9.0627,-9.1363,-9.1803,-9.1803,-9.1803,-9.1803,-9.1803,-9.1657,-9.1508,-9.1282,-9.1053,-9.0975,-9.0897,-8.9904,-8.8932,-8.7875,-8.6838,-8.5719,-8.4466,-8.396,-8.3665,-8.3332,-8.3162,-8.391,-8.5136,-8.5268,-8.5894,-8.681,-8.6413,-8.6046,-8.5799,-5.2941,-5.4459,-5.571,-5.6236,-5.6785,-5.7174,-5.7174,-5.7174,-5.7282,-5.7553,-5.7608,-5.7716,-5.8015,-5.8042,-5.7933,-5.7635,-6.0013,-6.1338,-6.1019,-6.3418,-6.4888,-6.4888,-6.5406,-6.6385,-6.8072,-6.8568,-6.9379,-7.0482,-7.1007,-7.158,-7.2019,-7.4391,-7.6215,-7.7551,-7.9858,-8.1416,-8.2215,-8.2949,-8.3247,-8.3312,-8.3921,-8.3945,-8.3601,-8.3601,-8.3448,-8.3246,-8.3603,-8.3861,-8.4025,-8.3775,-8.4301,-8.5039,-8.5039,-8.5622,-8.6399,-8.6865,-8.6982,-8.7001,-8.7089,-8.7146,-8.723,-8.7264,-8.7369,-8.7407,-8.7407,-8.7407,-8.7407,-8.7407,-8.7407,-8.7407,-8.7407,-8.713,-8.6804,-8.6544,-8.6868,-8.7264,-8.7386,-8.853,-8.9447,-8.9867,-9.0326,-9.0707,-9.0986,-9.105,-9.1127,-9.1143,-9.1546,-9.1803,-9.1803,-9.1803,-9.173,-9.1657,-9.1583,-9.1358,-9.1053,-9.0975,-9.0625,-8.9986,-8.9364,-8.8544,-8.7597,-8.6449,-8.524,-8.3993,-8.3665,-8.3443,-8.3108,-8.2996,-8.3778,-8.5103,-8.4987,-8.5492,-8.6535,-8.6169,-8.5799,-8.555,-5.4055,-5.5127,-5.6105,-5.7044,-5.7174,-5.7174,-5.7174,-5.7174,-5.7391,-5.7988,-5.8069,-5.8313,-5.8937,-5.8992,-5.8907,-5.8625,-6.058,-6.1745,-6.1552,-6.3622,-6.4888,-6.4888,-6.5884,-6.6982,-6.8104,-6.9187,-7.0203,-7.1312,-7.1312,-7.1634,-7.2245,-7.5274,-7.7032,-7.7699,-8.0849,-8.2186,-8.2251,-8.3396,-8.3885,-8.3989,-8.5062,-8.5091,-8.4518,-8.4518,-8.4211,-8.3841,-8.4057,-8.4456,-8.4806,-8.469,-8.5195,-8.5894,-8.5738,-8.6282,-8.6982,-8.6982,-8.6982,-8.704,-8.7078,-8.7156,-8.723,-8.7304,-8.7362,-8.7407,-8.7407,-8.7407,-8.7407,-8.7407,-8.7407,-8.7401,-8.7347,-8.7053,-8.6787,-8.6669,-8.7078,-8.7576,-8.8227,-8.9027,-8.9791,-9.0517,-9.065,-9.0835,-9.1205,-9.0987,-9.1069,-9.173,-9.1803,-9.1803,-9.1803,-9.1803,-9.1657,-9.1508,-9.1433,-9.1282,-9.0897,-9.0897,-9.0268,-8.9106,-8.8932,-8.8365,-8.7316,-8.5987,-8.4822,-8.3775,-8.3443,-8.3108,-8.2883,-8.2883,-8.3778,-8.5103,-8.472,-8.5254,-8.6291,-8.5923,-8.555,-8.5268,-5.5153,-5.6236,-5.7044,-5.7174,-5.7174,-5.7174,-5.7174,-5.7174,-5.7391,-5.7988,-5.8069,-5.8313,-5.8937,-5.8992,-5.9468,-6.0449,-6.1432,-6.2432,-6.3563,-6.438,-6.4888,-6.4888,-6.5884,-6.6982,-6.8104,-6.9187,-7.0203,-7.1312,-7.1312,-7.183,-7.3031,-7.5513,-7.7334,-7.856,-8.1087,-8.2186,-8.2251,-8.3396,-8.3885,-8.3989,-8.5062,-8.5435,-8.5358,-8.5358,-8.5436,-8.5608,-8.5869,-8.6236,-8.6515,-8.5777,-8.6088,-8.6671,-8.5933,-8.6282,-8.6982,-8.6982,-8.6982,-8.7037,-8.7156,-8.7205,-8.724,-8.7366,-8.7375,-8.7407,-8.7407,-8.7407,-8.7407,-8.7407,-8.7407,-8.7347,-8.7181,-8.6804,-8.6708,-8.7195,-8.7648,-8.8267,-8.9027,-8.9867,-9.0478,-9.0593,-9.0915,-9.1225,-9.1471,-9.1602,-9.1693,-9.1803,-9.1803,-9.1803,-9.1803,-9.1657,-9.1508,-9.1508,-9.1206,-9.0975,-9.0897,-9.074,-9.0141,-8.9106,-8.8239,-8.7316,-8.6286,-8.4961,-8.4177,-8.3775,-8.3443,-8.3108,-8.2883,-8.2883,-8.3778,-8.5103,-8.472,-8.5254,-8.6258,-8.5675,-8.53,-8.5268,-5.5419,-5.6497,-5.7174,-5.7174,-5.7174,-5.7174,-5.7174,-5.7174,-5.7526,-5.8476,-5.8585,-5.8937,-5.9887,-5.9996,-6.0344,-6.1379,-6.2446,-6.3222,-6.3977,-6.4889,-6.5288,-6.4918,-6.6491,-6.7599,-6.8072,-6.9699,-7.0791,-7.1312,-7.1312,-7.1917,-7.316,-7.5591,-7.7408,-7.8735,-8.1087,-8.2186,-8.2251,-8.3396,-8.3885,-8.3989,-8.5062,-8.5511,-8.5511,-8.5511,-8.5777,-8.6146,-8.6559,-8.6816,-8.6943,-8.6554,-8.6671,-8.6943,-8.6554,-8.6671,-8.6982,-8.6982,-8.6982,-8.7037,-8.7165,-8.7212,-8.724,-8.7357,-8.7407,-8.7407,-8.7407,-8.7407,-8.7407,-8.7407,-8.7407,-8.7347,-8.7157,-8.7156,-8.7216,-8.734,-8.8152,-8.8874,-8.9256,-9.0058,-9.0618,-9.073,-9.0699,-9.0926,-9.1465,-9.168,-9.1803,-9.1803,-9.1803,-9.1803,-9.1803,-9.1657,-9.1433,-9.1358,-9.1053,-9.0819,-9.074,-9.0105,-8.9278,-8.8239,-8.7221,-8.6483,-8.5786,-8.4573,-8.3775,-8.3554,-8.322,-8.2996,-8.2883,-8.2883,-8.3778,-8.4987,-8.4485,-8.4893,-8.5675,-8.5425,-8.5268,-8.5268]}]]